Wetterdaten: Freitag, 10.11.2017
Datum Zeit Temp. A. Pool Temp. Feuchte A. Luftdruck Regen Wind Richtung Richtung Sonnenschein ET UV Solar Taupunkt Windchill Windben Empfang
10.11.2017 00:00 6,2 C 7,8 C 86 % 1023,9 hPa 0,0 l/m 4,1 km/h (1 Bft) S-SW 213 0 min 0,000 mm 0,0 UV-I 0 W/m 4,0 C 6,2 C 6,4 km/h (2 Bft) 97,87 %
10.11.2017 00:02 6,2 C 7,8 C 86 % 1023,8 hPa 0,0 l/m 4,5 km/h (1 Bft) S-SW 213 0 min 0,000 mm 0,0 UV-I 0 W/m 4,0 C 6,2 C 6,4 km/h (2 Bft) 95,74 %
10.11.2017 00:04 6,2 C 7,8 C 86 % 1023,8 hPa 0,0 l/m 4,5 km/h (1 Bft) SW 219 0 min 0,000 mm 0,0 UV-I 0 W/m 4,0 C 6,2 C 6,4 km/h (2 Bft) 97,87 %
10.11.2017 00:06 6,2 C 7,8 C 86 % 1023,8 hPa 0,0 l/m 4,8 km/h (1 Bft) SW 219 0 min 0,000 mm 0,0 UV-I 0 W/m 4,0 C 6,2 C 6,4 km/h (2 Bft) 97,14 %
10.11.2017 00:08 6,2 C 7,8 C 87 % 1023,8 hPa 0,0 l/m 3,6 km/h (1 Bft) SW 219 0 min 0,000 mm 0,0 UV-I 0 W/m 4,2 C 6,2 C 4,8 km/h (1 Bft) 97,87 %
10.11.2017 00:10 6,1 C 7,8 C 87 % 1023,8 hPa 0,0 l/m 3,3 km/h (1 Bft) SW 219 0 min 0,000 mm 0,0 UV-I 0 W/m 4,1 C 6,1 C 4,8 km/h (1 Bft) 100,00 %
10.11.2017 00:12 6,1 C 7,8 C 87 % 1023,8 hPa 0,0 l/m 4,4 km/h (1 Bft) SW 219 0 min 0,000 mm 0,0 UV-I 0 W/m 4,1 C 6,1 C 6,4 km/h (2 Bft) 100,00 %
10.11.2017 00:14 6,1 C 7,8 C 87 % 1023,8 hPa 0,0 l/m 5,3 km/h (1 Bft) SW 218 0 min 0,000 mm 0,0 UV-I 0 W/m 4,1 C 6,1 C 8,0 km/h (2 Bft) 100,00 %
10.11.2017 00:16 6,1 C 7,8 C 87 % 1023,7 hPa 0,0 l/m 5,9 km/h (2 Bft) SW 216 0 min 0,000 mm 0,0 UV-I 0 W/m 4,1 C 6,1 C 11,3 km/h (2 Bft) 98,00 %
10.11.2017 00:18 6,2 C 7,8 C 87 % 1023,7 hPa 0,0 l/m 6,7 km/h (2 Bft) S-SW 204 0 min 0,000 mm 0,0 UV-I 0 W/m 4,2 C 6,0 C 9,7 km/h (2 Bft) 100,00 %
10.11.2017 00:20 6,1 C 7,8 C 86 % 1023,8 hPa 0,0 l/m 6,3 km/h (2 Bft) S-SW 210 0 min 0,000 mm 0,0 UV-I 0 W/m 3,9 C 6,1 C 9,7 km/h (2 Bft) 97,87 %
10.11.2017 00:22 6,2 C 7,8 C 86 % 1023,7 hPa 0,0 l/m 4,9 km/h (1 Bft) SW 219 0 min 0,000 mm 0,0 UV-I 0 W/m 4,0 C 6,2 C 8,0 km/h (2 Bft) 98,00 %
10.11.2017 00:24 6,2 C 7,8 C 86 % 1023,7 hPa 0,0 l/m 4,0 km/h (1 Bft) SW 228 0 min 0,000 mm 0,0 UV-I 0 W/m 4,0 C 6,2 C 6,4 km/h (2 Bft) 98,00 %
10.11.2017 00:26 6,2 C 7,8 C 86 % 1023,7 hPa 0,0 l/m 4,2 km/h (1 Bft) SW 228 0 min 0,000 mm 0,0 UV-I 0 W/m 4,0 C 6,2 C 6,4 km/h (2 Bft) 100,00 %
10.11.2017 00:28 6,2 C 7,8 C 86 % 1023,8 hPa 0,0 l/m 3,0 km/h (1 Bft) SW 228 0 min 0,000 mm 0,0 UV-I 0 W/m 4,0 C 6,2 C 4,8 km/h (1 Bft) 100,00 %
10.11.2017 00:30 6,2 C 7,8 C 86 % 1023,8 hPa 0,0 l/m 3,0 km/h (1 Bft) SW 228 0 min 0,000 mm 0,0 UV-I 0 W/m 4,0 C 6,2 C 4,8 km/h (1 Bft) 100,00 %
10.11.2017 00:32 6,2 C 7,8 C 86 % 1023,8 hPa 0,0 l/m 2,6 km/h (1 Bft) SW 228 0 min 0,000 mm 0,0 UV-I 0 W/m 4,0 C 6,2 C 4,8 km/h (1 Bft) 100,00 %
10.11.2017 00:34 6,2 C 7,8 C 86 % 1023,7 hPa 0,0 l/m 3,2 km/h (1 Bft) SW 228 0 min 0,000 mm 0,0 UV-I 0 W/m 4,0 C 6,2 C 4,8 km/h (1 Bft) 97,87 %
10.11.2017 00:36 6,1 C 7,8 C 86 % 1023,7 hPa 0,0 l/m 4,0 km/h (1 Bft) W 259 0 min 0,000 mm 0,0 UV-I 0 W/m 3,9 C 6,1 C 4,8 km/h (1 Bft) 97,87 %
10.11.2017 00:38 6,1 C 7,8 C 86 % 1023,6 hPa 0,0 l/m 4,4 km/h (1 Bft) W-SW 246 0 min 0,000 mm 0,0 UV-I 0 W/m 3,9 C 6,1 C 6,4 km/h (2 Bft) 98,00 %
10.11.2017 00:40 6,1 C 7,8 C 86 % 1023,6 hPa 0,0 l/m 5,2 km/h (1 Bft) SW 234 0 min 0,000 mm 0,0 UV-I 0 W/m 3,9 C 6,1 C 6,4 km/h (2 Bft) 98,11 %
10.11.2017 00:42 6,1 C 7,8 C 87 % 1023,6 hPa 0,0 l/m 4,7 km/h (1 Bft) SW 234 0 min 0,000 mm 0,0 UV-I 0 W/m 4,1 C 6,1 C 6,4 km/h (2 Bft) 97,37 %
10.11.2017 00:44 6,1 C 7,8 C 87 % 1023,6 hPa 0,0 l/m 4,4 km/h (1 Bft) W-SW 246 0 min 0,000 mm 0,0 UV-I 0 W/m 4,1 C 6,1 C 8,0 km/h (2 Bft) 97,87 %
10.11.2017 00:46 6,1 C 7,8 C 87 % 1023,6 hPa 0,0 l/m 5,8 km/h (2 Bft) SW 228 0 min 0,000 mm 0,0 UV-I 0 W/m 4,1 C 6,1 C 8,0 km/h (2 Bft) 96,00 %
10.11.2017 00:48 6,1 C 7,8 C 86 % 1023,6 hPa 0,0 l/m 5,6 km/h (1 Bft) SW 229 0 min 0,000 mm 0,0 UV-I 0 W/m 3,9 C 6,1 C 8,0 km/h (2 Bft) 97,87 %
10.11.2017 00:50 6,1 C 7,8 C 86 % 1023,6 hPa 0,0 l/m 6,8 km/h (2 Bft) W-SW 241 0 min 0,000 mm 0,0 UV-I 0 W/m 3,9 C 5,8 C 9,7 km/h (2 Bft) 97,73 %
10.11.2017 00:52 6,2 C 7,8 C 86 % 1023,6 hPa 0,0 l/m 6,9 km/h (2 Bft) SW 225 0 min 0,000 mm 0,0 UV-I 0 W/m 4,0 C 5,8 C 9,7 km/h (2 Bft) 98,11 %
10.11.2017 00:54 6,2 C 7,8 C 86 % 1023,7 hPa 0,0 l/m 6,7 km/h (2 Bft) SW 227 0 min 0,000 mm 0,0 UV-I 0 W/m 4,0 C 6,0 C 9,7 km/h (2 Bft) 97,62 %
10.11.2017 00:56 6,2 C 7,8 C 85 % 1023,7 hPa 0,0 l/m 4,5 km/h (1 Bft) W-SW 244 0 min 0,000 mm 0,0 UV-I 0 W/m 3,9 C 6,2 C 6,4 km/h (2 Bft) 98,18 %
10.11.2017 00:58 6,2 C 7,8 C 85 % 1023,6 hPa 0,0 l/m 5,0 km/h (1 Bft) W-SW 247 0 min 0,000 mm 0,0 UV-I 0 W/m 3,9 C 6,2 C 6,4 km/h (2 Bft) 97,62 %
10.11.2017 01:00 6,2 C 7,8 C 85 % 1023,6 hPa 0,0 l/m 5,8 km/h (2 Bft) W 264 0 min 0,000 mm 0,0 UV-I 0 W/m 3,9 C 6,2 C 9,7 km/h (2 Bft) 97,87 %
10.11.2017 01:02 6,2 C 7,8 C 85 % 1023,6 hPa 0,0 l/m 4,1 km/h (1 Bft) W-SW 253 0 min 0,000 mm 0,0 UV-I 0 W/m 3,9 C 6,2 C 6,4 km/h (2 Bft) 95,74 %
10.11.2017 01:04 6,2 C 7,8 C 85 % 1023,6 hPa 0,0 l/m 4,6 km/h (1 Bft) W-SW 241 0 min 0,000 mm 0,0 UV-I 0 W/m 3,9 C 6,2 C 6,4 km/h (2 Bft) 98,00 %
10.11.2017 01:06 6,2 C 7,8 C 86 % 1023,6 hPa 0,0 l/m 5,2 km/h (1 Bft) W-SW 250 0 min 0,000 mm 0,0 UV-I 0 W/m 4,0 C 6,2 C 6,4 km/h (2 Bft) 97,56 %
10.11.2017 01:08 6,2 C 7,8 C 86 % 1023,7 hPa 0,0 l/m 5,6 km/h (1 Bft) W-SW 255 0 min 0,000 mm 0,0 UV-I 0 W/m 4,0 C 6,2 C 6,4 km/h (2 Bft) 96,00 %
10.11.2017 01:10 6,1 C 7,8 C 86 % 1023,7 hPa 0,0 l/m 5,4 km/h (1 Bft) W-SW 250 0 min 0,000 mm 0,0 UV-I 0 W/m 3,9 C 6,1 C 6,4 km/h (2 Bft) 100,00 %
10.11.2017 01:12 6,1 C 7,8 C 86 % 1023,7 hPa 0,0 l/m 5,2 km/h (1 Bft) W 259 0 min 0,000 mm 0,0 UV-I 0 W/m 3,9 C 6,1 C 9,7 km/h (2 Bft) 100,00 %
10.11.2017 01:14 6,1 C 7,8 C 86 % 1023,7 hPa 0,0 l/m 5,6 km/h (1 Bft) W-SW 238 0 min 0,000 mm 0,0 UV-I 0 W/m 3,9 C 6,1 C 8,0 km/h (2 Bft) 100,00 %
10.11.2017 01:16 6,1 C 7,8 C 86 % 1023,6 hPa 0,0 l/m 5,5 km/h (1 Bft) W 261 0 min 0,000 mm 0,0 UV-I 0 W/m 3,9 C 6,1 C 8,0 km/h (2 Bft) 98,00 %
10.11.2017 01:18 6,1 C 7,8 C 86 % 1023,7 hPa 0,0 l/m 5,8 km/h (2 Bft) SW 236 0 min 0,000 mm 0,0 UV-I 0 W/m 3,9 C 6,1 C 9,7 km/h (2 Bft) 100,00 %
10.11.2017 01:20 6,2 C 7,8 C 86 % 1023,7 hPa 0,0 l/m 6,0 km/h (2 Bft) SW 218 0 min 0,000 mm 0,0 UV-I 0 W/m 4,0 C 6,2 C 8,0 km/h (2 Bft) 100,00 %
10.11.2017 01:22 6,2 C 7,8 C 86 % 1023,7 hPa 0,0 l/m 5,2 km/h (1 Bft) W-SW 252 0 min 0,000 mm 0,0 UV-I 0 W/m 4,0 C 6,2 C 6,4 km/h (2 Bft) 97,37 %
10.11.2017 01:24 6,1 C 7,8 C 86 % 1023,7 hPa 0,0 l/m 5,1 km/h (1 Bft) W-SW 242 0 min 0,000 mm 0,0 UV-I 0 W/m 3,9 C 6,1 C 6,4 km/h (2 Bft) 100,00 %
10.11.2017 01:26 6,1 C 7,8 C 86 % 1023,7 hPa 0,0 l/m 5,8 km/h (2 Bft) W-SW 239 0 min 0,000 mm 0,0 UV-I 0 W/m 3,9 C 6,1 C 9,7 km/h (2 Bft) 100,00 %
10.11.2017 01:28 6,1 C 7,8 C 86 % 1023,6 hPa 0,0 l/m 5,9 km/h (2 Bft) W-SW 241 0 min 0,000 mm 0,0 UV-I 0 W/m 3,9 C 6,1 C 8,0 km/h (2 Bft) 100,00 %
10.11.2017 01:30 6,1 C 7,8 C 86 % 1023,6 hPa 0,0 l/m 3,7 km/h (1 Bft) W-SW 241 0 min 0,000 mm 0,0 UV-I 0 W/m 3,9 C 6,1 C 4,8 km/h (1 Bft) 98,00 %
10.11.2017 01:32 6,1 C 7,8 C 87 % 1023,7 hPa 0,0 l/m 4,6 km/h (1 Bft) W-SW 242 0 min 0,000 mm 0,0 UV-I 0 W/m 4,1 C 6,1 C 6,4 km/h (2 Bft) 100,00 %
10.11.2017 01:34 6,1 C 7,8 C 87 % 1023,6 hPa 0,0 l/m 4,6 km/h (1 Bft) W-SW 242 0 min 0,000 mm 0,0 UV-I 0 W/m 4,1 C 6,1 C 6,4 km/h (2 Bft) 100,00 %
10.11.2017 01:36 6,1 C 7,8 C 87 % 1023,7 hPa 0,0 l/m 3,5 km/h (1 Bft) W-SW 242 0 min 0,000 mm 0,0 UV-I 0 W/m 4,1 C 6,1 C 4,8 km/h (1 Bft) 100,00 %
10.11.2017 01:38 6,1 C 7,8 C 87 % 1023,6 hPa 0,0 l/m 3,0 km/h (1 Bft) W-SW 242 0 min 0,000 mm 0,0 UV-I 0 W/m 4,1 C 6,1 C 4,8 km/h (1 Bft) 98,11 %
10.11.2017 01:40 6,0 C 7,8 C 87 % 1023,6 hPa 0,0 l/m 3,3 km/h (1 Bft) W-SW 242 0 min 0,000 mm 0,0 UV-I 0 W/m 4,0 C 6,0 C 4,8 km/h (1 Bft) 100,00 %
10.11.2017 01:42 6,0 C 7,8 C 88 % 1023,6 hPa 0,0 l/m 4,6 km/h (1 Bft) W-SW 242 0 min 0,000 mm 0,0 UV-I 0 W/m 4,2 C 6,0 C 6,4 km/h (2 Bft) 100,00 %
10.11.2017 01:44 5,9 C 7,8 C 88 % 1023,6 hPa 0,0 l/m 3,7 km/h (1 Bft) W-SW 242 0 min 0,000 mm 0,0 UV-I 0 W/m 4,1 C 5,9 C 4,8 km/h (1 Bft) 100,00 %
10.11.2017 01:46 5,9 C 7,8 C 88 % 1023,6 hPa 0,0 l/m 4,8 km/h (1 Bft) SW 214 0 min 0,000 mm 0,0 UV-I 0 W/m 4,1 C 5,9 C 6,4 km/h (2 Bft) 100,00 %
10.11.2017 01:48 5,9 C 7,8 C 87 % 1023,6 hPa 0,0 l/m 4,5 km/h (1 Bft) SW 220 0 min 0,000 mm 0,0 UV-I 0 W/m 3,9 C 5,9 C 6,4 km/h (2 Bft) 100,00 %
10.11.2017 01:50 6,0 C 7,8 C 87 % 1023,6 hPa 0,0 l/m 6,1 km/h (2 Bft) SW 219 0 min 0,000 mm 0,0 UV-I 0 W/m 4,0 C 6,0 C 11,3 km/h (2 Bft) 100,00 %
10.11.2017 01:52 6,1 C 7,8 C 87 % 1023,6 hPa 0,0 l/m 5,5 km/h (1 Bft) W-SW 242 0 min 0,000 mm 0,0 UV-I 0 W/m 4,1 C 6,1 C 8,0 km/h (2 Bft) 100,00 %
10.11.2017 01:54 6,1 C 7,8 C 86 % 1023,6 hPa 0,0 l/m 5,6 km/h (1 Bft) S-SW 194 0 min 0,000 mm 0,0 UV-I 0 W/m 3,9 C 6,1 C 9,7 km/h (2 Bft) 100,00 %
10.11.2017 01:56 6,1 C 7,8 C 86 % 1023,6 hPa 0,0 l/m 6,6 km/h (2 Bft) S-SW 211 0 min 0,000 mm 0,0 UV-I 0 W/m 3,9 C 6,0 C 9,7 km/h (2 Bft) 100,00 %
10.11.2017 01:58 6,1 C 7,8 C 86 % 1023,6 hPa 0,0 l/m 4,0 km/h (1 Bft) S-SW 197 0 min 0,000 mm 0,0 UV-I 0 W/m 3,9 C 6,1 C 8,0 km/h (2 Bft) 100,00 %
10.11.2017 02:00 6,1 C 7,8 C 87 % 1023,6 hPa 0,0 l/m 3,5 km/h (1 Bft) S 181 0 min 0,000 mm 0,0 UV-I 0 W/m 4,1 C 6,1 C 6,4 km/h (2 Bft) 100,00 %
10.11.2017 02:02 6,1 C 7,8 C 87 % 1023,6 hPa 0,0 l/m 4,8 km/h (1 Bft) S-SW 193 0 min 0,000 mm 0,0 UV-I 0 W/m 4,1 C 6,1 C 9,7 km/h (2 Bft) 100,00 %
10.11.2017 02:04 6,1 C 7,8 C 86 % 1023,5 hPa 0,0 l/m 6,4 km/h (2 Bft) S-SW 202 0 min 0,000 mm 0,0 UV-I 0 W/m 3,9 C 6,1 C 11,3 km/h (2 Bft) 100,00 %
10.11.2017 02:06 6,1 C 7,8 C 86 % 1023,5 hPa 0,0 l/m 7,1 km/h (2 Bft) S 190 0 min 0,000 mm 0,0 UV-I 0 W/m 3,9 C 5,5 C 11,3 km/h (2 Bft) 100,00 %
10.11.2017 02:08 6,1 C 7,8 C 86 % 1023,6 hPa 0,0 l/m 3,9 km/h (1 Bft) S-SW 196 0 min 0,000 mm 0,0 UV-I 0 W/m 3,9 C 6,1 C 6,4 km/h (2 Bft) 100,00 %
10.11.2017 02:10 6,1 C 7,8 C 86 % 1023,6 hPa 0,0 l/m 5,1 km/h (1 Bft) SW 236 0 min 0,000 mm 0,0 UV-I 0 W/m 3,9 C 6,1 C 6,4 km/h (2 Bft) 100,00 %
10.11.2017 02:12 6,1 C 7,8 C 86 % 1023,6 hPa 0,0 l/m 5,1 km/h (1 Bft) W-SW 244 0 min 0,000 mm 0,0 UV-I 0 W/m 3,9 C 6,1 C 9,7 km/h (2 Bft) 100,00 %
10.11.2017 02:14 6,2 C 7,8 C 86 % 1023,6 hPa 0,0 l/m 7,3 km/h (2 Bft) S-SW 204 0 min 0,000 mm 0,0 UV-I 0 W/m 4,0 C 5,4 C 11,3 km/h (2 Bft) 100,00 %
10.11.2017 02:16 6,2 C 7,8 C 85 % 1023,5 hPa 0,0 l/m 7,7 km/h (2 Bft) SW 215 0 min 0,000 mm 0,0 UV-I 0 W/m 3,9 C 5,1 C 12,9 km/h (3 Bft) 93,62 %
10.11.2017 02:18 6,2 C 7,8 C 85 % 1023,5 hPa 0,0 l/m 11,0 km/h (2 Bft) S-SW 194 0 min 0,000 mm 0,0 UV-I 0 W/m 3,9 C 2,7 C 16,1 km/h (3 Bft) 97,87 %
10.11.2017 02:20 6,3 C 7,8 C 84 % 1023,5 hPa 0,0 l/m 9,2 km/h (2 Bft) SW 235 0 min 0,000 mm 0,0 UV-I 0 W/m 3,8 C 4,1 C 16,1 km/h (3 Bft) 100,00 %
10.11.2017 02:22 6,3 C 7,8 C 84 % 1023,5 hPa 0,0 l/m 8,9 km/h (2 Bft) S-SW 213 0 min 0,000 mm 0,0 UV-I 0 W/m 3,8 C 4,3 C 14,5 km/h (3 Bft) 97,56 %
10.11.2017 02:24 6,3 C 7,8 C 84 % 1023,5 hPa 0,0 l/m 7,4 km/h (2 Bft) S-SW 201 0 min 0,000 mm 0,0 UV-I 0 W/m 3,8 C 5,5 C 11,3 km/h (2 Bft) 100,00 %
10.11.2017 02:26 6,3 C 7,8 C 84 % 1023,5 hPa 0,0 l/m 9,6 km/h (2 Bft) S-SW 202 0 min 0,000 mm 0,0 UV-I 0 W/m 3,8 C 3,8 C 14,5 km/h (3 Bft) 100,00 %
10.11.2017 02:28 6,3 C 7,8 C 84 % 1023,5 hPa 0,0 l/m 5,9 km/h (2 Bft) S-SW 211 0 min 0,000 mm 0,0 UV-I 0 W/m 3,8 C 6,3 C 8,0 km/h (2 Bft) 100,00 %
10.11.2017 02:30 6,3 C 7,8 C 84 % 1023,4 hPa 0,0 l/m 8,6 km/h (2 Bft) SW 236 0 min 0,000 mm 0,0 UV-I 0 W/m 3,8 C 4,5 C 16,1 km/h (3 Bft) 97,37 %
10.11.2017 02:32 6,3 C 7,8 C 84 % 1023,4 hPa 0,0 l/m 7,8 km/h (2 Bft) SW 221 0 min 0,000 mm 0,0 UV-I 0 W/m 3,8 C 5,1 C 12,9 km/h (3 Bft) 100,00 %
10.11.2017 02:34 6,3 C 7,8 C 84 % 1023,4 hPa 0,0 l/m 11,2 km/h (2 Bft) S-SW 212 0 min 0,000 mm 0,0 UV-I 0 W/m 3,8 C 2,7 C 16,1 km/h (3 Bft) 100,00 %
10.11.2017 02:36 6,3 C 7,8 C 84 % 1023,4 hPa 0,0 l/m 8,5 km/h (2 Bft) SW 222 0 min 0,000 mm 0,0 UV-I 0 W/m 3,8 C 4,6 C 14,5 km/h (3 Bft) 100,00 %
10.11.2017 02:38 6,3 C 7,8 C 83 % 1023,4 hPa 0,0 l/m 7,8 km/h (2 Bft) S-SW 202 0 min 0,000 mm 0,0 UV-I 0 W/m 3,6 C 5,1 C 11,3 km/h (2 Bft) 98,00 %
10.11.2017 02:40 6,3 C 7,8 C 84 % 1023,3 hPa 0,0 l/m 6,4 km/h (2 Bft) SW 219 0 min 0,000 mm 0,0 UV-I 0 W/m 3,8 C 6,3 C 9,7 km/h (2 Bft) 100,00 %
10.11.2017 02:42 6,3 C 7,8 C 84 % 1023,3 hPa 0,0 l/m 6,4 km/h (2 Bft) S-SW 213 0 min 0,000 mm 0,0 UV-I 0 W/m 3,8 C 6,3 C 9,7 km/h (2 Bft) 97,44 %
10.11.2017 02:44 6,3 C 7,8 C 84 % 1023,3 hPa 0,0 l/m 6,7 km/h (2 Bft) S-SW 211 0 min 0,000 mm 0,0 UV-I 0 W/m 3,8 C 6,1 C 9,7 km/h (2 Bft) 95,74 %
10.11.2017 02:46 6,3 C 7,8 C 84 % 1023,3 hPa 0,0 l/m 6,2 km/h (2 Bft) S-SW 205 0 min 0,000 mm 0,0 UV-I 0 W/m 3,8 C 6,3 C 12,9 km/h (3 Bft) 97,87 %
10.11.2017 02:48 6,3 C 7,8 C 83 % 1023,3 hPa 0,0 l/m 7,8 km/h (2 Bft) S-SW 204 0 min 0,000 mm 0,0 UV-I 0 W/m 3,6 C 5,1 C 11,3 km/h (2 Bft) 96,00 %
10.11.2017 02:50 6,3 C 7,8 C 84 % 1023,3 hPa 0,0 l/m 6,6 km/h (2 Bft) SW 225 0 min 0,000 mm 0,0 UV-I 0 W/m 3,8 C 6,2 C 9,7 km/h (2 Bft) 96,00 %
10.11.2017 02:52 6,3 C 7,8 C 84 % 1023,3 hPa 0,0 l/m 4,9 km/h (1 Bft) W-SW 254 0 min 0,000 mm 0,0 UV-I 0 W/m 3,8 C 6,3 C 6,4 km/h (2 Bft) 95,74 %
10.11.2017 02:54 6,2 C 7,8 C 84 % 1023,3 hPa 0,0 l/m 5,6 km/h (1 Bft) W-SW 240 0 min 0,000 mm 0,0 UV-I 0 W/m 3,7 C 6,2 C 11,3 km/h (2 Bft) 92,86 %
10.11.2017 02:56 6,2 C 7,8 C 84 % 1023,3 hPa 0,0 l/m 6,2 km/h (2 Bft) W-SW 239 0 min 0,000 mm 0,0 UV-I 0 W/m 3,7 C 6,2 C 9,7 km/h (2 Bft) 95,45 %
10.11.2017 02:58 6,2 C 7,8 C 85 % 1023,4 hPa 0,0 l/m 6,8 km/h (2 Bft) W-SW 238 0 min 0,000 mm 0,0 UV-I 0 W/m 3,9 C 5,9 C 9,7 km/h (2 Bft) 95,74 %
10.11.2017 03:00 6,2 C 7,8 C 85 % 1023,3 hPa 0,0 l/m 7,1 km/h (2 Bft) SW 234 0 min 0,025 mm 0,0 UV-I 0 W/m 3,9 C 5,6 C 9,7 km/h (2 Bft) 94,64 %
10.11.2017 03:02 6,2 C 7,8 C 85 % 1023,2 hPa 0,0 l/m 7,6 km/h (2 Bft) W-SW 239 0 min 0,000 mm 0,0 UV-I 0 W/m 3,9 C 5,2 C 9,7 km/h (2 Bft) 94,29 %
10.11.2017 03:04 6,1 C 7,8 C 85 % 1023,2 hPa 0,0 l/m 6,2 km/h (2 Bft) SW 224 0 min 0,000 mm 0,0 UV-I 0 W/m 3,8 C 6,1 C 9,7 km/h (2 Bft) 94,34 %
10.11.2017 03:06 6,1 C 7,8 C 86 % 1023,2 hPa 0,0 l/m 5,9 km/h (2 Bft) SW 236 0 min 0,000 mm 0,0 UV-I 0 W/m 3,9 C 6,1 C 9,7 km/h (2 Bft) 97,37 %
10.11.2017 03:08 6,1 C 7,8 C 86 % 1023,1 hPa 0,0 l/m 5,7 km/h (1 Bft) SW 225 0 min 0,000 mm 0,0 UV-I 0 W/m 3,9 C 6,1 C 8,0 km/h (2 Bft) 92,45 %
10.11.2017 03:10 6,1 C 7,8 C 86 % 1023,1 hPa 0,0 l/m 6,6 km/h (2 Bft) SW 232 0 min 0,000 mm 0,0 UV-I 0 W/m 3,9 C 6,0 C 11,3 km/h (2 Bft) 97,56 %
10.11.2017 03:12 6,1 C 7,8 C 85 % 1023,1 hPa 0,0 l/m 5,9 km/h (2 Bft) SW 226 0 min 0,000 mm 0,0 UV-I 0 W/m 3,8 C 6,1 C 9,7 km/h (2 Bft) 94,34 %
10.11.2017 03:14 6,1 C 7,8 C 86 % 1023,1 hPa 0,0 l/m 7,4 km/h (2 Bft) SW 225 0 min 0,000 mm 0,0 UV-I 0 W/m 3,9 C 5,3 C 12,9 km/h (3 Bft) 95,12 %
10.11.2017 03:16 6,1 C 7,8 C 86 % 1023,1 hPa 0,0 l/m 6,1 km/h (2 Bft) S-SW 209 0 min 0,000 mm 0,0 UV-I 0 W/m 3,9 C 6,1 C 8,0 km/h (2 Bft) 98,00 %
10.11.2017 03:18 6,1 C 7,8 C 86 % 1023,0 hPa 0,0 l/m 7,4 km/h (2 Bft) SW 229 0 min 0,000 mm 0,0 UV-I 0 W/m 3,9 C 5,3 C 9,7 km/h (2 Bft) 98,11 %
10.11.2017 03:20 6,1 C 7,8 C 86 % 1023,0 hPa 0,0 l/m 6,3 km/h (2 Bft) SW 216 0 min 0,000 mm 0,0 UV-I 0 W/m 3,9 C 6,1 C 9,7 km/h (2 Bft) 96,30 %
10.11.2017 03:22 6,1 C 7,8 C 86 % 1023,0 hPa 0,0 l/m 7,6 km/h (2 Bft) S-SW 196 0 min 0,000 mm 0,0 UV-I 0 W/m 3,9 C 5,1 C 12,9 km/h (3 Bft) 97,01 %
10.11.2017 03:24 6,1 C 7,8 C 85 % 1023,0 hPa 0,0 l/m 7,4 km/h (2 Bft) S-SW 209 0 min 0,000 mm 0,0 UV-I 0 W/m 3,8 C 5,3 C 12,9 km/h (3 Bft) 94,74 %
10.11.2017 03:26 6,1 C 7,8 C 85 % 1023,0 hPa 0,0 l/m 7,5 km/h (2 Bft) SW 229 0 min 0,000 mm 0,0 UV-I 0 W/m 3,8 C 5,2 C 12,9 km/h (3 Bft) 98,00 %
10.11.2017 03:28 6,1 C 7,8 C 85 % 1022,9 hPa 0,0 l/m 10,1 km/h (2 Bft) S-SW 196 0 min 0,000 mm 0,0 UV-I 0 W/m 3,8 C 3,2 C 14,5 km/h (3 Bft) 98,00 %
10.11.2017 03:30 6,2 C 7,8 C 85 % 1023,0 hPa 0,0 l/m 8,0 km/h (2 Bft) S-SW 200 0 min 0,000 mm 0,0 UV-I 0 W/m 3,9 C 4,9 C 12,9 km/h (3 Bft) 94,87 %
10.11.2017 03:32 6,2 C 7,8 C 85 % 1022,9 hPa 0,0 l/m 8,0 km/h (2 Bft) S 190 0 min 0,000 mm 0,0 UV-I 0 W/m 3,9 C 4,9 C 12,9 km/h (3 Bft) 96,30 %
10.11.2017 03:34 6,2 C 7,8 C 85 % 1022,9 hPa 0,0 l/m 8,3 km/h (2 Bft) S 182 0 min 0,000 mm 0,0 UV-I 0 W/m 3,9 C 4,6 C 12,9 km/h (3 Bft) 98,08 %
10.11.2017 03:36 6,2 C 7,8 C 85 % 1022,8 hPa 0,0 l/m 6,8 km/h (2 Bft) SW 224 0 min 0,000 mm 0,0 UV-I 0 W/m 3,9 C 5,9 C 9,7 km/h (2 Bft) 97,44 %
10.11.2017 03:38 6,2 C 7,8 C 85 % 1022,8 hPa 0,0 l/m 6,6 km/h (2 Bft) W-SW 242 0 min 0,000 mm 0,0 UV-I 0 W/m 3,9 C 6,1 C 9,7 km/h (2 Bft) 97,73 %
10.11.2017 03:40 6,1 C 7,8 C 85 % 1022,7 hPa 0,0 l/m 6,6 km/h (2 Bft) S-SW 207 0 min 0,000 mm 0,0 UV-I 0 W/m 3,8 C 6,0 C 9,7 km/h (2 Bft) 96,23 %
10.11.2017 03:42 6,1 C 7,8 C 85 % 1022,7 hPa 0,0 l/m 10,0 km/h (2 Bft) S-SW 196 0 min 0,000 mm 0,0 UV-I 0 W/m 3,8 C 3,3 C 14,5 km/h (3 Bft) 98,11 %
10.11.2017 03:44 6,1 C 7,8 C 85 % 1022,6 hPa 0,0 l/m 9,2 km/h (2 Bft) S-SW 196 0 min 0,000 mm 0,0 UV-I 0 W/m 3,8 C 3,8 C 14,5 km/h (3 Bft) 97,73 %
10.11.2017 03:46 6,1 C 7,8 C 85 % 1022,6 hPa 0,0 l/m 8,3 km/h (2 Bft) S-SW 202 0 min 0,000 mm 0,0 UV-I 0 W/m 3,8 C 4,5 C 12,9 km/h (3 Bft) 97,37 %
10.11.2017 03:48 6,1 C 7,8 C 85 % 1022,6 hPa 0,0 l/m 8,4 km/h (2 Bft) S-SW 211 0 min 0,000 mm 0,0 UV-I 0 W/m 3,8 C 4,4 C 12,9 km/h (3 Bft) 97,87 %
10.11.2017 03:50 6,1 C 7,8 C 85 % 1022,6 hPa 0,0 l/m 7,5 km/h (2 Bft) S-SW 200 0 min 0,000 mm 0,0 UV-I 0 W/m 3,8 C 5,2 C 11,3 km/h (2 Bft) 98,00 %
10.11.2017 03:52 6,1 C 7,8 C 85 % 1022,6 hPa 0,0 l/m 8,3 km/h (2 Bft) S-SW 194 0 min 0,000 mm 0,0 UV-I 0 W/m 3,8 C 4,5 C 11,3 km/h (2 Bft) 96,23 %
10.11.2017 03:54 6,1 C 7,8 C 85 % 1022,6 hPa 0,0 l/m 7,1 km/h (2 Bft) S-SW 198 0 min 0,000 mm 0,0 UV-I 0 W/m 3,8 C 5,5 C 9,7 km/h (2 Bft) 100,00 %
10.11.2017 03:56 6,1 C 7,8 C 85 % 1022,6 hPa 0,0 l/m 7,3 km/h (2 Bft) S-SW 209 0 min 0,000 mm 0,0 UV-I 0 W/m 3,8 C 5,3 C 9,7 km/h (2 Bft) 100,00 %
10.11.2017 03:58 6,1 C 7,8 C 85 % 1022,5 hPa 0,0 l/m 6,7 km/h (2 Bft) SW 226 0 min 0,000 mm 0,0 UV-I 0 W/m 3,8 C 5,9 C 9,7 km/h (2 Bft) 100,00 %
10.11.2017 04:00 6,1 C 7,8 C 86 % 1022,5 hPa 0,0 l/m 6,6 km/h (2 Bft) S-SW 200 0 min 0,026 mm 0,0 UV-I 0 W/m 3,9 C 6,0 C 8,0 km/h (2 Bft) 100,00 %
10.11.2017 04:02 6,1 C 7,8 C 86 % 1022,5 hPa 0,0 l/m 5,1 km/h (1 Bft) S-SW 200 0 min 0,000 mm 0,0 UV-I 0 W/m 3,9 C 6,1 C 6,4 km/h (2 Bft) 100,00 %
10.11.2017 04:04 6,0 C 7,8 C 86 % 1022,4 hPa 0,0 l/m 5,2 km/h (1 Bft) S-SW 198 0 min 0,000 mm 0,0 UV-I 0 W/m 3,8 C 6,0 C 8,0 km/h (2 Bft) 100,00 %
10.11.2017 04:06 6,0 C 7,8 C 86 % 1022,3 hPa 0,0 l/m 5,3 km/h (1 Bft) S-SW 198 0 min 0,000 mm 0,0 UV-I 0 W/m 3,8 C 6,0 C 11,3 km/h (2 Bft) 98,21 %
10.11.2017 04:08 6,0 C 7,8 C 86 % 1022,4 hPa 0,0 l/m 5,7 km/h (1 Bft) S-SW 205 0 min 0,000 mm 0,0 UV-I 0 W/m 3,8 C 6,0 C 8,0 km/h (2 Bft) 100,00 %
10.11.2017 04:10 6,0 C 7,8 C 86 % 1022,3 hPa 0,0 l/m 5,5 km/h (1 Bft) S 186 0 min 0,000 mm 0,0 UV-I 0 W/m 3,8 C 6,0 C 8,0 km/h (2 Bft) 100,00 %
10.11.2017 04:12 5,9 C 7,8 C 87 % 1022,2 hPa 0,0 l/m 6,2 km/h (2 Bft) S-SW 195 0 min 0,000 mm 0,0 UV-I 0 W/m 3,9 C 5,9 C 9,7 km/h (2 Bft) 100,00 %
10.11.2017 04:14 5,9 C 7,8 C 87 % 1022,2 hPa 0,0 l/m 6,6 km/h (2 Bft) S-SW 212 0 min 0,000 mm 0,0 UV-I 0 W/m 3,9 C 5,8 C 9,7 km/h (2 Bft) 97,87 %
10.11.2017 04:16 6,0 C 7,8 C 87 % 1022,2 hPa 0,0 l/m 6,0 km/h (2 Bft) SW 217 0 min 0,000 mm 0,0 UV-I 0 W/m 4,0 C 6,0 C 9,7 km/h (2 Bft) 94,87 %
10.11.2017 04:18 6,0 C 7,8 C 86 % 1022,1 hPa 0,0 l/m 5,8 km/h (2 Bft) SW 221 0 min 0,000 mm 0,0 UV-I 0 W/m 3,8 C 6,0 C 11,3 km/h (2 Bft) 100,00 %
10.11.2017 04:20 6,0 C 7,8 C 86 % 1022,1 hPa 0,0 l/m 5,4 km/h (1 Bft) S-SW 209 0 min 0,000 mm 0,0 UV-I 0 W/m 3,8 C 6,0 C 9,7 km/h (2 Bft) 100,00 %
10.11.2017 04:22 6,0 C 7,8 C 86 % 1022,0 hPa 0,0 l/m 5,9 km/h (2 Bft) S-SW 199 0 min 0,000 mm 0,0 UV-I 0 W/m 3,8 C 6,0 C 9,7 km/h (2 Bft) 98,00 %
10.11.2017 04:24 6,0 C 7,8 C 86 % 1022,0 hPa 0,0 l/m 6,6 km/h (2 Bft) S-SW 199 0 min 0,000 mm 0,0 UV-I 0 W/m 3,8 C 5,9 C 9,7 km/h (2 Bft) 100,00 %
10.11.2017 04:26 5,9 C 7,8 C 87 % 1022,0 hPa 0,0 l/m 8,0 km/h (2 Bft) S-SW 205 0 min 0,000 mm 0,0 UV-I 0 W/m 3,9 C 4,5 C 11,3 km/h (2 Bft) 100,00 %
10.11.2017 04:28 5,9 C 7,8 C 87 % 1021,9 hPa 0,0 l/m 7,4 km/h (2 Bft) SW 215 0 min 0,000 mm 0,0 UV-I 0 W/m 3,9 C 5,0 C 11,3 km/h (2 Bft) 100,00 %
10.11.2017 04:30 5,9 C 7,8 C 87 % 1021,8 hPa 0,0 l/m 6,8 km/h (2 Bft) S-SW 211 0 min 0,000 mm 0,0 UV-I 0 W/m 3,9 C 5,6 C 9,7 km/h (2 Bft) 98,31 %
10.11.2017 04:32 5,9 C 7,8 C 87 % 1021,8 hPa 0,0 l/m 5,8 km/h (2 Bft) S-SW 206 0 min 0,000 mm 0,0 UV-I 0 W/m 3,9 C 5,9 C 9,7 km/h (2 Bft) 100,00 %
10.11.2017 04:34 5,9 C 7,8 C 87 % 1021,8 hPa 0,0 l/m 5,5 km/h (1 Bft) S 184 0 min 0,000 mm 0,0 UV-I 0 W/m 3,9 C 5,9 C 9,7 km/h (2 Bft) 100,00 %
10.11.2017 04:36 5,9 C 7,8 C 87 % 1021,8 hPa 0,0 l/m 5,6 km/h (1 Bft) S 173 0 min 0,000 mm 0,0 UV-I 0 W/m 3,9 C 5,9 C 8,0 km/h (2 Bft) 97,14 %
10.11.2017 04:38 5,9 C 7,8 C 87 % 1021,8 hPa 0,0 l/m 5,8 km/h (2 Bft) S-SW 192 0 min 0,000 mm 0,0 UV-I 0 W/m 3,9 C 5,9 C 9,7 km/h (2 Bft) 100,00 %
10.11.2017 04:40 5,9 C 7,8 C 87 % 1021,7 hPa 0,0 l/m 6,5 km/h (2 Bft) S-SW 213 0 min 0,000 mm 0,0 UV-I 0 W/m 3,9 C 5,8 C 9,7 km/h (2 Bft) 98,00 %
10.11.2017 04:42 5,9 C 7,8 C 87 % 1021,7 hPa 0,0 l/m 4,7 km/h (1 Bft) S-SW 207 0 min 0,000 mm 0,0 UV-I 0 W/m 3,9 C 5,9 C 8,0 km/h (2 Bft) 100,00 %
10.11.2017 04:44 5,9 C 7,8 C 87 % 1021,6 hPa 0,0 l/m 3,0 km/h (1 Bft) S-SW 207 0 min 0,000 mm 0,0 UV-I 0 W/m 3,9 C 5,9 C 4,8 km/h (1 Bft) 100,00 %
10.11.2017 04:46 5,9 C 7,8 C 87 % 1021,6 hPa 0,0 l/m 4,6 km/h (1 Bft) S-SW 208 0 min 0,000 mm 0,0 UV-I 0 W/m 3,9 C 5,9 C 6,4 km/h (2 Bft) 97,73 %
10.11.2017 04:48 5,9 C 7,8 C 87 % 1021,6 hPa 0,0 l/m 4,6 km/h (1 Bft) SW 221 0 min 0,000 mm 0,0 UV-I 0 W/m 3,9 C 5,9 C 6,4 km/h (2 Bft) 96,00 %
10.11.2017 04:50 5,9 C 7,8 C 86 % 1021,6 hPa 0,0 l/m 5,6 km/h (1 Bft) S-SW 202 0 min 0,000 mm 0,0 UV-I 0 W/m 3,7 C 5,9 C 9,7 km/h (2 Bft) 98,11 %
10.11.2017 04:52 5,9 C 7,8 C 86 % 1021,6 hPa 0,0 l/m 4,8 km/h (1 Bft) S-SW 196 0 min 0,000 mm 0,0 UV-I 0 W/m 3,7 C 5,9 C 6,4 km/h (2 Bft) 97,44 %
10.11.2017 04:54 5,9 C 7,8 C 87 % 1021,6 hPa 0,0 l/m 4,1 km/h (1 Bft) S-SW 194 0 min 0,000 mm 0,0 UV-I 0 W/m 3,9 C 5,9 C 6,4 km/h (2 Bft) 97,87 %
10.11.2017 04:56 5,9 C 7,8 C 87 % 1021,6 hPa 0,0 l/m 5,0 km/h (1 Bft) SW 217 0 min 0,000 mm 0,0 UV-I 0 W/m 3,9 C 5,9 C 8,0 km/h (2 Bft) 95,74 %
10.11.2017 04:58 5,9 C 7,8 C 87 % 1021,6 hPa 0,0 l/m 4,9 km/h (1 Bft) SW 220 0 min 0,000 mm 0,0 UV-I 0 W/m 3,9 C 5,9 C 8,0 km/h (2 Bft) 97,87 %
10.11.2017 05:00 5,9 C 7,8 C 86 % 1021,6 hPa 0,0 l/m 4,2 km/h (1 Bft) SW 222 0 min 0,000 mm 0,0 UV-I 0 W/m 3,7 C 5,9 C 6,4 km/h (2 Bft) 97,87 %
10.11.2017 05:02 5,9 C 7,8 C 86 % 1021,6 hPa 0,0 l/m 3,0 km/h (1 Bft) SW 222 0 min 0,000 mm 0,0 UV-I 0 W/m 3,7 C 5,9 C 4,8 km/h (1 Bft) 98,00 %
10.11.2017 05:04 5,9 C 7,8 C 86 % 1021,7 hPa 0,0 l/m 4,1 km/h (1 Bft) SW 222 0 min 0,000 mm 0,0 UV-I 0 W/m 3,7 C 5,9 C 6,4 km/h (2 Bft) 96,00 %
10.11.2017 05:06 5,9 C 7,8 C 87 % 1021,6 hPa 0,0 l/m 2,9 km/h (1 Bft) SW 222 0 min 0,000 mm 0,0 UV-I 0 W/m 3,9 C 5,9 C 4,8 km/h (1 Bft) 97,56 %
10.11.2017 05:08 5,9 C 7,8 C 87 % 1021,6 hPa 0,0 l/m 3,1 km/h (1 Bft) SW 222 0 min 0,000 mm 0,0 UV-I 0 W/m 3,9 C 5,9 C 4,8 km/h (1 Bft) 98,00 %
10.11.2017 05:10 5,8 C 7,8 C 87 % 1021,6 hPa 0,0 l/m 3,6 km/h (1 Bft) SW 225 0 min 0,000 mm 0,0 UV-I 0 W/m 3,8 C 5,8 C 6,4 km/h (2 Bft) 97,37 %
10.11.2017 05:12 5,8 C 7,8 C 87 % 1021,6 hPa 0,0 l/m 4,2 km/h (1 Bft) SW 231 0 min 0,000 mm 0,0 UV-I 0 W/m 3,8 C 5,8 C 6,4 km/h (2 Bft) 98,00 %
10.11.2017 05:14 5,8 C 7,8 C 87 % 1021,5 hPa 0,0 l/m 4,0 km/h (1 Bft) SW 234 0 min 0,000 mm 0,0 UV-I 0 W/m 3,8 C 5,8 C 6,4 km/h (2 Bft) 98,11 %
10.11.2017 05:16 5,8 C 7,8 C 87 % 1021,5 hPa 0,0 l/m 4,0 km/h (1 Bft) SW 234 0 min 0,000 mm 0,0 UV-I 0 W/m 3,8 C 5,8 C 4,8 km/h (1 Bft) 97,56 %
10.11.2017 05:18 5,8 C 7,8 C 87 % 1021,6 hPa 0,0 l/m 4,3 km/h (1 Bft) SW 231 0 min 0,000 mm 0,0 UV-I 0 W/m 3,8 C 5,8 C 6,4 km/h (2 Bft) 98,11 %
10.11.2017 05:20 5,8 C 7,8 C 87 % 1021,6 hPa 0,0 l/m 5,6 km/h (1 Bft) SW 225 0 min 0,000 mm 0,0 UV-I 0 W/m 3,8 C 5,8 C 8,0 km/h (2 Bft) 98,00 %
10.11.2017 05:22 5,8 C 7,8 C 87 % 1021,5 hPa 0,0 l/m 5,6 km/h (1 Bft) SW 224 0 min 0,000 mm 0,0 UV-I 0 W/m 3,8 C 5,8 C 9,7 km/h (2 Bft) 100,00 %
10.11.2017 05:24 5,8 C 7,8 C 87 % 1021,5 hPa 0,0 l/m 5,9 km/h (2 Bft) SW 234 0 min 0,000 mm 0,0 UV-I 0 W/m 3,8 C 5,8 C 8,0 km/h (2 Bft) 100,00 %
10.11.2017 05:26 5,8 C 7,8 C 87 % 1021,5 hPa 0,0 l/m 4,5 km/h (1 Bft) SW 232 0 min 0,000 mm 0,0 UV-I 0 W/m 3,8 C 5,8 C 6,4 km/h (2 Bft) 96,23 %
10.11.2017 05:28 5,8 C 7,8 C 87 % 1021,5 hPa 0,0 l/m 5,6 km/h (1 Bft) SW 224 0 min 0,000 mm 0,0 UV-I 0 W/m 3,8 C 5,8 C 6,4 km/h (2 Bft) 100,00 %
10.11.2017 05:30 5,8 C 7,8 C 87 % 1021,4 hPa 0,0 l/m 6,6 km/h (2 Bft) S-SW 207 0 min 0,000 mm 0,0 UV-I 0 W/m 3,8 C 5,7 C 11,3 km/h (2 Bft) 100,00 %
10.11.2017 05:32 5,8 C 7,8 C 86 % 1021,4 hPa 0,0 l/m 5,3 km/h (1 Bft) SW 225 0 min 0,000 mm 0,0 UV-I 0 W/m 3,6 C 5,8 C 8,0 km/h (2 Bft) 100,00 %
10.11.2017 05:34 5,9 C 7,8 C 86 % 1021,4 hPa 0,0 l/m 6,4 km/h (2 Bft) S-SW 196 0 min 0,000 mm 0,0 UV-I 0 W/m 3,7 C 5,9 C 9,7 km/h (2 Bft) 100,00 %
10.11.2017 05:36 5,9 C 7,8 C 86 % 1021,4 hPa 0,0 l/m 7,7 km/h (2 Bft) SW 219 0 min 0,000 mm 0,0 UV-I 0 W/m 3,7 C 4,8 C 11,3 km/h (2 Bft) 97,56 %
10.11.2017 05:38 5,9 C 7,8 C 86 % 1021,3 hPa 0,0 l/m 6,0 km/h (2 Bft) S-SW 204 0 min 0,000 mm 0,0 UV-I 0 W/m 3,7 C 5,9 C 9,7 km/h (2 Bft) 100,00 %
10.11.2017 05:40 5,9 C 7,8 C 86 % 1021,3 hPa 0,0 l/m 6,6 km/h (2 Bft) S-SW 196 0 min 0,000 mm 0,0 UV-I 0 W/m 3,7 C 5,8 C 9,7 km/h (2 Bft) 98,39 %
10.11.2017 05:42 5,9 C 7,8 C 86 % 1021,3 hPa 0,0 l/m 6,5 km/h (2 Bft) S-SW 207 0 min 0,000 mm 0,0 UV-I 0 W/m 3,7 C 5,8 C 9,7 km/h (2 Bft) 94,00 %
10.11.2017 05:44 5,9 C 7,8 C 86 % 1021,2 hPa 0,0 l/m 7,7 km/h (2 Bft) S-SW 208 0 min 0,000 mm 0,0 UV-I 0 W/m 3,7 C 4,8 C 12,9 km/h (3 Bft) 100,00 %
10.11.2017 05:46 5,9 C 7,8 C 86 % 1021,2 hPa 0,0 l/m 7,5 km/h (2 Bft) SW 216 0 min 0,000 mm 0,0 UV-I 0 W/m 3,7 C 5,0 C 9,7 km/h (2 Bft) 100,00 %
10.11.2017 05:48 5,8 C 7,8 C 86 % 1021,2 hPa 0,0 l/m 6,6 km/h (2 Bft) SW 217 0 min 0,000 mm 0,0 UV-I 0 W/m 3,6 C 5,7 C 9,7 km/h (2 Bft) 100,00 %
10.11.2017 05:50 5,8 C 7,8 C 86 % 1021,1 hPa 0,0 l/m 8,1 km/h (2 Bft) S 188 0 min 0,000 mm 0,0 UV-I 0 W/m 3,6 C 4,4 C 11,3 km/h (2 Bft) 100,00 %
10.11.2017 05:52 5,9 C 7,8 C 86 % 1021,1 hPa 0,0 l/m 9,7 km/h (2 Bft) S-SW 198 0 min 0,000 mm 0,0 UV-I 0 W/m 3,7 C 3,3 C 14,5 km/h (3 Bft) 100,00 %
10.11.2017 05:54 5,9 C 7,8 C 86 % 1021,1 hPa 0,0 l/m 8,8 km/h (2 Bft) S 185 0 min 0,000 mm 0,0 UV-I 0 W/m 3,7 C 3,9 C 14,5 km/h (3 Bft) 100,00 %
10.11.2017 05:56 5,9 C 7,8 C 86 % 1021,2 hPa 0,0 l/m 7,4 km/h (2 Bft) S-SW 207 0 min 0,000 mm 0,0 UV-I 0 W/m 3,7 C 5,0 C 11,3 km/h (2 Bft) 100,00 %
10.11.2017 05:58 5,9 C 7,8 C 86 % 1021,2 hPa 0,0 l/m 8,5 km/h (2 Bft) S-SW 200 0 min 0,000 mm 0,0 UV-I 0 W/m 3,7 C 4,2 C 14,5 km/h (3 Bft) 100,00 %
10.11.2017 06:00 5,9 C 7,8 C 86 % 1021,2 hPa 0,0 l/m 8,0 km/h (2 Bft) SW 221 0 min 0,000 mm 0,0 UV-I 0 W/m 3,7 C 4,5 C 12,9 km/h (3 Bft) 100,00 %
10.11.2017 06:02 5,9 C 7,8 C 86 % 1021,2 hPa 0,0 l/m 7,6 km/h (2 Bft) S-SW 196 0 min 0,000 mm 0,0 UV-I 0 W/m 3,7 C 4,9 C 11,3 km/h (2 Bft) 100,00 %
10.11.2017 06:04 5,9 C 7,8 C 86 % 1021,2 hPa 0,0 l/m 10,6 km/h (2 Bft) S-SW 209 0 min 0,000 mm 0,0 UV-I 0 W/m 3,7 C 2,7 C 14,5 km/h (3 Bft) 100,00 %
10.11.2017 06:06 5,9 C 7,8 C 86 % 1021,2 hPa 0,0 l/m 8,3 km/h (2 Bft) S-SW 200 0 min 0,000 mm 0,0 UV-I 0 W/m 3,7 C 4,3 C 12,9 km/h (3 Bft) 100,00 %
10.11.2017 06:08 5,9 C 7,8 C 86 % 1021,2 hPa 0,0 l/m 9,4 km/h (2 Bft) S-SW 207 0 min 0,000 mm 0,0 UV-I 0 W/m 3,7 C 3,5 C 12,9 km/h (3 Bft) 100,00 %
10.11.2017 06:10 5,9 C 7,8 C 86 % 1021,2 hPa 0,0 l/m 7,5 km/h (2 Bft) S-SW 202 0 min 0,000 mm 0,0 UV-I 0 W/m 3,7 C 5,0 C 11,3 km/h (2 Bft) 100,00 %
10.11.2017 06:12 5,9 C 7,8 C 86 % 1021,2 hPa 0,0 l/m 7,2 km/h (2 Bft) SW 235 0 min 0,000 mm 0,0 UV-I 0 W/m 3,7 C 5,2 C 9,7 km/h (2 Bft) 97,87 %
10.11.2017 06:14 5,9 C 7,8 C 86 % 1021,3 hPa 0,0 l/m 7,4 km/h (2 Bft) SW 216 0 min 0,000 mm 0,0 UV-I 0 W/m 3,7 C 5,0 C 11,3 km/h (2 Bft) 100,00 %
10.11.2017 06:16 5,9 C 7,8 C 86 % 1021,3 hPa 0,0 l/m 6,0 km/h (2 Bft) SW 229 0 min 0,000 mm 0,0 UV-I 0 W/m 3,7 C 5,9 C 9,7 km/h (2 Bft) 100,00 %
10.11.2017 06:18 5,9 C 7,8 C 86 % 1021,3 hPa 0,0 l/m 5,7 km/h (1 Bft) SW 232 0 min 0,000 mm 0,0 UV-I 0 W/m 3,7 C 5,9 C 8,0 km/h (2 Bft) 100,00 %
10.11.2017 06:20 5,9 C 7,8 C 86 % 1021,3 hPa 0,0 l/m 7,2 km/h (2 Bft) SW 228 0 min 0,000 mm 0,0 UV-I 0 W/m 3,7 C 5,2 C 9,7 km/h (2 Bft) 100,00 %
10.11.2017 06:22 5,9 C 7,8 C 86 % 1021,3 hPa 0,0 l/m 5,4 km/h (1 Bft) SW 225 0 min 0,000 mm 0,0 UV-I 0 W/m 3,7 C 5,9 C 8,0 km/h (2 Bft) 100,00 %
10.11.2017 06:24 5,9 C 7,8 C 86 % 1021,3 hPa 0,0 l/m 6,7 km/h (2 Bft) S-SW 206 0 min 0,000 mm 0,0 UV-I 0 W/m 3,7 C 5,7 C 9,7 km/h (2 Bft) 97,87 %
10.11.2017 06:26 5,8 C 7,8 C 86 % 1021,3 hPa 0,0 l/m 6,5 km/h (2 Bft) SW 225 0 min 0,000 mm 0,0 UV-I 0 W/m 3,6 C 5,7 C 9,7 km/h (2 Bft) 100,00 %
10.11.2017 06:28 5,8 C 7,8 C 86 % 1021,3 hPa 0,0 l/m 7,7 km/h (2 Bft) SW 225 0 min 0,000 mm 0,0 UV-I 0 W/m 3,6 C 4,7 C 11,3 km/h (2 Bft) 100,00 %
10.11.2017 06:30 5,8 C 7,8 C 86 % 1021,3 hPa 0,0 l/m 8,2 km/h (2 Bft) SW 225 0 min 0,000 mm 0,0 UV-I 0 W/m 3,6 C 4,3 C 12,9 km/h (3 Bft) 100,00 %
10.11.2017 06:32 5,9 C 7,8 C 86 % 1021,3 hPa 0,0 l/m 7,2 km/h (2 Bft) W-SW 243 0 min 0,000 mm 0,0 UV-I 0 W/m 3,7 C 5,2 C 11,3 km/h (2 Bft) 100,00 %
10.11.2017 06:34 5,9 C 7,8 C 86 % 1021,3 hPa 0,0 l/m 7,5 km/h (2 Bft) SW 232 0 min 0,000 mm 0,0 UV-I 0 W/m 3,7 C 5,0 C 11,3 km/h (2 Bft) 100,00 %
10.11.2017 06:36 5,9 C 7,8 C 86 % 1021,3 hPa 0,0 l/m 8,2 km/h (2 Bft) W-SW 252 0 min 0,000 mm 0,0 UV-I 0 W/m 3,7 C 4,4 C 12,9 km/h (3 Bft) 100,00 %
10.11.2017 06:38 5,9 C 7,8 C 85 % 1021,3 hPa 0,0 l/m 10,3 km/h (2 Bft) W-SW 237 0 min 0,000 mm 0,0 UV-I 0 W/m 3,6 C 2,9 C 16,1 km/h (3 Bft) 95,74 %
10.11.2017 06:40 5,9 C 7,8 C 85 % 1021,4 hPa 0,0 l/m 9,3 km/h (2 Bft) SW 227 0 min 0,000 mm 0,0 UV-I 0 W/m 3,6 C 3,6 C 12,9 km/h (3 Bft) 95,83 %
10.11.2017 06:42 5,9 C 7,8 C 85 % 1021,3 hPa 0,0 l/m 8,5 km/h (2 Bft) W-SW 240 0 min 0,000 mm 0,0 UV-I 0 W/m 3,6 C 4,2 C 12,9 km/h (3 Bft) 96,88 %
10.11.2017 06:44 5,9 C 7,8 C 85 % 1021,3 hPa 0,0 l/m 8,2 km/h (2 Bft) SW 230 0 min 0,000 mm 0,0 UV-I 0 W/m 3,6 C 4,4 C 11,3 km/h (2 Bft) 95,45 %
10.11.2017 06:46 5,9 C 7,8 C 85 % 1021,4 hPa 0,0 l/m 11,4 km/h (2 Bft) W-SW 237 0 min 0,000 mm 0,0 UV-I 0 W/m 3,6 C 2,2 C 17,7 km/h (3 Bft) 93,33 %
10.11.2017 06:48 5,9 C 7,8 C 85 % 1021,3 hPa 0,0 l/m 9,2 km/h (2 Bft) SW 227 0 min 0,000 mm 0,0 UV-I 0 W/m 3,6 C 3,6 C 14,5 km/h (3 Bft) 96,15 %
10.11.2017 06:50 5,9 C 7,8 C 85 % 1021,3 hPa 0,0 l/m 9,6 km/h (2 Bft) S-SW 204 0 min 0,000 mm 0,0 UV-I 0 W/m 3,6 C 3,3 C 14,5 km/h (3 Bft) 97,62 %
10.11.2017 06:52 5,9 C 7,8 C 85 % 1021,3 hPa 0,0 l/m 9,8 km/h (2 Bft) SW 225 0 min 0,000 mm 0,0 UV-I 0 W/m 3,6 C 3,2 C 12,9 km/h (3 Bft) 93,62 %
10.11.2017 06:54 5,9 C 7,8 C 85 % 1021,3 hPa 0,0 l/m 12,0 km/h (2 Bft) SW 229 0 min 0,000 mm 0,0 UV-I 0 W/m 3,6 C 1,8 C 17,7 km/h (3 Bft) 97,37 %
10.11.2017 06:56 5,9 C 7,8 C 85 % 1021,4 hPa 0,0 l/m 10,1 km/h (2 Bft) S-SW 202 0 min 0,000 mm 0,0 UV-I 0 W/m 3,6 C 3,0 C 16,1 km/h (3 Bft) 94,92 %
10.11.2017 06:58 5,9 C 7,8 C 85 % 1021,4 hPa 0,0 l/m 10,3 km/h (2 Bft) S-SW 210 0 min 0,000 mm 0,0 UV-I 0 W/m 3,6 C 2,9 C 14,5 km/h (3 Bft) 96,23 %
10.11.2017 07:00 5,9 C 7,8 C 85 % 1021,4 hPa 0,0 l/m 9,1 km/h (2 Bft) SW 232 0 min 0,000 mm 0,0 UV-I 1 W/m 3,6 C 3,7 C 14,5 km/h (3 Bft) 95,12 %
10.11.2017 07:02 5,9 C 7,8 C 85 % 1021,4 hPa 0,0 l/m 9,1 km/h (2 Bft) SW 223 0 min 0,025 mm 0,0 UV-I 5 W/m 3,6 C 3,7 C 14,5 km/h (3 Bft) 94,34 %
10.11.2017 07:04 5,9 C 7,8 C 85 % 1021,4 hPa 0,0 l/m 9,0 km/h (2 Bft) S-SW 204 0 min 0,000 mm 0,0 UV-I 5 W/m 3,6 C 3,8 C 12,9 km/h (3 Bft) 95,12 %
10.11.2017 07:06 5,9 C 7,8 C 84 % 1021,4 hPa 0,0 l/m 9,4 km/h (2 Bft) W-SW 248 0 min 0,000 mm 0,0 UV-I 5 W/m 3,4 C 3,5 C 14,5 km/h (3 Bft) 94,00 %
10.11.2017 07:08 5,9 C 7,8 C 84 % 1021,3 hPa 0,0 l/m 8,3 km/h (2 Bft) W-SW 241 0 min 0,000 mm 0,0 UV-I 5 W/m 3,4 C 4,3 C 12,9 km/h (3 Bft) 97,37 %
10.11.2017 07:10 5,9 C 7,8 C 84 % 1021,4 hPa 0,0 l/m 10,3 km/h (2 Bft) W-SW 245 0 min 0,000 mm 0,0 UV-I 5 W/m 3,4 C 2,9 C 17,7 km/h (3 Bft) 94,34 %
10.11.2017 07:12 5,9 C 7,8 C 84 % 1021,4 hPa 0,0 l/m 9,7 km/h (2 Bft) W-SW 246 0 min 0,000 mm 0,0 UV-I 5 W/m 3,4 C 3,3 C 17,7 km/h (3 Bft) 94,00 %
10.11.2017 07:14 5,9 C 7,8 C 84 % 1021,4 hPa 0,0 l/m 7,7 km/h (2 Bft) W-SW 244 0 min 0,000 mm 0,0 UV-I 6 W/m 3,4 C 4,8 C 16,1 km/h (3 Bft) 92,11 %
10.11.2017 07:16 5,9 C 7,8 C 84 % 1021,3 hPa 0,0 l/m 8,7 km/h (2 Bft) SW 232 0 min 0,000 mm 0,0 UV-I 7 W/m 3,4 C 4,0 C 14,5 km/h (3 Bft) 94,34 %
10.11.2017 07:18 6,0 C 7,8 C 84 % 1021,4 hPa 0,0 l/m 7,8 km/h (2 Bft) W-SW 251 0 min 0,000 mm 0,0 UV-I 7 W/m 3,5 C 4,8 C 11,3 km/h (2 Bft) 97,56 %
10.11.2017 07:20 6,0 C 7,8 C 84 % 1021,4 hPa 0,0 l/m 11,8 km/h (2 Bft) SW 221 0 min 0,000 mm 0,0 UV-I 8 W/m 3,5 C 2,0 C 17,7 km/h (3 Bft) 96,43 %
10.11.2017 07:22 6,0 C 7,8 C 83 % 1021,4 hPa 0,0 l/m 10,2 km/h (2 Bft) SW 228 0 min 0,000 mm 0,0 UV-I 9 W/m 3,3 C 3,0 C 14,5 km/h (3 Bft) 95,45 %
10.11.2017 07:24 6,0 C 7,8 C 84 % 1021,4 hPa 0,0 l/m 10,3 km/h (2 Bft) SW 220 0 min 0,000 mm 0,0 UV-I 9 W/m 3,5 C 3,0 C 14,5 km/h (3 Bft) 93,18 %
10.11.2017 07:26 6,0 C 7,8 C 84 % 1021,4 hPa 0,0 l/m 8,0 km/h (2 Bft) SW 221 0 min 0,000 mm 0,0 UV-I 9 W/m 3,5 C 4,7 C 11,3 km/h (2 Bft) 92,00 %
10.11.2017 07:28 6,0 C 7,8 C 83 % 1021,3 hPa 0,0 l/m 8,1 km/h (2 Bft) S-SW 203 0 min 0,000 mm 0,0 UV-I 11 W/m 3,3 C 4,6 C 12,9 km/h (3 Bft) 96,30 %
10.11.2017 07:30 6,0 C 7,8 C 83 % 1021,3 hPa 0,0 l/m 8,3 km/h (2 Bft) SW 229 0 min 0,000 mm 0,0 UV-I 12 W/m 3,3 C 4,4 C 11,3 km/h (2 Bft) 97,14 %
10.11.2017 07:32 6,0 C 7,8 C 83 % 1021,3 hPa 0,0 l/m 6,7 km/h (2 Bft) S-SW 199 0 min 0,000 mm 0,0 UV-I 13 W/m 3,3 C 5,8 C 9,7 km/h (2 Bft) 95,56 %
10.11.2017 07:34 6,1 C 7,8 C 83 % 1021,2 hPa 0,0 l/m 8,4 km/h (2 Bft) S-SW 202 0 min 0,000 mm 0,0 UV-I 14 W/m 3,4 C 4,4 C 16,1 km/h (3 Bft) 97,73 %
10.11.2017 07:36 6,1 C 7,8 C 83 % 1021,2 hPa 0,0 l/m 8,3 km/h (2 Bft) SW 217 0 min 0,000 mm 0,0 UV-I 14 W/m 3,4 C 4,5 C 12,9 km/h (3 Bft) 95,74 %
10.11.2017 07:38 6,1 C 7,8 C 83 % 1021,2 hPa 0,0 l/m 6,9 km/h (2 Bft) SW 235 0 min 0,000 mm 0,0 UV-I 16 W/m 3,4 C 5,7 C 11,3 km/h (2 Bft) 97,87 %
10.11.2017 07:40 6,1 C 7,8 C 83 % 1021,2 hPa 0,0 l/m 5,3 km/h (1 Bft) S-SW 213 0 min 0,000 mm 0,0 UV-I 18 W/m 3,4 C 6,1 C 8,0 km/h (2 Bft) 96,00 %
10.11.2017 07:42 6,1 C 7,8 C 83 % 1021,3 hPa 0,0 l/m 7,2 km/h (2 Bft) W-SW 254 0 min 0,000 mm 0,0 UV-I 19 W/m 3,4 C 5,4 C 11,3 km/h (2 Bft) 97,37 %
10.11.2017 07:44 6,1 C 7,8 C 83 % 1021,3 hPa 0,0 l/m 5,8 km/h (2 Bft) W 270 0 min 0,000 mm 0,0 UV-I 19 W/m 3,4 C 6,1 C 9,7 km/h (2 Bft) 97,87 %
10.11.2017 07:46 6,1 C 7,8 C 84 % 1021,3 hPa 0,0 l/m 5,6 km/h (1 Bft) W-SW 257 0 min 0,000 mm 0,0 UV-I 19 W/m 3,6 C 6,1 C 8,0 km/h (2 Bft) 98,00 %
10.11.2017 07:48 6,0 C 7,8 C 84 % 1021,3 hPa 0,0 l/m 6,9 km/h (2 Bft) SW 223 0 min 0,000 mm 0,0 UV-I 19 W/m 3,5 C 5,6 C 11,3 km/h (2 Bft) 100,00 %
10.11.2017 07:50 6,0 C 7,8 C 84 % 1021,3 hPa 0,0 l/m 8,6 km/h (2 Bft) SW 235 0 min 0,000 mm 0,0 UV-I 21 W/m 3,5 C 4,2 C 12,9 km/h (3 Bft) 100,00 %
10.11.2017 07:52 6,1 C 7,8 C 83 % 1021,3 hPa 0,0 l/m 5,8 km/h (2 Bft) W-SW 244 0 min 0,000 mm 0,0 UV-I 21 W/m 3,4 C 6,1 C 8,0 km/h (2 Bft) 97,87 %
10.11.2017 07:54 6,1 C 7,8 C 83 % 1021,3 hPa 0,0 l/m 6,5 km/h (2 Bft) SW 230 0 min 0,000 mm 0,0 UV-I 20 W/m 3,4 C 6,0 C 9,7 km/h (2 Bft) 100,00 %
10.11.2017 07:56 6,1 C 7,8 C 84 % 1021,4 hPa 0,0 l/m 7,5 km/h (2 Bft) SW 234 0 min 0,000 mm 0,0 UV-I 19 W/m 3,6 C 5,2 C 12,9 km/h (3 Bft) 100,00 %
10.11.2017 07:58 6,0 C 7,8 C 84 % 1021,4 hPa 0,0 l/m 6,5 km/h (2 Bft) SW 236 0 min 0,000 mm 0,0 UV-I 18 W/m 3,5 C 5,9 C 12,9 km/h (3 Bft) 100,00 %
10.11.2017 08:00 6,0 C 7,8 C 84 % 1021,4 hPa 0,0 l/m 6,9 km/h (2 Bft) SW 224 0 min 0,026 mm 0,0 UV-I 18 W/m 3,5 C 5,6 C 9,7 km/h (2 Bft) 100,00 %
10.11.2017 08:02 5,9 C 7,8 C 84 % 1021,4 hPa 0,0 l/m 7,2 km/h (2 Bft) SW 218 0 min 0,000 mm 0,0 UV-I 19 W/m 3,4 C 5,2 C 11,3 km/h (2 Bft) 94,74 %
10.11.2017 08:04 6,0 C 7,8 C 84 % 1021,5 hPa 0,0 l/m 9,3 km/h (2 Bft) SW 235 0 min 0,000 mm 0,0 UV-I 19 W/m 3,5 C 3,7 C 14,5 km/h (3 Bft) 100,00 %
10.11.2017 08:06 5,9 C 7,8 C 84 % 1021,5 hPa 0,0 l/m 8,6 km/h (2 Bft) W-SW 252 0 min 0,000 mm 0,0 UV-I 20 W/m 3,4 C 4,1 C 12,9 km/h (3 Bft) 97,87 %
10.11.2017 08:08 5,9 C 7,8 C 84 % 1021,5 hPa 0,0 l/m 10,0 km/h (2 Bft) W-SW 242 0 min 0,000 mm 0,0 UV-I 21 W/m 3,4 C 3,1 C 16,1 km/h (3 Bft) 100,00 %
10.11.2017 08:10 6,0 C 7,8 C 84 % 1021,5 hPa 0,0 l/m 7,5 km/h (2 Bft) W-SW 240 0 min 0,000 mm 0,0 UV-I 22 W/m 3,5 C 5,1 C 11,3 km/h (2 Bft) 100,00 %
10.11.2017 08:12 6,0 C 7,8 C 84 % 1021,5 hPa 0,0 l/m 11,1 km/h (2 Bft) SW 229 0 min 0,000 mm 0,0 UV-I 23 W/m 3,5 C 2,5 C 16,1 km/h (3 Bft) 100,00 %
10.11.2017 08:14 6,0 C 7,8 C 84 % 1021,5 hPa 0,0 l/m 8,8 km/h (2 Bft) W-SW 242 0 min 0,000 mm 0,0 UV-I 23 W/m 3,5 C 4,0 C 12,9 km/h (3 Bft) 100,00 %
10.11.2017 08:16 6,0 C 7,8 C 84 % 1021,6 hPa 0,0 l/m 7,1 km/h (2 Bft) W-SW 238 0 min 0,000 mm 0,0 UV-I 23 W/m 3,5 C 5,4 C 12,9 km/h (3 Bft) 100,00 %
10.11.2017 08:18 6,0 C 7,8 C 84 % 1021,6 hPa 0,0 l/m 9,0 km/h (2 Bft) W-SW 240 0 min 0,000 mm 0,0 UV-I 23 W/m 3,5 C 3,9 C 16,1 km/h (3 Bft) 100,00 %
10.11.2017 08:20 6,0 C 7,8 C 84 % 1021,6 hPa 0,0 l/m 8,8 km/h (2 Bft) W-SW 247 0 min 0,000 mm 0,0 UV-I 23 W/m 3,5 C 4,0 C 14,5 km/h (3 Bft) 100,00 %
10.11.2017 08:22 6,1 C 7,8 C 84 % 1021,6 hPa 0,0 l/m 8,0 km/h (2 Bft) S-SW 211 0 min 0,000 mm 0,0 UV-I 23 W/m 3,6 C 4,8 C 12,9 km/h (3 Bft) 100,00 %
10.11.2017 08:24 6,0 C 7,8 C 84 % 1021,6 hPa 0,0 l/m 8,6 km/h (2 Bft) SW 223 0 min 0,000 mm 0,0 UV-I 23 W/m 3,5 C 4,2 C 14,5 km/h (3 Bft) 98,11 %
10.11.2017 08:26 6,1 C 7,8 C 84 % 1021,7 hPa 0,0 l/m 8,7 km/h (2 Bft) S-SW 209 0 min 0,000 mm 0,0 UV-I 25 W/m 3,6 C 4,2 C 12,9 km/h (3 Bft) 100,00 %
10.11.2017 08:28 6,1 C 7,8 C 84 % 1021,7 hPa 0,0 l/m 11,0 km/h (2 Bft) SW 231 0 min 0,000 mm 0,0 UV-I 24 W/m 3,6 C 2,6 C 17,7 km/h (3 Bft) 100,00 %
10.11.2017 08:30 6,1 C 7,8 C 84 % 1021,7 hPa 0,0 l/m 11,4 km/h (2 Bft) S-SW 212 0 min 0,000 mm 0,0 UV-I 24 W/m 3,6 C 2,4 C 19,3 km/h (3 Bft) 100,00 %
10.11.2017 08:32 6,1 C 7,8 C 84 % 1021,7 hPa 0,0 l/m 8,4 km/h (2 Bft) SW 228 0 min 0,000 mm 0,0 UV-I 25 W/m 3,6 C 4,4 C 14,5 km/h (3 Bft) 100,00 %
10.11.2017 08:34 6,1 C 7,8 C 84 % 1021,6 hPa 0,0 l/m 10,1 km/h (2 Bft) W-SW 237 0 min 0,000 mm 0,0 UV-I 26 W/m 3,6 C 3,2 C 17,7 km/h (3 Bft) 100,00 %
10.11.2017 08:36 6,1 C 7,8 C 84 % 1021,6 hPa 0,0 l/m 11,4 km/h (2 Bft) SW 229 0 min 0,000 mm 0,0 UV-I 26 W/m 3,6 C 2,4 C 19,3 km/h (3 Bft) 100,00 %
10.11.2017 08:38 6,1 C 7,8 C 84 % 1021,6 hPa 0,0 l/m 8,8 km/h (2 Bft) SW 230 0 min 0,000 mm 0,0 UV-I 26 W/m 3,6 C 4,1 C 16,1 km/h (3 Bft) 100,00 %
10.11.2017 08:40 6,1 C 7,8 C 84 % 1021,6 hPa 0,0 l/m 12,0 km/h (2 Bft) SW 223 0 min 0,000 mm 0,0 UV-I 26 W/m 3,6 C 2,0 C 16,1 km/h (3 Bft) 100,00 %
10.11.2017 08:42 6,1 C 7,8 C 84 % 1021,6 hPa 0,0 l/m 11,2 km/h (2 Bft) W-SW 238 0 min 0,000 mm 0,0 UV-I 28 W/m 3,6 C 2,5 C 17,7 km/h (3 Bft) 100,00 %
10.11.2017 08:44 6,0 C 7,8 C 84 % 1021,6 hPa 0,0 l/m 11,2 km/h (2 Bft) SW 233 0 min 0,000 mm 0,0 UV-I 30 W/m 3,5 C 2,4 C 19,3 km/h (3 Bft) 97,78 %
10.11.2017 08:46 6,0 C 7,8 C 84 % 1021,7 hPa 0,0 l/m 10,6 km/h (2 Bft) W-SW 239 0 min 0,000 mm 0,0 UV-I 30 W/m 3,5 C 2,8 C 19,3 km/h (3 Bft) 100,00 %
10.11.2017 08:48 6,1 C 7,8 C 84 % 1021,7 hPa 0,0 l/m 8,8 km/h (2 Bft) W-SW 238 0 min 0,000 mm 0,0 UV-I 30 W/m 3,6 C 4,1 C 14,5 km/h (3 Bft) 100,00 %
10.11.2017 08:50 6,1 C 7,8 C 84 % 1021,7 hPa 0,0 l/m 11,2 km/h (2 Bft) W-SW 240 0 min 0,000 mm 0,0 UV-I 32 W/m 3,6 C 2,5 C 16,1 km/h (3 Bft) 100,00 %
10.11.2017 08:52 6,0 C 7,8 C 84 % 1021,7 hPa 0,0 l/m 12,9 km/h (3 Bft) W-SW 240 0 min 0,000 mm 0,0 UV-I 32 W/m 3,5 C 1,4 C 17,7 km/h (3 Bft) 100,00 %
10.11.2017 08:54 6,1 C 7,8 C 84 % 1021,6 hPa 0,0 l/m 7,8 km/h (2 Bft) S-SW 195 0 min 0,000 mm 0,0 UV-I 32 W/m 3,6 C 4,9 C 9,7 km/h (2 Bft) 100,00 %
10.11.2017 08:56 6,1 C 7,8 C 84 % 1021,6 hPa 0,0 l/m 9,0 km/h (2 Bft) S-SW 209 0 min 0,000 mm 0,0 UV-I 34 W/m 3,6 C 4,0 C 14,5 km/h (3 Bft) 97,37 %
10.11.2017 08:58 6,1 C 7,8 C 84 % 1021,6 hPa 0,0 l/m 8,6 km/h (2 Bft) W-SW 237 0 min 0,000 mm 0,0 UV-I 35 W/m 3,6 C 4,3 C 12,9 km/h (3 Bft) 96,43 %
10.11.2017 09:00 6,1 C 7,8 C 84 % 1021,6 hPa 0,0 l/m 9,1 km/h (2 Bft) S-SW 203 0 min 0,025 mm 0,0 UV-I 33 W/m 3,6 C 3,9 C 14,5 km/h (3 Bft) 97,73 %
10.11.2017 09:02 6,1 C 7,8 C 84 % 1021,6 hPa 0,0 l/m 8,7 km/h (2 Bft) SW 226 0 min 0,000 mm 0,0 UV-I 33 W/m 3,6 C 4,2 C 12,9 km/h (3 Bft) 96,00 %
10.11.2017 09:04 6,1 C 7,8 C 84 % 1021,7 hPa 0,0 l/m 10,9 km/h (2 Bft) S-SW 196 0 min 0,000 mm 0,0 UV-I 36 W/m 3,6 C 2,7 C 14,5 km/h (3 Bft) 95,45 %
10.11.2017 09:06 6,2 C 7,8 C 83 % 1021,6 hPa 0,0 l/m 10,8 km/h (2 Bft) SW 224 0 min 0,000 mm 0,0 UV-I 39 W/m 3,5 C 2,9 C 16,1 km/h (3 Bft) 93,18 %
10.11.2017 09:08 6,2 C 7,8 C 83 % 1021,6 hPa 0,0 l/m 11,6 km/h (2 Bft) S-SW 204 0 min 0,000 mm 0,0 UV-I 40 W/m 3,5 C 2,4 C 17,7 km/h (3 Bft) 96,23 %
10.11.2017 09:10 6,2 C 7,8 C 83 % 1021,6 hPa 0,0 l/m 11,2 km/h (2 Bft) S-SW 205 0 min 0,000 mm 0,0 UV-I 40 W/m 3,5 C 2,6 C 16,1 km/h (3 Bft) 95,45 %
10.11.2017 09:12 6,2 C 7,8 C 82 % 1021,7 hPa 0,0 l/m 11,2 km/h (2 Bft) SW 225 0 min 0,000 mm 0,0 UV-I 42 W/m 3,4 C 2,6 C 16,1 km/h (3 Bft) 97,73 %
10.11.2017 09:14 6,3 C 7,8 C 82 % 1021,7 hPa 0,0 l/m 10,5 km/h (2 Bft) W 273 0 min 0,000 mm 0,0 UV-I 42 W/m 3,5 C 3,2 C 16,1 km/h (3 Bft) 97,87 %
10.11.2017 09:16 6,3 C 7,8 C 82 % 1021,7 hPa 0,0 l/m 10,2 km/h (2 Bft) S-SW 209 0 min 0,000 mm 0,0 UV-I 42 W/m 3,5 C 3,4 C 22,5 km/h (4 Bft) 98,11 %
10.11.2017 09:18 6,3 C 7,8 C 82 % 1021,6 hPa 0,0 l/m 10,3 km/h (2 Bft) SW 218 0 min 0,000 mm 0,0 UV-I 43 W/m 3,5 C 3,3 C 16,1 km/h (3 Bft) 97,73 %
10.11.2017 09:20 6,3 C 7,8 C 82 % 1021,6 hPa 0,0 l/m 8,8 km/h (2 Bft) S-SW 193 0 min 0,000 mm 0,0 UV-I 47 W/m 3,5 C 4,4 C 12,9 km/h (3 Bft) 96,00 %
10.11.2017 09:22 6,3 C 7,8 C 81 % 1021,6 hPa 0,0 l/m 10,7 km/h (2 Bft) W-SW 247 0 min 0,000 mm 0,0 UV-I 47 W/m 3,3 C 3,0 C 16,1 km/h (3 Bft) 95,74 %
10.11.2017 09:24 6,3 C 7,8 C 81 % 1021,6 hPa 0,0 l/m 12,5 km/h (3 Bft) W-SW 241 0 min 0,000 mm 0,0 UV-I 46 W/m 3,3 C 2,0 C 20,9 km/h (4 Bft) 97,22 %
10.11.2017 09:26 6,4 C 7,8 C 81 % 1021,6 hPa 0,0 l/m 12,1 km/h (2 Bft) SW 233 0 min 0,000 mm 0,0 UV-I 44 W/m 3,4 C 2,3 C 19,3 km/h (3 Bft) 96,00 %
10.11.2017 09:28 6,4 C 7,8 C 81 % 1021,6 hPa 0,0 l/m 9,8 km/h (2 Bft) W-SW 252 0 min 0,000 mm 0,0 UV-I 44 W/m 3,4 C 3,8 C 17,7 km/h (3 Bft) 96,15 %
10.11.2017 09:30 6,4 C 7,8 C 81 % 1021,5 hPa 0,0 l/m 13,6 km/h (3 Bft) S-SW 202 0 min 0,000 mm 0,0 UV-I 45 W/m 3,4 C 1,5 C 17,7 km/h (3 Bft) 100,00 %
10.11.2017 09:32 6,4 C 7,8 C 81 % 1021,4 hPa 0,0 l/m 11,3 km/h (2 Bft) S-SW 201 0 min 0,000 mm 0,0 UV-I 49 W/m 3,4 C 2,8 C 17,7 km/h (3 Bft) 100,00 %
10.11.2017 09:34 6,4 C 7,8 C 81 % 1021,3 hPa 0,0 l/m 12,5 km/h (3 Bft) S 187 0 min 0,000 mm 0,0 UV-I 53 W/m 3,4 C 2,1 C 19,3 km/h (3 Bft) 100,00 %
10.11.2017 09:36 6,5 C 7,8 C 80 % 1021,3 hPa 0,0 l/m 14,2 km/h (3 Bft) S-SW 205 0 min 0,000 mm 0,0 UV-I 59 W/m 3,3 C 1,3 C 20,9 km/h (4 Bft) 97,56 %
10.11.2017 09:38 6,5 C 7,8 C 80 % 1021,2 hPa 0,0 l/m 11,2 km/h (2 Bft) S-SW 208 0 min 0,000 mm 0,0 UV-I 64 W/m 3,3 C 3,0 C 16,1 km/h (3 Bft) 96,00 %
10.11.2017 09:40 6,6 C 7,8 C 80 % 1021,3 hPa 0,0 l/m 10,8 km/h (2 Bft) S-SW 200 0 min 0,000 mm 0,0 UV-I 68 W/m 3,4 C 3,3 C 14,5 km/h (3 Bft) 100,00 %
10.11.2017 09:42 6,6 C 7,8 C 80 % 1021,4 hPa 0,0 l/m 14,1 km/h (3 Bft) S-SW 204 0 min 0,000 mm 0,0 UV-I 67 W/m 3,4 C 1,5 C 20,9 km/h (4 Bft) 100,00 %
10.11.2017 09:44 6,6 C 7,8 C 80 % 1021,4 hPa 0,0 l/m 11,3 km/h (2 Bft) SW 219 0 min 0,000 mm 0,0 UV-I 61 W/m 3,4 C 3,0 C 17,7 km/h (3 Bft) 100,00 %
10.11.2017 09:46 6,6 C 7,8 C 80 % 1021,5 hPa 0,0 l/m 14,2 km/h (3 Bft) SW 235 0 min 0,000 mm 0,0 UV-I 58 W/m 3,4 C 1,4 C 19,3 km/h (3 Bft) 97,87 %
10.11.2017 09:48 6,7 C 7,8 C 80 % 1021,5 hPa 0,0 l/m 12,6 km/h (3 Bft) W-SW 237 0 min 0,000 mm 0,0 UV-I 61 W/m 3,5 C 2,4 C 19,3 km/h (3 Bft) 97,87 %
10.11.2017 09:50 6,7 C 7,8 C 80 % 1021,4 hPa 0,0 l/m 8,9 km/h (2 Bft) SW 231 0 min 0,000 mm 0,0 UV-I 65 W/m 3,5 C 4,7 C 12,9 km/h (3 Bft) 100,00 %
10.11.2017 09:52 6,7 C 7,8 C 80 % 1021,4 hPa 0,0 l/m 11,3 km/h (2 Bft) S-SW 200 0 min 0,000 mm 0,0 UV-I 71 W/m 3,5 C 3,1 C 17,7 km/h (3 Bft) 100,00 %
10.11.2017 09:54 6,7 C 7,8 C 80 % 1021,2 hPa 0,0 l/m 13,8 km/h (3 Bft) SW 223 0 min 0,000 mm 0,0 UV-I 81 W/m 3,5 C 1,7 C 17,7 km/h (3 Bft) 100,00 %
10.11.2017 09:56 6,7 C 7,8 C 80 % 1021,2 hPa 0,0 l/m 13,5 km/h (3 Bft) SW 232 0 min 0,000 mm 0,0 UV-I 87 W/m 3,5 C 1,9 C 20,9 km/h (4 Bft) 100,00 %
10.11.2017 09:58 6,8 C 7,8 C 79 % 1021,1 hPa 0,0 l/m 14,3 km/h (3 Bft) W-SW 254 0 min 0,000 mm 0,0 UV-I 96 W/m 3,4 C 1,6 C 22,5 km/h (4 Bft) 98,31 %
10.11.2017 10:00 6,8 C 7,8 C 80 % 1021,0 hPa 0,0 l/m 12,9 km/h (3 Bft) S 178 0 min 0,051 mm 0,0 UV-I 101 W/m 3,6 C 2,3 C 22,5 km/h (4 Bft) 100,00 %
10.11.2017 10:02 6,8 C 7,8 C 79 % 1021,1 hPa 0,0 l/m 13,5 km/h (3 Bft) SW 214 0 min 0,000 mm 0,0 UV-I 102 W/m 3,4 C 2,0 C 20,9 km/h (4 Bft) 100,00 %
10.11.2017 10:04 6,9 C 7,8 C 79 % 1021,0 hPa 0,0 l/m 12,6 km/h (3 Bft) SW 226 0 min 0,000 mm 0,0 UV-I 101 W/m 3,5 C 2,6 C 19,3 km/h (3 Bft) 100,00 %
10.11.2017 10:06 6,9 C 7,8 C 79 % 1021,2 hPa 0,0 l/m 14,4 km/h (3 Bft) S-SW 210 0 min 0,000 mm 0,0 UV-I 94 W/m 3,5 C 1,7 C 22,5 km/h (4 Bft) 97,73 %
10.11.2017 10:08 6,9 C 7,8 C 79 % 1021,2 hPa 0,0 l/m 12,2 km/h (2 Bft) W-SW 254 0 min 0,000 mm 0,0 UV-I 88 W/m 3,5 C 2,8 C 17,7 km/h (3 Bft) 100,00 %
10.11.2017 10:10 6,9 C 7,8 C 79 % 1021,4 hPa 0,0 l/m 12,7 km/h (3 Bft) S-SW 201 0 min 0,000 mm 0,0 UV-I 89 W/m 3,5 C 2,6 C 22,5 km/h (4 Bft) 98,11 %
10.11.2017 10:12 6,9 C 7,8 C 80 % 1021,2 hPa 0,0 l/m 12,3 km/h (3 Bft) SW 235 0 min 0,000 mm 0,0 UV-I 79 W/m 3,7 C 2,8 C 17,7 km/h (3 Bft) 97,87 %
10.11.2017 10:14 6,9 C 7,8 C 80 % 1021,2 hPa 0,0 l/m 11,6 km/h (2 Bft) SW 221 0 min 0,000 mm 0,0 UV-I 88 W/m 3,7 C 3,2 C 14,5 km/h (3 Bft) 100,00 %
10.11.2017 10:16 7,0 C 7,8 C 79 % 1021,1 hPa 0,0 l/m 13,0 km/h (3 Bft) SW 215 0 min 0,000 mm 0,0 UV-I 104 W/m 3,6 C 2,5 C 19,3 km/h (3 Bft) 100,00 %
10.11.2017 10:18 7,0 C 7,8 C 79 % 1021,2 hPa 0,0 l/m 12,3 km/h (3 Bft) S-SW 204 0 min 0,000 mm 0,0 UV-I 107 W/m 3,6 C 2,9 C 20,9 km/h (4 Bft) 100,00 %
10.11.2017 10:20 7,0 C 7,8 C 79 % 1021,1 hPa 0,0 l/m 11,4 km/h (2 Bft) S-SW 196 0 min 0,000 mm 0,0 UV-I 109 W/m 3,6 C 3,4 C 16,1 km/h (3 Bft) 100,00 %
10.11.2017 10:22 7,1 C 7,8 C 79 % 1021,2 hPa 0,0 l/m 13,8 km/h (3 Bft) W-SW 247 0 min 0,000 mm 0,0 UV-I 110 W/m 3,7 C 2,2 C 20,9 km/h (4 Bft) 100,00 %
10.11.2017 10:24 7,1 C 7,8 C 79 % 1021,1 hPa 0,0 l/m 11,5 km/h (2 Bft) SW 218 0 min 0,000 mm 0,0 UV-I 102 W/m 3,7 C 3,5 C 16,1 km/h (3 Bft) 100,00 %
10.11.2017 10:26 7,1 C 7,8 C 78 % 1021,2 hPa 0,0 l/m 12,2 km/h (2 Bft) SW 219 0 min 0,000 mm 0,0 UV-I 98 W/m 3,5 C 3,1 C 17,7 km/h (3 Bft) 100,00 %
10.11.2017 10:28 7,2 C 7,8 C 79 % 1021,1 hPa 0,0 l/m 13,3 km/h (3 Bft) SW 219 0 min 0,000 mm 0,0 UV-I 94 W/m 3,8 C 2,6 C 19,3 km/h (3 Bft) 100,00 %
10.11.2017 10:30 7,2 C 7,8 C 78 % 1021,1 hPa 0,0 l/m 10,7 km/h (2 Bft) SW 226 0 min 0,000 mm 0,0 UV-I 86 W/m 3,6 C 4,1 C 17,7 km/h (3 Bft) 100,00 %
10.11.2017 10:32 7,2 C 7,8 C 78 % 1021,2 hPa 0,0 l/m 14,1 km/h (3 Bft) S-SW 201 0 min 0,000 mm 0,0 UV-I 86 W/m 3,6 C 2,2 C 19,3 km/h (3 Bft) 97,56 %
10.11.2017 10:34 7,2 C 7,8 C 78 % 1021,0 hPa 0,0 l/m 14,2 km/h (3 Bft) SW 218 0 min 0,000 mm 0,0 UV-I 90 W/m 3,6 C 2,1 C 20,9 km/h (4 Bft) 100,00 %
10.11.2017 10:36 7,2 C 7,8 C 77 % 1021,0 hPa 0,0 l/m 14,4 km/h (3 Bft) S-SW 192 0 min 0,000 mm 0,0 UV-I 97 W/m 3,4 C 2,0 C 22,5 km/h (4 Bft) 100,00 %
10.11.2017 10:38 7,2 C 7,8 C 77 % 1020,9 hPa 0,0 l/m 13,8 km/h (3 Bft) S-SW 207 0 min 0,000 mm 0,0 UV-I 102 W/m 3,4 C 2,3 C 20,9 km/h (4 Bft) 97,37 %
10.11.2017 10:40 7,3 C 7,8 C 77 % 1020,9 hPa 0,0 l/m 13,0 km/h (3 Bft) SW 217 0 min 0,000 mm 0,0 UV-I 104 W/m 3,5 C 2,9 C 19,3 km/h (3 Bft) 100,00 %
10.11.2017 10:42 7,3 C 7,8 C 77 % 1020,9 hPa 0,0 l/m 13,1 km/h (3 Bft) SW 233 0 min 0,000 mm 0,0 UV-I 106 W/m 3,5 C 2,8 C 19,3 km/h (3 Bft) 95,12 %
10.11.2017 10:44 7,3 C 7,8 C 77 % 1020,9 hPa 0,0 l/m 13,6 km/h (3 Bft) SW 225 0 min 0,000 mm 0,0 UV-I 111 W/m 3,5 C 2,5 C 22,5 km/h (4 Bft) 98,21 %
10.11.2017 10:46 7,3 C 7,8 C 76 % 1020,9 hPa 0,0 l/m 13,0 km/h (3 Bft) S-SW 211 0 min 0,000 mm 0,0 UV-I 114 W/m 3,4 C 2,9 C 20,9 km/h (4 Bft) 95,74 %
10.11.2017 10:48 7,3 C 7,8 C 77 % 1020,8 hPa 0,0 l/m 12,6 km/h (3 Bft) W-SW 246 0 min 0,000 mm 0,0 UV-I 126 W/m 3,5 C 3,1 C 20,9 km/h (4 Bft) 97,62 %
10.11.2017 10:50 7,4 C 7,8 C 76 % 1020,8 hPa 0,0 l/m 11,2 km/h (2 Bft) SW 219 0 min 0,000 mm 0,0 UV-I 124 W/m 3,5 C 4,0 C 17,7 km/h (3 Bft) 98,00 %
10.11.2017 10:52 7,4 C 7,8 C 76 % 1020,7 hPa 0,0 l/m 14,5 km/h (3 Bft) S-SW 208 0 min 0,000 mm 0,0 UV-I 116 W/m 3,5 C 2,2 C 24,1 km/h (4 Bft) 97,56 %
10.11.2017 10:54 7,4 C 7,8 C 76 % 1020,6 hPa 0,0 l/m 14,9 km/h (3 Bft) SW 227 0 min 0,000 mm 0,0 UV-I 114 W/m 3,5 C 2,0 C 25,7 km/h (4 Bft) 95,12 %
10.11.2017 10:56 7,4 C 7,8 C 75 % 1020,5 hPa 0,0 l/m 17,1 km/h (3 Bft) W-SW 240 0 min 0,000 mm 0,0 UV-I 114 W/m 3,3 C 1,1 C 29,0 km/h (5 Bft) 94,34 %
10.11.2017 10:58 7,5 C 7,8 C 75 % 1020,4 hPa 0,0 l/m 14,0 km/h (3 Bft) SW 225 0 min 0,000 mm 0,0 UV-I 118 W/m 3,4 C 2,6 C 20,9 km/h (4 Bft) 95,12 %
10.11.2017 11:00 7,5 C 7,8 C 75 % 1020,5 hPa 0,0 l/m 22,5 km/h (4 Bft) S-SW 213 0 min 0,076 mm 0,0 UV-I 116 W/m 3,4 C -0,8 C 30,6 km/h (5 Bft) 92,86 %
10.11.2017 11:02 7,5 C 7,8 C 74 % 1020,5 hPa 0,0 l/m 17,8 km/h (3 Bft) S-SW 212 0 min 0,000 mm 0,0 UV-I 110 W/m 3,2 C 0,9 C 25,7 km/h (4 Bft) 96,00 %
10.11.2017 11:04 7,5 C 7,8 C 74 % 1020,5 hPa 0,0 l/m 14,2 km/h (3 Bft) SW 219 0 min 0,000 mm 0,0 UV-I 108 W/m 3,2 C 2,5 C 22,5 km/h (4 Bft) 94,29 %
10.11.2017 11:06 7,5 C 7,8 C 74 % 1020,4 hPa 0,0 l/m 18,7 km/h (3 Bft) SW 215 0 min 0,000 mm 0,0 UV-I 111 W/m 3,2 C 0,5 C 29,0 km/h (5 Bft) 94,92 %
10.11.2017 11:08 7,5 C 7,8 C 74 % 1020,4 hPa 0,0 l/m 18,4 km/h (3 Bft) W-SW 248 0 min 0,000 mm 0,0 UV-I 107 W/m 3,2 C 0,7 C 30,6 km/h (5 Bft) 92,68 %
10.11.2017 11:10 7,5 C 7,8 C 74 % 1020,4 hPa 0,0 l/m 15,0 km/h (3 Bft) S 180 0 min 0,000 mm 0,0 UV-I 101 W/m 3,2 C 2,1 C 22,5 km/h (4 Bft) 92,45 %
10.11.2017 11:12 7,5 C 7,8 C 74 % 1020,3 hPa 0,0 l/m 16,3 km/h (3 Bft) SW 231 0 min 0,000 mm 0,0 UV-I 103 W/m 3,2 C 1,5 C 24,1 km/h (4 Bft) 95,45 %
10.11.2017 11:14 7,6 C 7,8 C 73 % 1020,3 hPa 0,0 l/m 14,4 km/h (3 Bft) SW 225 0 min 0,000 mm 0,0 UV-I 102 W/m 3,1 C 2,5 C 22,5 km/h (4 Bft) 95,74 %
10.11.2017 11:16 7,6 C 7,8 C 73 % 1020,3 hPa 0,0 l/m 16,3 km/h (3 Bft) W-SW 243 0 min 0,000 mm 0,0 UV-I 104 W/m 3,1 C 1,6 C 22,5 km/h (4 Bft) 95,12 %
10.11.2017 11:18 7,6 C 7,8 C 73 % 1020,3 hPa 0,0 l/m 15,8 km/h (3 Bft) SW 230 0 min 0,000 mm 0,0 UV-I 108 W/m 3,1 C 1,9 C 24,1 km/h (4 Bft) 94,00 %
10.11.2017 11:20 7,6 C 7,8 C 73 % 1020,3 hPa 0,0 l/m 16,9 km/h (3 Bft) SW 217 0 min 0,000 mm 0,0 UV-I 112 W/m 3,1 C 1,4 C 24,1 km/h (4 Bft) 95,56 %
10.11.2017 11:22 7,6 C 7,8 C 73 % 1020,2 hPa 0,0 l/m 13,4 km/h (3 Bft) S 186 0 min 0,000 mm 0,0 UV-I 111 W/m 3,1 C 3,0 C 22,5 km/h (4 Bft) 95,24 %
10.11.2017 11:24 7,6 C 7,8 C 73 % 1020,1 hPa 0,0 l/m 13,7 km/h (3 Bft) W 263 0 min 0,000 mm 0,0 UV-I 106 W/m 3,1 C 2,9 C 20,9 km/h (4 Bft) 91,07 %
10.11.2017 11:26 7,6 C 7,8 C 72 % 1020,1 hPa 0,0 l/m 17,7 km/h (3 Bft) SW 217 0 min 0,000 mm 0,0 UV-I 106 W/m 2,9 C 1,1 C 35,4 km/h (5 Bft) 95,12 %
10.11.2017 11:28 7,6 C 7,8 C 72 % 1020,1 hPa 0,0 l/m 15,6 km/h (3 Bft) SW 217 0 min 0,000 mm 0,0 UV-I 105 W/m 2,9 C 2,0 C 27,4 km/h (4 Bft) 91,49 %
10.11.2017 11:30 7,6 C 7,8 C 73 % 1020,0 hPa 0,0 l/m 13,9 km/h (3 Bft) S-SW 196 0 min 0,000 mm 0,0 UV-I 105 W/m 3,1 C 2,8 C 20,9 km/h (4 Bft) 98,00 %
10.11.2017 11:32 7,5 C 7,8 C 73 % 1020,0 hPa 0,0 l/m 13,1 km/h (3 Bft) SW 231 0 min 0,000 mm 0,0 UV-I 111 W/m 3,0 C 3,0 C 20,9 km/h (4 Bft) 98,00 %
10.11.2017 11:34 7,6 C 7,8 C 72 % 1020,0 hPa 0,0 l/m 14,1 km/h (3 Bft) SW 236 0 min 0,000 mm 0,0 UV-I 114 W/m 2,9 C 2,7 C 20,9 km/h (4 Bft) 96,00 %
10.11.2017 11:36 7,6 C 7,8 C 73 % 1019,9 hPa 0,0 l/m 14,4 km/h (3 Bft) S-SW 206 0 min 0,000 mm 0,0 UV-I 117 W/m 3,1 C 2,5 C 22,5 km/h (4 Bft) 94,74 %
10.11.2017 11:38 7,6 C 7,8 C 72 % 1019,8 hPa 0,0 l/m 17,3 km/h (3 Bft) SW 218 0 min 0,000 mm 0,0 UV-I 118 W/m 2,9 C 1,2 C 22,5 km/h (4 Bft) 98,11 %
10.11.2017 11:40 7,6 C 7,8 C 73 % 1019,9 hPa 0,0 l/m 12,9 km/h (3 Bft) W-SW 250 0 min 0,000 mm 0,0 UV-I 116 W/m 3,1 C 3,3 C 20,9 km/h (4 Bft) 97,37 %
10.11.2017 11:42 7,6 C 7,8 C 72 % 1019,8 hPa 0,0 l/m 12,9 km/h (3 Bft) SW 233 0 min 0,000 mm 0,0 UV-I 121 W/m 2,9 C 3,3 C 24,1 km/h (4 Bft) 97,92 %
10.11.2017 11:44 7,6 C 7,8 C 72 % 1019,7 hPa 0,0 l/m 15,4 km/h (3 Bft) SW 227 0 min 0,000 mm 0,0 UV-I 127 W/m 2,9 C 2,0 C 25,7 km/h (4 Bft) 98,00 %
10.11.2017 11:46 7,6 C 7,8 C 72 % 1019,7 hPa 0,0 l/m 18,7 km/h (3 Bft) SW 236 0 min 0,000 mm 0,0 UV-I 126 W/m 2,9 C 0,7 C 25,7 km/h (4 Bft) 96,00 %
10.11.2017 11:48 7,6 C 7,8 C 71 % 1019,6 hPa 0,0 l/m 15,0 km/h (3 Bft) SW 219 0 min 0,000 mm 0,0 UV-I 125 W/m 2,7 C 2,2 C 24,1 km/h (4 Bft) 97,56 %
10.11.2017 11:50 7,6 C 7,8 C 72 % 1019,6 hPa 0,0 l/m 17,8 km/h (3 Bft) S 169 0 min 0,000 mm 0,0 UV-I 131 W/m 2,9 C 1,0 C 25,7 km/h (4 Bft) 98,00 %
10.11.2017 11:52 7,6 C 7,8 C 72 % 1019,6 hPa 0,0 l/m 15,0 km/h (3 Bft) S-SW 210 0 min 0,000 mm 0,0 UV-I 131 W/m 2,9 C 2,2 C 25,7 km/h (4 Bft) 100,00 %
10.11.2017 11:54 7,7 C 7,8 C 72 % 1019,6 hPa 0,0 l/m 11,8 km/h (2 Bft) SW 223 0 min 0,000 mm 0,0 UV-I 128 W/m 3,0 C 4,0 C 16,1 km/h (3 Bft) 96,88 %
10.11.2017 11:56 7,7 C 7,8 C 72 % 1019,5 hPa 0,0 l/m 12,0 km/h (2 Bft) S 178 0 min 0,000 mm 0,0 UV-I 115 W/m 3,0 C 3,9 C 20,9 km/h (4 Bft) 100,00 %
10.11.2017 11:58 7,7 C 7,8 C 72 % 1019,6 hPa 0,0 l/m 15,7 km/h (3 Bft) W-SW 246 0 min 0,000 mm 0,0 UV-I 103 W/m 3,0 C 2,0 C 30,6 km/h (5 Bft) 100,00 %
10.11.2017 12:00 7,6 C 7,8 C 72 % 1019,4 hPa 0,0 l/m 16,2 km/h (3 Bft) S 189 0 min 0,102 mm 0,0 UV-I 97 W/m 2,9 C 1,7 C 24,1 km/h (4 Bft) 100,00 %
10.11.2017 12:02 7,7 C 7,8 C 71 % 1019,4 hPa 0,0 l/m 14,8 km/h (3 Bft) SW 234 0 min 0,000 mm 0,0 UV-I 96 W/m 2,8 C 2,4 C 20,9 km/h (4 Bft) 100,00 %
10.11.2017 12:04 7,7 C 7,8 C 71 % 1019,4 hPa 0,0 l/m 14,9 km/h (3 Bft) SW 236 0 min 0,000 mm 0,0 UV-I 103 W/m 2,8 C 2,4 C 20,9 km/h (4 Bft) 98,08 %
10.11.2017 12:06 7,7 C 7,8 C 72 % 1019,3 hPa 0,0 l/m 15,3 km/h (3 Bft) S-SW 209 0 min 0,000 mm 0,0 UV-I 114 W/m 3,0 C 2,2 C 22,5 km/h (4 Bft) 100,00 %
10.11.2017 12:08 7,7 C 7,8 C 72 % 1019,3 hPa 0,0 l/m 14,0 km/h (3 Bft) W-SW 254 0 min 0,000 mm 0,0 UV-I 123 W/m 3,0 C 2,8 C 22,5 km/h (4 Bft) 98,11 %
10.11.2017 12:10 7,7 C 7,8 C 71 % 1019,3 hPa 0,0 l/m 13,5 km/h (3 Bft) S-SW 211 0 min 0,000 mm 0,0 UV-I 119 W/m 2,8 C 3,1 C 20,9 km/h (4 Bft) 100,00 %
10.11.2017 12:12 7,7 C 7,8 C 71 % 1019,2 hPa 0,0 l/m 15,3 km/h (3 Bft) W-SW 248 0 min 0,000 mm 0,0 UV-I 105 W/m 2,8 C 2,2 C 20,9 km/h (4 Bft) 100,00 %
10.11.2017 12:14 7,7 C 7,8 C 71 % 1019,3 hPa 0,0 l/m 12,4 km/h (3 Bft) S 190 0 min 0,000 mm 0,0 UV-I 92 W/m 2,8 C 3,6 C 17,7 km/h (3 Bft) 100,00 %
10.11.2017 12:16 7,7 C 7,8 C 72 % 1019,3 hPa 0,0 l/m 12,6 km/h (3 Bft) SW 234 0 min 0,000 mm 0,0 UV-I 85 W/m 3,0 C 3,5 C 19,3 km/h (3 Bft) 100,00 %
10.11.2017 12:18 7,7 C 7,8 C 71 % 1019,2 hPa 0,0 l/m 17,1 km/h (3 Bft) SW 236 0 min 0,000 mm 0,0 UV-I 83 W/m 2,8 C 1,4 C 25,7 km/h (4 Bft) 100,00 %
10.11.2017 12:20 7,7 C 7,8 C 72 % 1019,2 hPa 0,0 l/m 13,9 km/h (3 Bft) S-SW 210 0 min 0,000 mm 0,0 UV-I 80 W/m 3,0 C 2,9 C 20,9 km/h (4 Bft) 100,00 %
10.11.2017 12:22 7,7 C 7,8 C 71 % 1019,2 hPa 0,0 l/m 14,6 km/h (3 Bft) W-SW 239 0 min 0,000 mm 0,0 UV-I 88 W/m 2,8 C 2,5 C 20,9 km/h (4 Bft) 100,00 %
10.11.2017 12:24 7,7 C 7,8 C 71 % 1019,2 hPa 0,0 l/m 12,3 km/h (3 Bft) S-SW 205 0 min 0,000 mm 0,0 UV-I 93 W/m 2,8 C 3,7 C 22,5 km/h (4 Bft) 100,00 %
10.11.2017 12:26 7,7 C 7,8 C 72 % 1019,1 hPa 0,0 l/m 13,0 km/h (3 Bft) SW 229 0 min 0,000 mm 0,0 UV-I 91 W/m 3,0 C 3,3 C 20,9 km/h (4 Bft) 100,00 %
10.11.2017 12:28 7,7 C 7,8 C 71 % 1019,1 hPa 0,0 l/m 11,0 km/h (2 Bft) W-SW 244 0 min 0,000 mm 0,0 UV-I 87 W/m 2,8 C 4,4 C 20,9 km/h (4 Bft) 100,00 %
10.11.2017 12:30 7,7 C 7,8 C 72 % 1019,1 hPa 0,0 l/m 8,9 km/h (2 Bft) SW 232 0 min 0,000 mm 0,0 UV-I 85 W/m 3,0 C 5,8 C 14,5 km/h (3 Bft) 100,00 %
10.11.2017 12:33 7,7 C 7,8 C 72 % 1019,1 hPa 0,0 l/m 12,9 km/h (3 Bft) SW 229 0 min 0,000 mm 0,0 UV-I 84 W/m 3,0 C 3,4 C 19,3 km/h (3 Bft) 100,00 %
10.11.2017 12:34 7,7 C 7,8 C 72 % 1019,1 hPa 0,0 l/m 12,5 km/h (3 Bft) SW 225 0 min 0,000 mm 0,0 UV-I 75 W/m 3,0 C 3,6 C 17,7 km/h (3 Bft) 100,00 %
10.11.2017 12:36 7,7 C 7,8 C 71 % 1019,1 hPa 0,0 l/m 15,7 km/h (3 Bft) W-SW 244 0 min 0,000 mm 0,0 UV-I 75 W/m 2,8 C 2,0 C 24,1 km/h (4 Bft) 100,00 %
10.11.2017 12:38 7,7 C 7,8 C 71 % 1019,1 hPa 0,0 l/m 12,3 km/h (3 Bft) S-SW 205 0 min 0,000 mm 0,0 UV-I 82 W/m 2,8 C 3,7 C 17,7 km/h (3 Bft) 100,00 %
10.11.2017 12:40 7,7 C 7,8 C 71 % 1019,0 hPa 0,0 l/m 14,2 km/h (3 Bft) S-SW 208 0 min 0,000 mm 0,0 UV-I 84 W/m 2,8 C 2,7 C 20,9 km/h (4 Bft) 97,37 %
10.11.2017 12:42 7,7 C 7,8 C 71 % 1019,0 hPa 0,0 l/m 13,9 km/h (3 Bft) SW 236 0 min 0,000 mm 0,0 UV-I 87 W/m 2,8 C 2,9 C 20,9 km/h (4 Bft) 100,00 %
10.11.2017 12:44 7,7 C 7,8 C 72 % 1019,0 hPa 0,0 l/m 12,4 km/h (3 Bft) W-SW 251 0 min 0,000 mm 0,0 UV-I 91 W/m 3,0 C 3,6 C 17,7 km/h (3 Bft) 100,00 %
10.11.2017 12:46 7,7 C 7,8 C 71 % 1018,9 hPa 0,0 l/m 12,1 km/h (2 Bft) W-SW 244 0 min 0,000 mm 0,0 UV-I 97 W/m 2,8 C 3,8 C 25,7 km/h (4 Bft) 98,00 %
10.11.2017 12:48 7,7 C 7,8 C 72 % 1018,9 hPa 0,0 l/m 14,0 km/h (3 Bft) W-SW 240 0 min 0,000 mm 0,0 UV-I 104 W/m 3,0 C 2,8 C 22,5 km/h (4 Bft) 98,11 %
10.11.2017 12:50 7,7 C 7,8 C 72 % 1018,9 hPa 0,0 l/m 11,9 km/h (2 Bft) W 260 0 min 0,000 mm 0,0 UV-I 111 W/m 3,0 C 3,9 C 19,3 km/h (3 Bft) 100,00 %
10.11.2017 12:52 7,7 C 7,8 C 72 % 1018,9 hPa 0,0 l/m 13,7 km/h (3 Bft) S-SW 194 0 min 0,000 mm 0,0 UV-I 116 W/m 3,0 C 3,0 C 20,9 km/h (4 Bft) 100,00 %
10.11.2017 12:54 7,7 C 7,8 C 71 % 1018,9 hPa 0,0 l/m 14,9 km/h (3 Bft) SW 231 0 min 0,000 mm 0,0 UV-I 116 W/m 2,8 C 2,4 C 27,4 km/h (4 Bft) 97,87 %
10.11.2017 12:56 7,8 C 7,8 C 71 % 1018,7 hPa 0,0 l/m 15,7 km/h (3 Bft) S-SW 206 0 min 0,000 mm 0,0 UV-I 108 W/m 2,9 C 2,2 C 24,1 km/h (4 Bft) 96,00 %
10.11.2017 12:58 7,8 C 7,8 C 71 % 1018,7 hPa 0,0 l/m 16,5 km/h (3 Bft) SW 230 0 min 0,000 mm 0,0 UV-I 102 W/m 2,9 C 1,8 C 30,6 km/h (5 Bft) 92,68 %
10.11.2017 13:00 7,8 C 7,8 C 72 % 1018,7 hPa 0,0 l/m 15,1 km/h (3 Bft) SW 229 0 min 0,000 mm 0,0 UV-I 101 W/m 3,1 C 2,4 C 22,5 km/h (4 Bft) 97,56 %
10.11.2017 13:02 7,8 C 7,8 C 71 % 1018,7 hPa 0,0 l/m 13,7 km/h (3 Bft) SW 232 0 min 0,076 mm 0,0 UV-I 100 W/m 2,9 C 3,1 C 22,5 km/h (4 Bft) 96,00 %
10.11.2017 13:04 7,8 C 7,8 C 71 % 1018,7 hPa 0,0 l/m 12,2 km/h (2 Bft) SW 232 0 min 0,000 mm 0,0 UV-I 98 W/m 2,9 C 3,9 C 25,7 km/h (4 Bft) 97,78 %
10.11.2017 13:06 7,8 C 7,8 C 71 % 1018,7 hPa 0,0 l/m 14,0 km/h (3 Bft) W 266 0 min 0,000 mm 0,0 UV-I 91 W/m 2,9 C 2,9 C 22,5 km/h (4 Bft) 98,21 %
10.11.2017 13:08 7,8 C 7,8 C 72 % 1018,7 hPa 0,0 l/m 11,4 km/h (2 Bft) SW 234 0 min 0,000 mm 0,0 UV-I 79 W/m 3,1 C 4,3 C 14,5 km/h (3 Bft) 97,87 %
10.11.2017 13:10 7,7 C 7,8 C 72 % 1018,7 hPa 0,0 l/m 12,0 km/h (2 Bft) SW 219 0 min 0,000 mm 0,0 UV-I 71 W/m 3,0 C 3,9 C 17,7 km/h (3 Bft) 94,00 %
10.11.2017 13:12 7,7 C 7,8 C 71 % 1018,7 hPa 0,0 l/m 14,1 km/h (3 Bft) W-SW 244 0 min 0,000 mm 0,0 UV-I 68 W/m 2,8 C 2,8 C 20,9 km/h (4 Bft) 100,00 %
10.11.2017 13:14 7,7 C 7,8 C 72 % 1018,5 hPa 0,0 l/m 9,9 km/h (2 Bft) SW 224 0 min 0,000 mm 0,0 UV-I 65 W/m 3,0 C 5,1 C 12,9 km/h (3 Bft) 93,62 %
10.11.2017 13:16 7,7 C 7,8 C 72 % 1018,5 hPa 0,0 l/m 10,4 km/h (2 Bft) S-SW 205 0 min 0,000 mm 0,0 UV-I 68 W/m 3,0 C 4,8 C 17,7 km/h (3 Bft) 98,21 %
10.11.2017 13:18 7,7 C 7,8 C 72 % 1018,5 hPa 0,0 l/m 14,2 km/h (3 Bft) SW 227 0 min 0,000 mm 0,0 UV-I 67 W/m 3,0 C 2,7 C 22,5 km/h (4 Bft) 94,74 %
10.11.2017 13:20 7,7 C 7,8 C 72 % 1018,5 hPa 0,0 l/m 13,1 km/h (3 Bft) S-SW 213 0 min 0,000 mm 0,0 UV-I 68 W/m 3,0 C 3,3 C 20,9 km/h (4 Bft) 98,08 %
10.11.2017 13:22 7,6 C 7,8 C 73 % 1018,4 hPa 0,0 l/m 10,9 km/h (2 Bft) W-SW 250 0 min 0,000 mm 0,0 UV-I 69 W/m 3,1 C 4,4 C 17,7 km/h (3 Bft) 97,44 %
10.11.2017 13:24 7,6 C 7,8 C 72 % 1018,4 hPa 0,0 l/m 16,6 km/h (3 Bft) W-SW 240 0 min 0,000 mm 0,0 UV-I 71 W/m 2,9 C 1,5 C 25,7 km/h (4 Bft) 96,00 %
10.11.2017 13:26 7,6 C 7,8 C 72 % 1018,3 hPa 0,0 l/m 12,3 km/h (3 Bft) SW 223 0 min 0,000 mm 0,0 UV-I 79 W/m 2,9 C 3,6 C 17,7 km/h (3 Bft) 97,87 %
10.11.2017 13:28 7,7 C 7,8 C 72 % 1018,3 hPa 0,0 l/m 10,7 km/h (2 Bft) W-SW 239 0 min 0,000 mm 0,0 UV-I 88 W/m 3,0 C 4,6 C 24,1 km/h (4 Bft) 96,00 %
10.11.2017 13:30 7,7 C 7,8 C 73 % 1018,3 hPa 0,0 l/m 11,4 km/h (2 Bft) W-SW 257 0 min 0,000 mm 0,0 UV-I 96 W/m 3,2 C 4,2 C 17,7 km/h (3 Bft) 97,87 %
10.11.2017 13:32 7,7 C 7,8 C 72 % 1018,2 hPa 0,0 l/m 16,7 km/h (3 Bft) SW 235 0 min 0,000 mm 0,0 UV-I 101 W/m 3,0 C 1,6 C 25,7 km/h (4 Bft) 97,56 %
10.11.2017 13:34 7,7 C 7,8 C 72 % 1018,2 hPa 0,0 l/m 13,4 km/h (3 Bft) SW 236 0 min 0,000 mm 0,0 UV-I 107 W/m 3,0 C 3,1 C 17,7 km/h (3 Bft) 98,31 %
10.11.2017 13:36 7,7 C 7,8 C 72 % 1018,2 hPa 0,0 l/m 16,1 km/h (3 Bft) W-SW 238 0 min 0,000 mm 0,0 UV-I 108 W/m 3,0 C 1,9 C 22,5 km/h (4 Bft) 100,00 %
10.11.2017 13:38 7,7 C 7,8 C 72 % 1018,1 hPa 0,0 l/m 13,7 km/h (3 Bft) W-SW 254 0 min 0,000 mm 0,0 UV-I 100 W/m 3,0 C 3,0 C 19,3 km/h (3 Bft) 100,00 %
10.11.2017 13:40 7,7 C 7,8 C 72 % 1018,1 hPa 0,0 l/m 11,7 km/h (2 Bft) W 270 0 min 0,000 mm 0,0 UV-I 90 W/m 3,0 C 4,0 C 19,3 km/h (3 Bft) 100,00 %
10.11.2017 13:42 7,7 C 7,8 C 72 % 1018,0 hPa 0,0 l/m 14,7 km/h (3 Bft) W-SW 240 0 min 0,000 mm 0,0 UV-I 78 W/m 3,0 C 2,5 C 22,5 km/h (4 Bft) 100,00 %
10.11.2017 13:44 7,7 C 7,8 C 72 % 1018,0 hPa 0,0 l/m 14,0 km/h (3 Bft) W-SW 241 0 min 0,000 mm 0,0 UV-I 65 W/m 3,0 C 2,8 C 20,9 km/h (4 Bft) 100,00 %
10.11.2017 13:46 7,7 C 7,8 C 72 % 1018,0 hPa 0,0 l/m 14,0 km/h (3 Bft) S-SW 212 0 min 0,000 mm 0,0 UV-I 65 W/m 3,0 C 2,8 C 19,3 km/h (3 Bft) 100,00 %
10.11.2017 13:48 7,7 C 7,8 C 72 % 1017,9 hPa 0,0 l/m 12,7 km/h (3 Bft) W-SW 244 0 min 0,000 mm 0,0 UV-I 69 W/m 3,0 C 3,5 C 17,7 km/h (3 Bft) 100,00 %
10.11.2017 13:50 7,7 C 7,8 C 72 % 1017,9 hPa 0,0 l/m 13,8 km/h (3 Bft) SW 229 0 min 0,000 mm 0,0 UV-I 75 W/m 3,0 C 2,9 C 20,9 km/h (4 Bft) 97,37 %
10.11.2017 13:52 7,7 C 7,8 C 72 % 1017,9 hPa 0,0 l/m 15,5 km/h (3 Bft) W-SW 252 0 min 0,000 mm 0,0 UV-I 82 W/m 3,0 C 2,1 C 22,5 km/h (4 Bft) 100,00 %
10.11.2017 13:54 7,7 C 7,8 C 72 % 1017,9 hPa 0,0 l/m 14,3 km/h (3 Bft) SW 217 0 min 0,000 mm 0,0 UV-I 84 W/m 3,0 C 2,7 C 25,7 km/h (4 Bft) 100,00 %
10.11.2017 13:56 7,7 C 7,8 C 72 % 1017,8 hPa 0,0 l/m 16,1 km/h (3 Bft) W 266 0 min 0,000 mm 0,0 UV-I 81 W/m 3,0 C 1,9 C 22,5 km/h (4 Bft) 100,00 %
10.11.2017 13:58 7,7 C 7,8 C 72 % 1017,8 hPa 0,0 l/m 12,5 km/h (3 Bft) W-SW 248 0 min 0,000 mm 0,0 UV-I 77 W/m 3,0 C 3,6 C 16,1 km/h (3 Bft) 96,30 %
10.11.2017 14:00 7,7 C 7,8 C 73 % 1017,8 hPa 0,0 l/m 12,8 km/h (3 Bft) SW 227 0 min 0,076 mm 0,0 UV-I 76 W/m 3,2 C 3,4 C 17,7 km/h (3 Bft) 100,00 %
10.11.2017 14:02 7,7 C 7,8 C 72 % 1017,8 hPa 0,0 l/m 13,0 km/h (3 Bft) W-SW 250 0 min 0,000 mm 0,0 UV-I 73 W/m 3,0 C 3,3 C 19,3 km/h (3 Bft) 100,00 %
10.11.2017 14:04 7,7 C 7,8 C 72 % 1017,7 hPa 0,0 l/m 13,2 km/h (3 Bft) W-SW 242 0 min 0,000 mm 0,0 UV-I 69 W/m 3,0 C 3,2 C 22,5 km/h (4 Bft) 100,00 %
10.11.2017 14:06 7,7 C 7,8 C 72 % 1017,7 hPa 0,0 l/m 12,6 km/h (3 Bft) S-SW 199 0 min 0,000 mm 0,0 UV-I 69 W/m 3,0 C 3,5 C 19,3 km/h (3 Bft) 100,00 %
10.11.2017 14:08 7,7 C 7,8 C 72 % 1017,7 hPa 0,0 l/m 12,2 km/h (2 Bft) SW 215 0 min 0,000 mm 0,0 UV-I 72 W/m 3,0 C 3,8 C 17,7 km/h (3 Bft) 100,00 %
10.11.2017 14:10 7,7 C 7,8 C 73 % 1017,6 hPa 0,0 l/m 11,2 km/h (2 Bft) S-SW 193 0 min 0,000 mm 0,0 UV-I 75 W/m 3,2 C 4,3 C 17,7 km/h (3 Bft) 100,00 %
10.11.2017 14:12 7,7 C 7,8 C 72 % 1017,6 hPa 0,0 l/m 15,9 km/h (3 Bft) SW 226 0 min 0,000 mm 0,0 UV-I 77 W/m 3,0 C 1,9 C 24,1 km/h (4 Bft) 100,00 %
10.11.2017 14:14 7,7 C 7,8 C 72 % 1017,5 hPa 0,0 l/m 17,7 km/h (3 Bft) SW 227 0 min 0,000 mm 0,0 UV-I 82 W/m 3,0 C 1,2 C 24,1 km/h (4 Bft) 98,11 %
10.11.2017 14:16 7,7 C 7,8 C 73 % 1017,5 hPa 0,0 l/m 13,4 km/h (3 Bft) SW 232 0 min 0,000 mm 0,0 UV-I 86 W/m 3,2 C 3,1 C 19,3 km/h (3 Bft) 100,00 %
10.11.2017 14:18 7,7 C 7,8 C 73 % 1017,4 hPa 0,0 l/m 16,2 km/h (3 Bft) SW 234 0 min 0,000 mm 0,0 UV-I 86 W/m 3,2 C 1,8 C 24,1 km/h (4 Bft) 98,00 %
10.11.2017 14:20 7,7 C 7,8 C 73 % 1017,4 hPa 0,0 l/m 16,5 km/h (3 Bft) SW 215 0 min 0,000 mm 0,0 UV-I 85 W/m 3,2 C 1,7 C 22,5 km/h (4 Bft) 100,00 %
10.11.2017 14:22 7,6 C 7,8 C 73 % 1017,4 hPa 0,0 l/m 12,2 km/h (2 Bft) W-SW 237 0 min 0,000 mm 0,0 UV-I 83 W/m 3,1 C 3,6 C 17,7 km/h (3 Bft) 100,00 %
10.11.2017 14:24 7,6 C 7,8 C 74 % 1017,4 hPa 0,0 l/m 13,0 km/h (3 Bft) SW 236 0 min 0,000 mm 0,0 UV-I 81 W/m 3,3 C 3,2 C 19,3 km/h (3 Bft) 100,00 %
10.11.2017 14:26 7,6 C 7,8 C 73 % 1017,4 hPa 0,0 l/m 10,4 km/h (2 Bft) S-SW 207 0 min 0,000 mm 0,0 UV-I 83 W/m 3,1 C 4,7 C 19,3 km/h (3 Bft) 100,00 %
10.11.2017 14:28 7,6 C 7,8 C 73 % 1017,4 hPa 0,0 l/m 15,3 km/h (3 Bft) W-SW 247 0 min 0,000 mm 0,0 UV-I 85 W/m 3,1 C 2,1 C 20,9 km/h (4 Bft) 100,00 %
10.11.2017 14:30 7,6 C 7,8 C 73 % 1017,4 hPa 0,0 l/m 13,3 km/h (3 Bft) W-SW 240 0 min 0,000 mm 0,0 UV-I 89 W/m 3,1 C 3,1 C 22,5 km/h (4 Bft) 100,00 %
10.11.2017 14:32 7,6 C 7,8 C 74 % 1017,4 hPa 0,0 l/m 10,8 km/h (2 Bft) SW 221 0 min 0,000 mm 0,0 UV-I 91 W/m 3,3 C 4,4 C 17,7 km/h (3 Bft) 100,00 %
10.11.2017 14:34 7,6 C 7,8 C 74 % 1017,4 hPa 0,0 l/m 11,5 km/h (2 Bft) SW 225 0 min 0,000 mm 0,0 UV-I 93 W/m 3,3 C 4,0 C 19,3 km/h (3 Bft) 97,62 %
10.11.2017 14:36 7,6 C 7,8 C 74 % 1017,4 hPa 0,0 l/m 12,0 km/h (2 Bft) S 191 0 min 0,000 mm 0,0 UV-I 95 W/m 3,3 C 3,8 C 17,7 km/h (3 Bft) 98,44 %
10.11.2017 14:38 7,6 C 7,8 C 74 % 1017,5 hPa 0,0 l/m 14,0 km/h (3 Bft) SW 218 0 min 0,000 mm 0,0 UV-I 95 W/m 3,3 C 2,7 C 22,5 km/h (4 Bft) 100,00 %
10.11.2017 14:40 7,7 C 7,8 C 73 % 1017,4 hPa 0,2 l/m 16,1 km/h (3 Bft) W-SW 239 0 min 0,000 mm 0,0 UV-I 93 W/m 3,2 C 1,9 C 25,7 km/h (4 Bft) 100,00 %
10.11.2017 14:42 7,7 C 7,8 C 73 % 1017,4 hPa 0,0 l/m 15,3 km/h (3 Bft) W-SW 242 0 min 0,000 mm 0,0 UV-I 89 W/m 3,2 C 2,2 C 20,9 km/h (4 Bft) 100,00 %
10.11.2017 14:44 7,7 C 7,8 C 73 % 1017,4 hPa 0,0 l/m 13,6 km/h (3 Bft) W-SW 244 0 min 0,000 mm 0,0 UV-I 84 W/m 3,2 C 3,0 C 19,3 km/h (3 Bft) 100,00 %
10.11.2017 14:46 7,7 C 7,8 C 73 % 1017,4 hPa 0,0 l/m 12,9 km/h (3 Bft) W-SW 252 0 min 0,000 mm 0,0 UV-I 73 W/m 3,2 C 3,4 C 19,3 km/h (3 Bft) 100,00 %
10.11.2017 14:48 7,6 C 7,8 C 74 % 1017,4 hPa 0,0 l/m 13,1 km/h (3 Bft) SW 232 0 min 0,000 mm 0,0 UV-I 64 W/m 3,3 C 3,2 C 17,7 km/h (3 Bft) 100,00 %
10.11.2017 14:50 7,6 C 7,8 C 74 % 1017,4 hPa 0,0 l/m 9,8 km/h (2 Bft) SW 231 0 min 0,000 mm 0,0 UV-I 62 W/m 3,3 C 5,1 C 16,1 km/h (3 Bft) 100,00 %
10.11.2017 14:52 7,6 C 7,8 C 74 % 1017,4 hPa 0,0 l/m 13,7 km/h (3 Bft) SW 227 0 min 0,000 mm 0,0 UV-I 64 W/m 3,3 C 2,9 C 19,3 km/h (3 Bft) 97,87 %
10.11.2017 14:54 7,6 C 7,8 C 74 % 1017,4 hPa 0,0 l/m 16,6 km/h (3 Bft) W-SW 244 0 min 0,000 mm 0,0 UV-I 59 W/m 3,3 C 1,5 C 20,9 km/h (4 Bft) 95,74 %
10.11.2017 14:56 7,6 C 7,8 C 73 % 1017,3 hPa 0,0 l/m 14,6 km/h (3 Bft) W 265 0 min 0,000 mm 0,0 UV-I 51 W/m 3,1 C 2,4 C 25,7 km/h (4 Bft) 92,45 %
10.11.2017 14:58 7,6 C 7,8 C 73 % 1017,3 hPa 0,0 l/m 14,2 km/h (3 Bft) W-SW 237 0 min 0,000 mm 0,0 UV-I 45 W/m 3,1 C 2,6 C 20,9 km/h (4 Bft) 97,37 %
10.11.2017 15:00 7,6 C 7,8 C 73 % 1017,3 hPa 0,0 l/m 14,0 km/h (3 Bft) W-SW 248 0 min 0,000 mm 0,0 UV-I 40 W/m 3,1 C 2,7 C 20,9 km/h (4 Bft) 94,44 %
10.11.2017 15:02 7,6 C 7,8 C 74 % 1017,3 hPa 0,0 l/m 10,8 km/h (2 Bft) SW 221 0 min 0,076 mm 0,0 UV-I 38 W/m 3,3 C 4,4 C 16,1 km/h (3 Bft) 95,12 %
10.11.2017 15:04 7,6 C 7,8 C 74 % 1017,3 hPa 0,0 l/m 8,0 km/h (2 Bft) SW 227 0 min 0,000 mm 0,0 UV-I 35 W/m 3,3 C 6,3 C 12,9 km/h (3 Bft) 94,64 %
10.11.2017 15:06 7,6 C 7,8 C 74 % 1017,2 hPa 0,0 l/m 10,6 km/h (2 Bft) W-SW 257 0 min 0,000 mm 0,0 UV-I 32 W/m 3,3 C 4,6 C 17,7 km/h (3 Bft) 96,00 %
10.11.2017 15:08 7,6 C 7,8 C 75 % 1017,2 hPa 0,0 l/m 11,9 km/h (2 Bft) W-SW 255 0 min 0,000 mm 0,0 UV-I 29 W/m 3,5 C 3,8 C 19,3 km/h (3 Bft) 94,74 %
10.11.2017 15:10 7,6 C 7,8 C 74 % 1017,3 hPa 0,0 l/m 11,2 km/h (2 Bft) W 269 0 min 0,000 mm 0,0 UV-I 27 W/m 3,3 C 4,2 C 17,7 km/h (3 Bft) 95,12 %
10.11.2017 15:12 7,5 C 7,8 C 75 % 1017,3 hPa 0,0 l/m 13,4 km/h (3 Bft) W-SW 252 0 min 0,000 mm 0,0 UV-I 26 W/m 3,4 C 2,9 C 20,9 km/h (4 Bft) 94,64 %
10.11.2017 15:14 7,5 C 7,8 C 74 % 1017,2 hPa 0,0 l/m 13,6 km/h (3 Bft) SW 228 0 min 0,000 mm 0,0 UV-I 29 W/m 3,2 C 2,8 C 24,1 km/h (4 Bft) 95,12 %
10.11.2017 15:16 7,6 C 7,8 C 74 % 1017,2 hPa 0,0 l/m 13,8 km/h (3 Bft) W 259 0 min 0,000 mm 0,0 UV-I 32 W/m 3,3 C 2,8 C 20,9 km/h (4 Bft) 95,74 %
10.11.2017 15:18 7,5 C 7,8 C 74 % 1017,2 hPa 0,0 l/m 11,3 km/h (2 Bft) W-SW 244 0 min 0,000 mm 0,0 UV-I 35 W/m 3,2 C 4,0 C 16,1 km/h (3 Bft) 94,34 %
10.11.2017 15:20 7,5 C 7,8 C 74 % 1017,2 hPa 0,0 l/m 14,6 km/h (3 Bft) W-SW 239 0 min 0,000 mm 0,0 UV-I 39 W/m 3,2 C 2,3 C 22,5 km/h (4 Bft) 96,00 %
10.11.2017 15:22 7,5 C 7,8 C 74 % 1017,2 hPa 0,0 l/m 14,7 km/h (3 Bft) W 259 0 min 0,000 mm 0,0 UV-I 43 W/m 3,2 C 2,2 C 22,5 km/h (4 Bft) 94,44 %
10.11.2017 15:24 7,5 C 7,8 C 75 % 1017,1 hPa 0,0 l/m 12,3 km/h (3 Bft) W-SW 248 0 min 0,000 mm 0,0 UV-I 45 W/m 3,4 C 3,5 C 17,7 km/h (3 Bft) 96,23 %
10.11.2017 15:26 7,5 C 7,8 C 75 % 1017,1 hPa 0,0 l/m 13,4 km/h (3 Bft) SW 219 0 min 0,000 mm 0,0 UV-I 46 W/m 3,4 C 2,9 C 20,9 km/h (4 Bft) 96,23 %
10.11.2017 15:28 7,5 C 7,8 C 75 % 1017,2 hPa 0,0 l/m 15,1 km/h (3 Bft) W-SW 241 0 min 0,000 mm 0,0 UV-I 46 W/m 3,4 C 2,1 C 20,9 km/h (4 Bft) 95,74 %
10.11.2017 15:30 7,6 C 7,8 C 74 % 1017,1 hPa 0,0 l/m 12,1 km/h (2 Bft) SW 229 0 min 0,000 mm 0,0 UV-I 46 W/m 3,3 C 3,7 C 20,9 km/h (4 Bft) 97,37 %
10.11.2017 15:32 7,5 C 7,8 C 75 % 1017,1 hPa 0,0 l/m 10,2 km/h (2 Bft) SW 215 0 min 0,000 mm 0,0 UV-I 44 W/m 3,4 C 4,7 C 14,5 km/h (3 Bft) 98,21 %
10.11.2017 15:34 7,5 C 7,8 C 75 % 1017,2 hPa 0,0 l/m 11,8 km/h (2 Bft) SW 219 0 min 0,000 mm 0,0 UV-I 44 W/m 3,4 C 3,7 C 17,7 km/h (3 Bft) 97,14 %
10.11.2017 15:36 7,5 C 7,8 C 75 % 1017,2 hPa 0,0 l/m 15,6 km/h (3 Bft) SW 234 0 min 0,000 mm 0,0 UV-I 44 W/m 3,4 C 1,8 C 24,1 km/h (4 Bft) 96,43 %
10.11.2017 15:38 7,5 C 7,8 C 75 % 1017,1 hPa 0,0 l/m 12,0 km/h (2 Bft) W-SW 238 0 min 0,000 mm 0,0 UV-I 44 W/m 3,4 C 3,6 C 20,9 km/h (4 Bft) 91,43 %
10.11.2017 15:40 7,5 C 7,8 C 75 % 1017,0 hPa 0,0 l/m 14,4 km/h (3 Bft) W-SW 241 0 min 0,000 mm 0,0 UV-I 41 W/m 3,4 C 2,4 C 24,1 km/h (4 Bft) 94,64 %
10.11.2017 15:42 7,5 C 7,8 C 75 % 1017,1 hPa 0,0 l/m 12,5 km/h (3 Bft) SW 225 0 min 0,000 mm 0,0 UV-I 38 W/m 3,4 C 3,4 C 16,1 km/h (3 Bft) 97,37 %
10.11.2017 15:44 7,4 C 7,8 C 76 % 1016,9 hPa 0,0 l/m 11,8 km/h (2 Bft) W-SW 246 0 min 0,000 mm 0,0 UV-I 37 W/m 3,5 C 3,6 C 22,5 km/h (4 Bft) 96,61 %
10.11.2017 15:46 7,4 C 7,8 C 75 % 1016,9 hPa 0,0 l/m 12,4 km/h (3 Bft) W-SW 238 0 min 0,000 mm 0,0 UV-I 37 W/m 3,3 C 3,3 C 17,7 km/h (3 Bft) 97,73 %
10.11.2017 15:48 7,4 C 7,8 C 76 % 1016,9 hPa 0,0 l/m 15,3 km/h (3 Bft) W-SW 242 0 min 0,000 mm 0,0 UV-I 37 W/m 3,5 C 1,8 C 22,5 km/h (4 Bft) 97,73 %
10.11.2017 15:50 7,4 C 7,8 C 76 % 1016,9 hPa 0,0 l/m 13,5 km/h (3 Bft) SW 234 0 min 0,000 mm 0,0 UV-I 36 W/m 3,5 C 2,7 C 19,3 km/h (3 Bft) 94,00 %
10.11.2017 15:52 7,3 C 7,8 C 76 % 1016,9 hPa 0,0 l/m 13,3 km/h (3 Bft) W-SW 238 0 min 0,000 mm 0,0 UV-I 34 W/m 3,4 C 2,7 C 22,5 km/h (4 Bft) 97,56 %
10.11.2017 15:54 7,3 C 7,8 C 76 % 1016,9 hPa 0,0 l/m 15,7 km/h (3 Bft) SW 226 0 min 0,000 mm 0,0 UV-I 31 W/m 3,4 C 1,5 C 22,5 km/h (4 Bft) 98,11 %
10.11.2017 15:56 7,3 C 7,8 C 76 % 1016,9 hPa 0,0 l/m 11,9 km/h (2 Bft) SW 216 0 min 0,000 mm 0,0 UV-I 27 W/m 3,4 C 3,5 C 20,9 km/h (4 Bft) 97,56 %
10.11.2017 15:58 7,3 C 7,8 C 76 % 1016,9 hPa 0,0 l/m 13,9 km/h (3 Bft) SW 217 0 min 0,000 mm 0,0 UV-I 25 W/m 3,4 C 2,4 C 22,5 km/h (4 Bft) 100,00 %
10.11.2017 16:00 7,3 C 7,8 C 76 % 1016,9 hPa 0,0 l/m 16,1 km/h (3 Bft) W-SW 246 0 min 0,051 mm 0,0 UV-I 24 W/m 3,4 C 1,4 C 24,1 km/h (4 Bft) 100,00 %
10.11.2017 16:02 7,2 C 7,8 C 77 % 1016,9 hPa 0,0 l/m 14,8 km/h (3 Bft) SW 236 0 min 0,000 mm 0,0 UV-I 21 W/m 3,4 C 1,8 C 20,9 km/h (4 Bft) 100,00 %
10.11.2017 16:04 7,2 C 7,8 C 77 % 1016,9 hPa 0,0 l/m 15,1 km/h (3 Bft) SW 218 0 min 0,000 mm 0,0 UV-I 20 W/m 3,4 C 1,7 C 20,9 km/h (4 Bft) 100,00 %
10.11.2017 16:06 7,2 C 7,8 C 77 % 1016,8 hPa 0,0 l/m 15,1 km/h (3 Bft) SW 223 0 min 0,000 mm 0,0 UV-I 18 W/m 3,4 C 1,7 C 20,9 km/h (4 Bft) 100,00 %
10.11.2017 16:08 7,2 C 7,8 C 77 % 1016,8 hPa 0,0 l/m 17,0 km/h (3 Bft) SW 223 0 min 0,000 mm 0,0 UV-I 17 W/m 3,4 C 0,8 C 22,5 km/h (4 Bft) 97,87 %
10.11.2017 16:10 7,2 C 7,8 C 77 % 1016,9 hPa 0,0 l/m 16,1 km/h (3 Bft) SW 235 0 min 0,000 mm 0,0 UV-I 16 W/m 3,4 C 1,2 C 25,7 km/h (4 Bft) 98,11 %
10.11.2017 16:12 7,2 C 7,8 C 77 % 1016,8 hPa 0,0 l/m 15,5 km/h (3 Bft) SW 227 0 min 0,000 mm 0,0 UV-I 14 W/m 3,4 C 1,5 C 22,5 km/h (4 Bft) 100,00 %
10.11.2017 16:14 7,2 C 7,8 C 77 % 1016,8 hPa 0,0 l/m 13,0 km/h (3 Bft) W-SW 237 0 min 0,000 mm 0,0 UV-I 14 W/m 3,4 C 2,7 C 20,9 km/h (4 Bft) 100,00 %
10.11.2017 16:16 7,2 C 7,8 C 77 % 1016,7 hPa 0,0 l/m 12,1 km/h (2 Bft) SW 228 0 min 0,000 mm 0,0 UV-I 12 W/m 3,4 C 3,2 C 19,3 km/h (3 Bft) 97,37 %
10.11.2017 16:18 7,2 C 7,8 C 77 % 1016,8 hPa 0,0 l/m 14,2 km/h (3 Bft) SW 236 2 min 0,000 mm 0,0 UV-I 12 W/m 3,4 C 2,1 C 19,3 km/h (3 Bft) 100,00 %
10.11.2017 16:20 7,2 C 7,8 C 76 % 1016,8 hPa 0,0 l/m 12,5 km/h (3 Bft) S 175 2 min 0,000 mm 0,0 UV-I 12 W/m 3,3 C 3,0 C 17,7 km/h (3 Bft) 97,87 %
10.11.2017 16:22 7,2 C 7,8 C 76 % 1016,8 hPa 0,0 l/m 11,1 km/h (2 Bft) S-SW 192 0 min 0,000 mm 0,0 UV-I 12 W/m 3,3 C 3,8 C 16,1 km/h (3 Bft) 100,00 %
10.11.2017 16:24 7,2 C 7,8 C 77 % 1016,8 hPa 0,0 l/m 10,4 km/h (2 Bft) SW 232 0 min 0,000 mm 0,0 UV-I 11 W/m 3,4 C 4,2 C 16,1 km/h (3 Bft) 100,00 %
10.11.2017 16:26 7,2 C 7,8 C 77 % 1016,8 hPa 0,0 l/m 10,1 km/h (2 Bft) SW 225 0 min 0,000 mm 0,0 UV-I 11 W/m 3,4 C 4,4 C 16,1 km/h (3 Bft) 100,00 %
10.11.2017 16:28 7,2 C 7,8 C 77 % 1016,9 hPa 0,0 l/m 10,7 km/h (2 Bft) W-SW 240 0 min 0,000 mm 0,0 UV-I 11 W/m 3,4 C 4,1 C 20,9 km/h (4 Bft) 100,00 %
10.11.2017 16:30 7,1 C 7,8 C 77 % 1016,9 hPa 0,0 l/m 13,2 km/h (3 Bft) SW 232 0 min 0,000 mm 0,0 UV-I 9 W/m 3,3 C 2,5 C 22,5 km/h (4 Bft) 100,00 %
10.11.2017 16:32 7,1 C 7,8 C 77 % 1016,9 hPa 0,0 l/m 11,0 km/h (2 Bft) SW 214 0 min 0,000 mm 0,0 UV-I 8 W/m 3,3 C 3,8 C 17,7 km/h (3 Bft) 100,00 %
10.11.2017 16:34 7,0 C 7,8 C 78 % 1016,8 hPa 0,0 l/m 9,8 km/h (2 Bft) W-SW 238 0 min 0,000 mm 0,0 UV-I 7 W/m 3,4 C 4,4 C 16,1 km/h (3 Bft) 100,00 %
10.11.2017 16:36 7,0 C 7,8 C 78 % 1016,8 hPa 0,0 l/m 10,7 km/h (2 Bft) SW 225 0 min 0,000 mm 0,0 UV-I 7 W/m 3,4 C 3,8 C 16,1 km/h (3 Bft) 97,87 %
10.11.2017 16:38 6,9 C 7,8 C 78 % 1016,7 hPa 0,0 l/m 11,6 km/h (2 Bft) SW 232 0 min 0,000 mm 0,0 UV-I 5 W/m 3,3 C 3,2 C 17,7 km/h (3 Bft) 96,15 %
10.11.2017 16:40 6,9 C 7,8 C 78 % 1016,8 hPa 0,0 l/m 11,8 km/h (2 Bft) W-SW 244 0 min 0,000 mm 0,0 UV-I 5 W/m 3,3 C 3,1 C 16,1 km/h (3 Bft) 100,00 %
10.11.2017 16:42 6,8 C 7,8 C 79 % 1016,7 hPa 0,0 l/m 12,3 km/h (3 Bft) SW 229 0 min 0,000 mm 0,0 UV-I 5 W/m 3,4 C 2,7 C 17,7 km/h (3 Bft) 100,00 %
10.11.2017 16:44 6,8 C 7,8 C 79 % 1016,8 hPa 0,0 l/m 11,3 km/h (2 Bft) SW 223 0 min 0,000 mm 0,0 UV-I 5 W/m 3,4 C 3,2 C 19,3 km/h (3 Bft) 100,00 %
10.11.2017 16:46 6,8 C 7,8 C 79 % 1016,8 hPa 0,0 l/m 12,5 km/h (3 Bft) SW 221 0 min 0,000 mm 0,0 UV-I 2 W/m 3,4 C 2,5 C 19,3 km/h (3 Bft) 100,00 %
10.11.2017 16:48 6,8 C 7,8 C 79 % 1016,7 hPa 0,0 l/m 11,5 km/h (2 Bft) W-SW 238 0 min 0,000 mm 0,0 UV-I 0 W/m 3,4 C 3,1 C 16,1 km/h (3 Bft) 100,00 %
10.11.2017 16:50 6,8 C 7,8 C 79 % 1016,7 hPa 0,0 l/m 10,5 km/h (2 Bft) SW 235 0 min 0,000 mm 0,0 UV-I 0 W/m 3,4 C 3,7 C 16,1 km/h (3 Bft) 100,00 %
10.11.2017 16:52 6,8 C 7,8 C 79 % 1016,7 hPa 0,0 l/m 8,9 km/h (2 Bft) W-SW 247 0 min 0,000 mm 0,0 UV-I 0 W/m 3,4 C 4,8 C 12,9 km/h (3 Bft) 100,00 %
10.11.2017 16:54 6,7 C 7,8 C 79 % 1016,6 hPa 0,0 l/m 9,1 km/h (2 Bft) SW 229 0 min 0,000 mm 0,0 UV-I 0 W/m 3,3 C 4,6 C 14,5 km/h (3 Bft) 100,00 %
10.11.2017 16:56 6,7 C 7,8 C 79 % 1016,6 hPa 0,0 l/m 12,0 km/h (2 Bft) SW 215 0 min 0,000 mm 0,0 UV-I 0 W/m 3,3 C 2,7 C 22,5 km/h (4 Bft) 100,00 %
10.11.2017 16:58 6,8 C 7,8 C 79 % 1016,6 hPa 0,0 l/m 11,2 km/h (2 Bft) W-SW 241 0 min 0,000 mm 0,0 UV-I 0 W/m 3,4 C 3,3 C 17,7 km/h (3 Bft) 97,37 %
10.11.2017 17:00 6,8 C 7,8 C 79 % 1016,5 hPa 0,0 l/m 12,7 km/h (3 Bft) SW 218 0 min 0,025 mm 0,0 UV-I 0 W/m 3,4 C 2,4 C 22,5 km/h (4 Bft) 96,23 %
10.11.2017 17:02 6,8 C 7,8 C 79 % 1016,5 hPa 0,0 l/m 10,9 km/h (2 Bft) S-SW 206 0 min 0,000 mm 0,0 UV-I 0 W/m 3,4 C 3,5 C 17,7 km/h (3 Bft) 97,56 %
10.11.2017 17:04 6,8 C 7,8 C 79 % 1016,5 hPa 0,0 l/m 15,7 km/h (3 Bft) W-SW 243 0 min 0,000 mm 0,0 UV-I 0 W/m 3,4 C 0,9 C 27,4 km/h (4 Bft) 98,11 %
10.11.2017 17:06 6,9 C 7,8 C 78 % 1016,5 hPa 0,0 l/m 13,2 km/h (3 Bft) S-SW 209 0 min 0,000 mm 0,0 UV-I 0 W/m 3,3 C 2,3 C 22,5 km/h (4 Bft) 98,00 %
10.11.2017 17:08 6,9 C 7,8 C 78 % 1016,5 hPa 0,0 l/m 14,1 km/h (3 Bft) W-SW 239 0 min 0,000 mm 0,0 UV-I 0 W/m 3,3 C 1,8 C 19,3 km/h (3 Bft) 97,87 %
10.11.2017 17:10 6,9 C 7,8 C 78 % 1016,5 hPa 0,0 l/m 11,1 km/h (2 Bft) SW 234 0 min 0,000 mm 0,0 UV-I 0 W/m 3,3 C 3,5 C 16,1 km/h (3 Bft) 97,37 %
10.11.2017 17:12 6,9 C 7,8 C 78 % 1016,5 hPa 0,0 l/m 12,6 km/h (3 Bft) SW 217 0 min 0,000 mm 0,0 UV-I 0 W/m 3,3 C 2,6 C 17,7 km/h (3 Bft) 94,64 %
10.11.2017 17:14 6,9 C 7,8 C 78 % 1016,4 hPa 0,0 l/m 14,1 km/h (3 Bft) SW 221 0 min 0,000 mm 0,0 UV-I 0 W/m 3,3 C 1,8 C 22,5 km/h (4 Bft) 97,56 %
10.11.2017 17:16 7,0 C 7,8 C 78 % 1016,5 hPa 0,0 l/m 12,3 km/h (3 Bft) W-SW 257 0 min 0,000 mm 0,0 UV-I 0 W/m 3,4 C 2,9 C 16,1 km/h (3 Bft) 98,00 %
10.11.2017 17:18 7,0 C 7,8 C 78 % 1016,5 hPa 0,0 l/m 13,0 km/h (3 Bft) W-SW 253 0 min 0,000 mm 0,0 UV-I 0 W/m 3,4 C 2,5 C 20,9 km/h (4 Bft) 95,74 %
10.11.2017 17:20 6,9 C 7,8 C 78 % 1016,5 hPa 0,0 l/m 11,0 km/h (2 Bft) SW 234 0 min 0,000 mm 0,0 UV-I 0 W/m 3,3 C 3,5 C 14,5 km/h (3 Bft) 96,77 %
10.11.2017 17:22 7,0 C 7,8 C 78 % 1016,4 hPa 0,0 l/m 13,0 km/h (3 Bft) W-SW 248 0 min 0,000 mm 0,0 UV-I 0 W/m 3,4 C 2,5 C 20,9 km/h (4 Bft) 98,39 %
10.11.2017 17:24 6,9 C 7,8 C 78 % 1016,5 hPa 0,0 l/m 12,7 km/h (3 Bft) W-SW 252 0 min 0,000 mm 0,0 UV-I 0 W/m 3,3 C 2,6 C 16,1 km/h (3 Bft) 97,56 %
10.11.2017 17:26 6,9 C 7,8 C 78 % 1016,4 hPa 0,0 l/m 9,4 km/h (2 Bft) W-SW 239 0 min 0,000 mm 0,0 UV-I 0 W/m 3,3 C 4,6 C 14,5 km/h (3 Bft) 98,11 %
10.11.2017 17:28 6,9 C 7,8 C 78 % 1016,4 hPa 0,0 l/m 10,2 km/h (2 Bft) SW 236 0 min 0,000 mm 0,0 UV-I 0 W/m 3,3 C 4,0 C 14,5 km/h (3 Bft) 96,00 %
10.11.2017 17:30 6,9 C 7,8 C 78 % 1016,4 hPa 0,0 l/m 9,6 km/h (2 Bft) SW 225 0 min 0,000 mm 0,0 UV-I 0 W/m 3,3 C 4,4 C 14,5 km/h (3 Bft) 97,37 %
10.11.2017 17:32 6,9 C 7,8 C 78 % 1016,4 hPa 0,0 l/m 10,6 km/h (2 Bft) W-SW 250 0 min 0,000 mm 0,0 UV-I 0 W/m 3,3 C 3,8 C 14,5 km/h (3 Bft) 93,62 %
10.11.2017 17:34 6,9 C 7,8 C 79 % 1016,3 hPa 0,0 l/m 12,0 km/h (2 Bft) W-SW 238 0 min 0,000 mm 0,0 UV-I 0 W/m 3,5 C 2,9 C 16,1 km/h (3 Bft) 100,00 %
10.11.2017 17:36 6,8 C 7,8 C 79 % 1016,3 hPa 0,0 l/m 8,5 km/h (2 Bft) S-SW 213 0 min 0,000 mm 0,0 UV-I 0 W/m 3,4 C 5,1 C 12,9 km/h (3 Bft) 100,00 %
10.11.2017 17:38 6,8 C 7,8 C 79 % 1016,3 hPa 0,0 l/m 8,4 km/h (2 Bft) SW 231 0 min 0,000 mm 0,0 UV-I 0 W/m 3,4 C 5,2 C 12,9 km/h (3 Bft) 100,00 %
10.11.2017 17:40 6,7 C 7,8 C 80 % 1016,3 hPa 0,0 l/m 8,7 km/h (2 Bft) W-SW 248 0 min 0,000 mm 0,0 UV-I 0 W/m 3,5 C 4,9 C 14,5 km/h (3 Bft) 97,14 %
10.11.2017 17:42 6,7 C 7,8 C 80 % 1016,4 hPa 0,0 l/m 8,0 km/h (2 Bft) W-SW 248 0 min 0,000 mm 0,0 UV-I 0 W/m 3,5 C 5,4 C 12,9 km/h (3 Bft) 98,21 %
10.11.2017 17:44 6,7 C 7,8 C 80 % 1016,3 hPa 0,0 l/m 8,2 km/h (2 Bft) SW 232 0 min 0,000 mm 0,0 UV-I 0 W/m 3,5 C 5,2 C 11,3 km/h (2 Bft) 100,00 %
10.11.2017 17:46 6,7 C 7,8 C 80 % 1016,3 hPa 0,0 l/m 10,1 km/h (2 Bft) SW 221 0 min 0,000 mm 0,0 UV-I 0 W/m 3,5 C 3,9 C 14,5 km/h (3 Bft) 100,00 %
10.11.2017 17:48 6,6 C 7,8 C 80 % 1016,3 hPa 0,0 l/m 9,4 km/h (2 Bft) SW 219 0 min 0,000 mm 0,0 UV-I 0 W/m 3,4 C 4,2 C 14,5 km/h (3 Bft) 100,00 %
10.11.2017 17:50 6,6 C 7,8 C 80 % 1016,3 hPa 0,0 l/m 9,2 km/h (2 Bft) W-SW 258 0 min 0,000 mm 0,0 UV-I 0 W/m 3,4 C 4,4 C 14,5 km/h (3 Bft) 100,00 %
10.11.2017 17:52 6,6 C 7,8 C 80 % 1016,3 hPa 0,0 l/m 7,8 km/h (2 Bft) W-SW 238 0 min 0,000 mm 0,0 UV-I 0 W/m 3,4 C 5,4 C 12,9 km/h (3 Bft) 94,74 %
10.11.2017 17:54 6,6 C 7,8 C 80 % 1016,3 hPa 0,0 l/m 9,1 km/h (2 Bft) W 259 0 min 0,000 mm 0,0 UV-I 0 W/m 3,4 C 4,5 C 12,9 km/h (3 Bft) 98,11 %
10.11.2017 17:56 6,6 C 7,8 C 80 % 1016,3 hPa 0,0 l/m 10,6 km/h (2 Bft) SW 219 0 min 0,000 mm 0,0 UV-I 0 W/m 3,4 C 3,4 C 14,5 km/h (3 Bft) 97,62 %
10.11.2017 17:58 6,6 C 7,8 C 80 % 1016,3 hPa 0,0 l/m 9,3 km/h (2 Bft) W-SW 247 0 min 0,000 mm 0,0 UV-I 0 W/m 3,4 C 4,3 C 12,9 km/h (3 Bft) 100,00 %
10.11.2017 18:00 6,6 C 7,8 C 80 % 1016,4 hPa 0,0 l/m 9,0 km/h (2 Bft) W-SW 243 0 min 0,000 mm 0,0 UV-I 0 W/m 3,4 C 4,5 C 14,5 km/h (3 Bft) 96,00 %
10.11.2017 18:02 6,6 C 7,8 C 81 % 1016,4 hPa 0,0 l/m 9,5 km/h (2 Bft) W-SW 252 0 min 0,026 mm 0,0 UV-I 0 W/m 3,6 C 4,2 C 14,5 km/h (3 Bft) 100,00 %
10.11.2017 18:04 6,6 C 7,8 C 81 % 1016,4 hPa 0,0 l/m 7,6 km/h (2 Bft) W-SW 244 0 min 0,000 mm 0,0 UV-I 0 W/m 3,6 C 5,6 C 12,9 km/h (3 Bft) 100,00 %
10.11.2017 18:06 6,6 C 7,8 C 81 % 1016,4 hPa 0,0 l/m 8,3 km/h (2 Bft) SW 228 0 min 0,000 mm 0,0 UV-I 0 W/m 3,6 C 5,1 C 12,9 km/h (3 Bft) 100,00 %
10.11.2017 18:08 6,6 C 7,8 C 81 % 1016,4 hPa 0,0 l/m 10,2 km/h (2 Bft) SW 231 0 min 0,000 mm 0,0 UV-I 0 W/m 3,6 C 3,7 C 12,9 km/h (3 Bft) 100,00 %
10.11.2017 18:10 6,6 C 7,8 C 81 % 1016,4 hPa 0,0 l/m 8,4 km/h (2 Bft) W-SW 242 0 min 0,000 mm 0,0 UV-I 0 W/m 3,6 C 5,0 C 11,3 km/h (2 Bft) 100,00 %
10.11.2017 18:12 6,6 C 7,8 C 81 % 1016,4 hPa 0,0 l/m 9,8 km/h (2 Bft) SW 236 0 min 0,000 mm 0,0 UV-I 0 W/m 3,6 C 4,0 C 16,1 km/h (3 Bft) 100,00 %
10.11.2017 18:14 6,6 C 7,8 C 81 % 1016,3 hPa 0,0 l/m 8,5 km/h (2 Bft) W-SW 241 0 min 0,000 mm 0,0 UV-I 0 W/m 3,6 C 4,9 C 12,9 km/h (3 Bft) 100,00 %
10.11.2017 18:16 6,6 C 7,8 C 80 % 1016,3 hPa 0,0 l/m 7,3 km/h (2 Bft) SW 235 0 min 0,000 mm 0,0 UV-I 0 W/m 3,4 C 5,8 C 14,5 km/h (3 Bft) 97,37 %
10.11.2017 18:18 6,6 C 7,8 C 80 % 1016,3 hPa 0,0 l/m 7,0 km/h (2 Bft) W-SW 248 0 min 0,000 mm 0,0 UV-I 0 W/m 3,4 C 6,1 C 11,3 km/h (2 Bft) 97,14 %
10.11.2017 18:24 6,6 C 7,8 C 81 % 1016,3 hPa 0,0 l/m 7,5 km/h (2 Bft) SW 232 0 min 0,000 mm 0,0 UV-I 0 W/m 3,6 C 5,7 C 9,7 km/h (2 Bft) 99,38 %
10.11.2017 18:26 6,6 C 7,8 C 81 % 1016,3 hPa 0,0 l/m 6,4 km/h (2 Bft) W-SW 240 0 min 0,000 mm 0,0 UV-I 0 W/m 3,6 C 6,6 C 9,7 km/h (2 Bft) 100,00 %
10.11.2017 18:28 6,6 C 7,8 C 81 % 1016,3 hPa 0,0 l/m 5,5 km/h (1 Bft) SW 232 0 min 0,000 mm 0,0 UV-I 0 W/m 3,6 C 6,6 C 6,4 km/h (2 Bft) 100,00 %
10.11.2017 18:30 6,6 C 7,8 C 81 % 1016,3 hPa 0,0 l/m 5,5 km/h (1 Bft) W 270 0 min 0,000 mm 0,0 UV-I 0 W/m 3,6 C 6,6 C 11,3 km/h (2 Bft) 100,00 %
10.11.2017 18:32 6,6 C 7,8 C 81 % 1016,3 hPa 0,0 l/m 7,3 km/h (2 Bft) SW 236 0 min 0,000 mm 0,0 UV-I 0 W/m 3,6 C 5,8 C 11,3 km/h (2 Bft) 100,00 %
10.11.2017 18:34 6,6 C 7,8 C 81 % 1016,4 hPa 0,0 l/m 6,5 km/h (2 Bft) SW 225 0 min 0,000 mm 0,0 UV-I 0 W/m 3,6 C 6,5 C 8,0 km/h (2 Bft) 100,00 %
10.11.2017 18:36 6,5 C 7,8 C 81 % 1016,3 hPa 0,0 l/m 7,5 km/h (2 Bft) S-SW 212 0 min 0,000 mm 0,0 UV-I 0 W/m 3,5 C 5,6 C 9,7 km/h (2 Bft) 100,00 %
10.11.2017 18:38 6,5 C 7,8 C 81 % 1016,4 hPa 0,0 l/m 6,5 km/h (2 Bft) W-SW 239 0 min 0,000 mm 0,0 UV-I 0 W/m 3,5 C 6,4 C 11,3 km/h (2 Bft) 100,00 %
10.11.2017 18:40 6,5 C 7,8 C 81 % 1016,3 hPa 0,0 l/m 4,9 km/h (1 Bft) SW 234 0 min 0,000 mm 0,0 UV-I 0 W/m 3,5 C 6,5 C 6,4 km/h (2 Bft) 100,00 %
10.11.2017 18:42 6,5 C 7,8 C 82 % 1016,4 hPa 0,0 l/m 6,1 km/h (2 Bft) SW 231 0 min 0,000 mm 0,0 UV-I 0 W/m 3,7 C 6,5 C 8,0 km/h (2 Bft) 100,00 %
10.11.2017 18:44 6,4 C 7,8 C 82 % 1016,4 hPa 0,0 l/m 7,5 km/h (2 Bft) SW 225 0 min 0,000 mm 0,0 UV-I 0 W/m 3,6 C 5,5 C 11,3 km/h (2 Bft) 97,87 %
10.11.2017 18:46 6,4 C 7,8 C 82 % 1016,3 hPa 0,0 l/m 7,2 km/h (2 Bft) SW 228 0 min 0,000 mm 0,0 UV-I 0 W/m 3,6 C 5,7 C 11,3 km/h (2 Bft) 93,62 %
10.11.2017 18:48 6,4 C 7,8 C 82 % 1016,3 hPa 0,0 l/m 5,4 km/h (1 Bft) SW 225 0 min 0,000 mm 0,0 UV-I 0 W/m 3,6 C 6,4 C 8,0 km/h (2 Bft) 97,87 %
10.11.2017 18:50 6,4 C 7,8 C 82 % 1016,3 hPa 0,0 l/m 6,2 km/h (2 Bft) SW 236 0 min 0,000 mm 0,0 UV-I 0 W/m 3,6 C 6,4 C 9,7 km/h (2 Bft) 96,00 %
10.11.2017 18:52 6,4 C 7,8 C 82 % 1016,3 hPa 0,0 l/m 5,7 km/h (1 Bft) SW 225 0 min 0,000 mm 0,0 UV-I 0 W/m 3,6 C 6,4 C 8,0 km/h (2 Bft) 97,73 %
10.11.2017 18:54 6,4 C 7,8 C 82 % 1016,2 hPa 0,0 l/m 7,5 km/h (2 Bft) SW 218 0 min 0,000 mm 0,0 UV-I 0 W/m 3,6 C 5,5 C 12,9 km/h (3 Bft) 97,73 %
10.11.2017 18:56 6,4 C 7,8 C 82 % 1016,2 hPa 0,0 l/m 6,9 km/h (2 Bft) SW 236 0 min 0,000 mm 0,0 UV-I 0 W/m 3,6 C 6,0 C 8,0 km/h (2 Bft) 98,11 %
10.11.2017 18:58 6,4 C 7,8 C 82 % 1016,2 hPa 0,0 l/m 6,9 km/h (2 Bft) W-SW 254 0 min 0,000 mm 0,0 UV-I 0 W/m 3,6 C 6,0 C 11,3 km/h (2 Bft) 94,29 %
10.11.2017 19:00 6,4 C 7,8 C 82 % 1016,1 hPa 0,0 l/m 10,6 km/h (2 Bft) W-SW 248 0 min 0,000 mm 0,0 UV-I 0 W/m 3,6 C 3,2 C 17,7 km/h (3 Bft) 98,11 %
10.11.2017 19:02 6,4 C 7,8 C 81 % 1016,1 hPa 0,0 l/m 9,5 km/h (2 Bft) S-SW 205 0 min 0,025 mm 0,0 UV-I 0 W/m 3,4 C 4,0 C 14,5 km/h (3 Bft) 96,23 %
10.11.2017 19:04 6,4 C 7,8 C 81 % 1016,1 hPa 0,0 l/m 9,4 km/h (2 Bft) SW 219 0 min 0,000 mm 0,0 UV-I 0 W/m 3,4 C 4,0 C 14,5 km/h (3 Bft) 89,47 %
10.11.2017 19:06 6,5 C 7,8 C 81 % 1015,9 hPa 0,0 l/m 11,4 km/h (2 Bft) W-SW 238 0 min 0,000 mm 0,0 UV-I 0 W/m 3,5 C 2,8 C 17,7 km/h (3 Bft) 95,45 %
10.11.2017 19:08 6,5 C 7,8 C 81 % 1015,9 hPa 0,0 l/m 10,1 km/h (2 Bft) SW 229 0 min 0,000 mm 0,0 UV-I 0 W/m 3,5 C 3,7 C 12,9 km/h (3 Bft) 96,23 %
10.11.2017 19:10 6,6 C 7,8 C 81 % 1015,9 hPa 0,0 l/m 9,6 km/h (2 Bft) W-SW 248 0 min 0,000 mm 0,0 UV-I 0 W/m 3,6 C 4,1 C 16,1 km/h (3 Bft) 95,12 %
10.11.2017 19:12 6,6 C 7,8 C 80 % 1015,9 hPa 0,0 l/m 10,3 km/h (2 Bft) W-SW 249 0 min 0,000 mm 0,0 UV-I 0 W/m 3,4 C 3,6 C 14,5 km/h (3 Bft) 96,43 %
10.11.2017 19:14 6,6 C 7,8 C 81 % 1015,9 hPa 0,0 l/m 10,4 km/h (2 Bft) S-SW 211 0 min 0,000 mm 0,0 UV-I 0 W/m 3,6 C 3,6 C 16,1 km/h (3 Bft) 91,49 %
10.11.2017 19:16 6,6 C 7,8 C 81 % 1015,8 hPa 0,0 l/m 9,3 km/h (2 Bft) W-SW 253 0 min 0,000 mm 0,0 UV-I 0 W/m 3,6 C 4,3 C 12,9 km/h (3 Bft) 100,00 %
10.11.2017 19:18 6,6 C 7,8 C 81 % 1015,8 hPa 0,0 l/m 11,1 km/h (2 Bft) W-SW 248 0 min 0,000 mm 0,0 UV-I 0 W/m 3,6 C 3,1 C 19,3 km/h (3 Bft) 90,00 %
10.11.2017 19:20 6,6 C 7,8 C 81 % 1015,8 hPa 0,0 l/m 8,7 km/h (2 Bft) W-SW 240 0 min 0,000 mm 0,0 UV-I 0 W/m 3,6 C 4,8 C 12,9 km/h (3 Bft) 95,45 %
10.11.2017 19:22 6,5 C 7,8 C 81 % 1015,8 hPa 0,0 l/m 10,0 km/h (2 Bft) W-SW 239 0 min 0,000 mm 0,0 UV-I 0 W/m 3,5 C 3,7 C 14,5 km/h (3 Bft) 94,64 %
10.11.2017 19:24 6,4 C 7,8 C 82 % 1015,8 hPa 0,0 l/m 10,3 km/h (2 Bft) W-SW 250 0 min 0,000 mm 0,0 UV-I 0 W/m 3,6 C 3,4 C 12,9 km/h (3 Bft) 95,12 %
10.11.2017 19:26 6,4 C 7,8 C 82 % 1015,8 hPa 0,0 l/m 10,1 km/h (2 Bft) W-SW 251 0 min 0,000 mm 0,0 UV-I 0 W/m 3,6 C 3,6 C 16,1 km/h (3 Bft) 95,45 %
10.11.2017 19:28 6,4 C 7,8 C 82 % 1015,8 hPa 0,0 l/m 11,0 km/h (2 Bft) SW 234 0 min 0,000 mm 0,0 UV-I 0 W/m 3,6 C 3,0 C 16,1 km/h (3 Bft) 93,62 %
10.11.2017 19:30 6,4 C 7,8 C 82 % 1015,7 hPa 0,0 l/m 9,8 km/h (2 Bft) SW 232 0 min 0,000 mm 0,0 UV-I 0 W/m 3,6 C 3,8 C 16,1 km/h (3 Bft) 92,68 %
10.11.2017 19:32 6,4 C 7,8 C 83 % 1015,7 hPa 0,0 l/m 8,4 km/h (2 Bft) SW 227 0 min 0,000 mm 0,0 UV-I 0 W/m 3,7 C 4,8 C 11,3 km/h (2 Bft) 94,92 %
10.11.2017 19:34 6,3 C 7,8 C 83 % 1015,6 hPa 0,0 l/m 10,1 km/h (2 Bft) SW 235 0 min 0,000 mm 0,0 UV-I 0 W/m 3,6 C 3,4 C 14,5 km/h (3 Bft) 95,74 %
10.11.2017 19:36 6,3 C 7,8 C 83 % 1015,6 hPa 0,0 l/m 9,4 km/h (2 Bft) SW 235 0 min 0,000 mm 0,0 UV-I 0 W/m 3,6 C 3,9 C 12,9 km/h (3 Bft) 92,11 %
10.11.2017 19:38 6,3 C 7,8 C 83 % 1015,6 hPa 0,0 l/m 9,2 km/h (2 Bft) SW 235 0 min 0,000 mm 0,0 UV-I 0 W/m 3,6 C 4,1 C 12,9 km/h (3 Bft) 94,34 %
10.11.2017 19:40 6,3 C 7,8 C 83 % 1015,5 hPa 0,0 l/m 8,2 km/h (2 Bft) SW 217 0 min 0,000 mm 0,0 UV-I 0 W/m 3,6 C 4,8 C 11,3 km/h (2 Bft) 97,56 %
10.11.2017 19:42 6,3 C 7,8 C 83 % 1015,5 hPa 0,0 l/m 8,0 km/h (2 Bft) S-SW 209 0 min 0,000 mm 0,0 UV-I 0 W/m 3,6 C 5,0 C 12,9 km/h (3 Bft) 98,11 %
10.11.2017 19:44 6,3 C 7,8 C 82 % 1015,6 hPa 0,0 l/m 8,6 km/h (2 Bft) SW 214 0 min 0,000 mm 0,0 UV-I 0 W/m 3,5 C 4,5 C 14,5 km/h (3 Bft) 92,00 %
10.11.2017 19:46 6,3 C 7,8 C 82 % 1015,5 hPa 0,0 l/m 9,6 km/h (2 Bft) W-SW 238 0 min 0,000 mm 0,0 UV-I 0 W/m 3,5 C 3,8 C 14,5 km/h (3 Bft) 95,74 %
10.11.2017 19:48 6,3 C 7,8 C 82 % 1015,5 hPa 0,0 l/m 8,4 km/h (2 Bft) SW 218 0 min 0,000 mm 0,0 UV-I 0 W/m 3,5 C 4,7 C 12,9 km/h (3 Bft) 92,59 %
10.11.2017 19:50 6,3 C 7,8 C 82 % 1015,5 hPa 0,0 l/m 10,0 km/h (2 Bft) SW 226 0 min 0,000 mm 0,0 UV-I 0 W/m 3,5 C 3,5 C 14,5 km/h (3 Bft) 100,00 %
10.11.2017 19:52 6,3 C 7,8 C 82 % 1015,5 hPa 0,0 l/m 9,7 km/h (2 Bft) W 270 0 min 0,000 mm 0,0 UV-I 0 W/m 3,5 C 3,7 C 16,1 km/h (3 Bft) 98,11 %
10.11.2017 19:54 6,3 C 7,8 C 82 % 1015,5 hPa 0,0 l/m 10,6 km/h (2 Bft) W-SW 257 0 min 0,000 mm 0,0 UV-I 0 W/m 3,5 C 3,1 C 17,7 km/h (3 Bft) 100,00 %
10.11.2017 19:56 6,3 C 7,8 C 82 % 1015,4 hPa 0,0 l/m 12,7 km/h (3 Bft) W-SW 238 0 min 0,000 mm 0,0 UV-I 0 W/m 3,5 C 1,9 C 17,7 km/h (3 Bft) 100,00 %
10.11.2017 19:58 6,3 C 7,8 C 82 % 1015,5 hPa 0,0 l/m 12,4 km/h (3 Bft) W-SW 240 0 min 0,000 mm 0,0 UV-I 0 W/m 3,5 C 2,0 C 19,3 km/h (3 Bft) 98,08 %
10.11.2017 20:00 6,3 C 7,8 C 82 % 1015,4 hPa 0,0 l/m 14,4 km/h (3 Bft) W-SW 246 0 min 0,000 mm 0,0 UV-I 0 W/m 3,5 C 0,9 C 22,5 km/h (4 Bft) 100,00 %
10.11.2017 20:02 6,4 C 7,8 C 82 % 1015,4 hPa 0,0 l/m 13,8 km/h (3 Bft) SW 232 0 min 0,026 mm 0,0 UV-I 0 W/m 3,6 C 1,4 C 19,3 km/h (3 Bft) 100,00 %
10.11.2017 20:04 6,4 C 7,8 C 82 % 1015,4 hPa 0,0 l/m 11,5 km/h (2 Bft) W 262 0 min 0,000 mm 0,0 UV-I 0 W/m 3,6 C 2,7 C 16,1 km/h (3 Bft) 100,00 %
10.11.2017 20:06 6,4 C 7,8 C 82 % 1015,5 hPa 0,0 l/m 13,4 km/h (3 Bft) W-SW 258 0 min 0,000 mm 0,0 UV-I 0 W/m 3,6 C 1,6 C 20,9 km/h (4 Bft) 100,00 %
10.11.2017 20:08 6,3 C 7,8 C 82 % 1015,4 hPa 0,0 l/m 14,9 km/h (3 Bft) SW 226 0 min 0,000 mm 0,0 UV-I 0 W/m 3,5 C 0,7 C 22,5 km/h (4 Bft) 100,00 %
10.11.2017 20:10 6,4 C 7,8 C 82 % 1015,4 hPa 0,0 l/m 14,9 km/h (3 Bft) W-SW 254 0 min 0,000 mm 0,0 UV-I 0 W/m 3,6 C 0,8 C 22,5 km/h (4 Bft) 100,00 %
10.11.2017 20:12 6,4 C 7,8 C 82 % 1015,5 hPa 0,0 l/m 14,0 km/h (3 Bft) W-SW 244 0 min 0,000 mm 0,0 UV-I 0 W/m 3,6 C 1,3 C 19,3 km/h (3 Bft) 100,00 %
10.11.2017 20:14 6,3 C 7,8 C 83 % 1015,4 hPa 0,0 l/m 13,6 km/h (3 Bft) W-SW 240 0 min 0,000 mm 0,0 UV-I 0 W/m 3,6 C 1,4 C 19,3 km/h (3 Bft) 100,00 %
10.11.2017 20:16 6,4 C 7,8 C 83 % 1015,5 hPa 0,0 l/m 15,4 km/h (3 Bft) SW 236 0 min 0,000 mm 0,0 UV-I 0 W/m 3,7 C 0,6 C 25,7 km/h (4 Bft) 100,00 %
10.11.2017 20:18 6,4 C 7,8 C 83 % 1015,5 hPa 0,0 l/m 12,0 km/h (2 Bft) SW 221 0 min 0,000 mm 0,0 UV-I 0 W/m 3,7 C 2,4 C 20,9 km/h (4 Bft) 100,00 %
10.11.2017 20:20 6,4 C 7,8 C 83 % 1015,6 hPa 0,0 l/m 14,7 km/h (3 Bft) W-SW 258 0 min 0,000 mm 0,0 UV-I 0 W/m 3,7 C 0,9 C 20,9 km/h (4 Bft) 98,53 %
10.11.2017 20:22 6,4 C 7,8 C 83 % 1015,6 hPa 0,0 l/m 17,8 km/h (3 Bft) S-SW 207 0 min 0,000 mm 0,0 UV-I 0 W/m 3,7 C -0,5 C 24,1 km/h (4 Bft) 100,00 %
10.11.2017 20:24 6,4 C 7,8 C 83 % 1015,6 hPa 0,0 l/m 14,5 km/h (3 Bft) S-SW 206 0 min 0,000 mm 0,0 UV-I 0 W/m 3,7 C 1,0 C 24,1 km/h (4 Bft) 100,00 %
10.11.2017 20:26 6,4 C 7,8 C 84 % 1015,6 hPa 0,0 l/m 17,4 km/h (3 Bft) W-SW 243 0 min 0,000 mm 0,0 UV-I 0 W/m 3,9 C -0,3 C 24,1 km/h (4 Bft) 98,51 %
10.11.2017 20:28 6,3 C 7,8 C 84 % 1015,6 hPa 0,0 l/m 18,4 km/h (3 Bft) SW 231 0 min 0,000 mm 0,0 UV-I 0 W/m 3,8 C -0,9 C 25,7 km/h (4 Bft) 100,00 %
10.11.2017 20:30 6,3 C 7,8 C 84 % 1015,6 hPa 0,0 l/m 14,3 km/h (3 Bft) W-SW 245 0 min 0,000 mm 0,0 UV-I 0 W/m 3,8 C 1,0 C 25,7 km/h (4 Bft) 88,89 %
10.11.2017 20:32 6,3 C 7,8 C 85 % 1015,6 hPa 0,0 l/m 16,5 km/h (3 Bft) W-SW 244 0 min 0,000 mm 0,0 UV-I 0 W/m 4,0 C -0,1 C 24,1 km/h (4 Bft) 98,63 %
10.11.2017 20:34 6,3 C 7,8 C 85 % 1015,6 hPa 0,0 l/m 17,3 km/h (3 Bft) SW 232 0 min 0,000 mm 0,0 UV-I 0 W/m 4,0 C -0,4 C 24,1 km/h (4 Bft) 100,00 %
10.11.2017 20:36 6,2 C 7,8 C 85 % 1015,6 hPa 0,0 l/m 17,3 km/h (3 Bft) W-SW 246 0 min 0,000 mm 0,0 UV-I 0 W/m 3,9 C -0,5 C 24,1 km/h (4 Bft) 100,00 %
10.11.2017 20:38 6,2 C 7,8 C 86 % 1015,6 hPa 0,0 l/m 18,0 km/h (3 Bft) W-SW 245 0 min 0,000 mm 0,0 UV-I 0 W/m 4,0 C -0,8 C 27,4 km/h (4 Bft) 97,44 %
10.11.2017 20:40 6,2 C 7,8 C 86 % 1015,6 hPa 0,2 l/m 18,1 km/h (3 Bft) SW 229 0 min 0,000 mm 0,0 UV-I 0 W/m 4,0 C -0,9 C 24,1 km/h (4 Bft) 100,00 %
10.11.2017 20:43 6,1 C 7,8 C 87 % 1015,6 hPa 0,0 l/m 17,4 km/h (3 Bft) W-SW 250 0 min 0,000 mm 0,0 UV-I 0 W/m 4,1 C -0,7 C 25,7 km/h (4 Bft) 97,01 %
10.11.2017 20:44 6,0 C 7,8 C 87 % 1015,6 hPa 0,0 l/m 17,3 km/h (3 Bft) W-SW 254 0 min 0,000 mm 0,0 UV-I 0 W/m 4,0 C -0,8 C 20,9 km/h (4 Bft) 100,00 %
10.11.2017 20:46 6,0 C 7,8 C 88 % 1015,5 hPa 0,0 l/m 18,8 km/h (3 Bft) W-SW 250 0 min 0,000 mm 0,0 UV-I 0 W/m 4,2 C -1,4 C 33,8 km/h (5 Bft) 100,00 %
10.11.2017 20:48 5,9 C 7,8 C 88 % 1015,5 hPa 0,0 l/m 13,5 km/h (3 Bft) W-SW 258 0 min 0,000 mm 0,0 UV-I 0 W/m 4,1 C 0,9 C 20,9 km/h (4 Bft) 100,00 %
10.11.2017 20:50 5,9 C 7,8 C 88 % 1015,5 hPa 0,0 l/m 16,1 km/h (3 Bft) W-SW 250 0 min 0,000 mm 0,0 UV-I 0 W/m 4,1 C -0,4 C 24,1 km/h (4 Bft) 100,00 %
10.11.2017 20:52 5,9 C 7,8 C 89 % 1015,6 hPa 0,0 l/m 18,1 km/h (3 Bft) W-SW 240 0 min 0,000 mm 0,0 UV-I 0 W/m 4,2 C -1,2 C 24,1 km/h (4 Bft) 100,00 %
10.11.2017 20:54 5,9 C 7,8 C 88 % 1015,5 hPa 0,0 l/m 18,4 km/h (3 Bft) W-SW 242 0 min 0,000 mm 0,0 UV-I 0 W/m 4,1 C -1,4 C 24,1 km/h (4 Bft) 100,00 %
10.11.2017 20:56 5,9 C 7,8 C 89 % 1015,6 hPa 0,0 l/m 15,5 km/h (3 Bft) W-SW 242 0 min 0,000 mm 0,0 UV-I 0 W/m 4,2 C -0,1 C 25,7 km/h (4 Bft) 100,00 %
10.11.2017 20:58 5,9 C 7,8 C 89 % 1015,5 hPa 0,0 l/m 17,3 km/h (3 Bft) SW 229 0 min 0,000 mm 0,0 UV-I 0 W/m 4,2 C -0,9 C 25,7 km/h (4 Bft) 100,00 %
10.11.2017 21:00 5,9 C 7,8 C 89 % 1015,6 hPa 0,0 l/m 15,4 km/h (3 Bft) SW 219 0 min 0,000 mm 0,0 UV-I 0 W/m 4,2 C -0,0 C 29,0 km/h (5 Bft) 100,00 %
10.11.2017 21:02 5,9 C 7,8 C 89 % 1015,6 hPa 0,0 l/m 14,3 km/h (3 Bft) SW 221 0 min 0,025 mm 0,0 UV-I 0 W/m 4,2 C 0,5 C 24,1 km/h (4 Bft) 98,11 %
10.11.2017 21:04 5,9 C 7,8 C 88 % 1015,5 hPa 0,0 l/m 17,2 km/h (3 Bft) W-SW 248 0 min 0,000 mm 0,0 UV-I 0 W/m 4,1 C -0,9 C 25,7 km/h (4 Bft) 100,00 %
10.11.2017 21:06 5,9 C 7,8 C 88 % 1015,5 hPa 0,0 l/m 17,3 km/h (3 Bft) W-SW 238 0 min 0,000 mm 0,0 UV-I 0 W/m 4,1 C -0,9 C 29,0 km/h (5 Bft) 100,00 %
10.11.2017 21:08 5,9 C 7,8 C 88 % 1015,5 hPa 0,0 l/m 15,2 km/h (3 Bft) SW 223 0 min 0,000 mm 0,0 UV-I 0 W/m 4,1 C 0,1 C 20,9 km/h (4 Bft) 100,00 %
10.11.2017 21:10 5,9 C 7,8 C 88 % 1015,5 hPa 0,0 l/m 13,1 km/h (3 Bft) SW 221 0 min 0,000 mm 0,0 UV-I 0 W/m 4,1 C 1,2 C 24,1 km/h (4 Bft) 97,67 %
10.11.2017 21:12 5,9 C 7,8 C 89 % 1015,5 hPa 0,0 l/m 13,2 km/h (3 Bft) SW 232 0 min 0,000 mm 0,0 UV-I 0 W/m 4,2 C 1,1 C 22,5 km/h (4 Bft) 97,62 %
10.11.2017 21:14 5,9 C 7,8 C 89 % 1015,5 hPa 0,0 l/m 18,8 km/h (3 Bft) W-SW 252 0 min 0,000 mm 0,0 UV-I 0 W/m 4,2 C -1,5 C 30,6 km/h (5 Bft) 98,08 %
10.11.2017 21:16 5,8 C 7,8 C 89 % 1015,4 hPa 0,0 l/m 17,9 km/h (3 Bft) SW 231 0 min 0,000 mm 0,0 UV-I 0 W/m 4,1 C -1,3 C 25,7 km/h (4 Bft) 95,12 %
10.11.2017 21:18 5,8 C 7,8 C 89 % 1015,4 hPa 0,0 l/m 13,6 km/h (3 Bft) SW 229 0 min 0,000 mm 0,0 UV-I 0 W/m 4,1 C 0,8 C 24,1 km/h (4 Bft) 97,56 %
10.11.2017 21:20 5,8 C 7,8 C 89 % 1015,5 hPa 0,0 l/m 18,6 km/h (3 Bft) W-SW 238 0 min 0,000 mm 0,0 UV-I 0 W/m 4,1 C -1,6 C 25,7 km/h (4 Bft) 96,61 %
10.11.2017 21:22 5,8 C 7,8 C 89 % 1015,5 hPa 0,0 l/m 13,7 km/h (3 Bft) W-SW 237 0 min 0,000 mm 0,0 UV-I 0 W/m 4,1 C 0,7 C 25,7 km/h (4 Bft) 97,56 %
10.11.2017 21:24 5,8 C 7,8 C 89 % 1015,4 hPa 0,0 l/m 18,8 km/h (3 Bft) W 268 0 min 0,000 mm 0,0 UV-I 0 W/m 4,1 C -1,7 C 29,0 km/h (5 Bft) 95,12 %
10.11.2017 21:26 5,8 C 7,8 C 89 % 1015,4 hPa 0,0 l/m 16,8 km/h (3 Bft) SW 221 0 min 0,000 mm 0,0 UV-I 0 W/m 4,1 C -0,8 C 29,0 km/h (5 Bft) 98,21 %
10.11.2017 21:28 5,8 C 7,8 C 89 % 1015,4 hPa 0,0 l/m 21,7 km/h (4 Bft) SW 229 0 min 0,000 mm 0,0 UV-I 0 W/m 4,1 C -2,8 C 30,6 km/h (5 Bft) 98,00 %
10.11.2017 21:30 5,8 C 7,8 C 89 % 1015,4 hPa 0,0 l/m 21,9 km/h (4 Bft) S-SW 213 0 min 0,000 mm 0,0 UV-I 0 W/m 4,1 C -2,8 C 32,2 km/h (5 Bft) 96,00 %
10.11.2017 21:32 5,8 C 7,8 C 89 % 1015,5 hPa 0,0 l/m 20,9 km/h (4 Bft) W 262 0 min 0,000 mm 0,0 UV-I 0 W/m 4,1 C -2,5 C 30,6 km/h (5 Bft) 97,56 %
10.11.2017 21:34 5,9 C 7,8 C 89 % 1015,5 hPa 0,0 l/m 20,1 km/h (4 Bft) W-SW 248 0 min 0,000 mm 0,0 UV-I 0 W/m 4,2 C -2,0 C 32,2 km/h (5 Bft) 94,00 %
10.11.2017 21:36 5,8 C 7,8 C 89 % 1015,4 hPa 0,0 l/m 20,6 km/h (4 Bft) SW 217 0 min 0,000 mm 0,0 UV-I 0 W/m 4,1 C -2,4 C 29,0 km/h (5 Bft) 95,74 %
10.11.2017 21:38 5,9 C 7,8 C 90 % 1015,5 hPa 0,0 l/m 19,3 km/h (3 Bft) W-SW 238 0 min 0,000 mm 0,0 UV-I 0 W/m 4,4 C -1,7 C 25,7 km/h (4 Bft) 97,37 %
10.11.2017 21:40 5,8 C 7,8 C 90 % 1015,4 hPa 0,0 l/m 19,7 km/h (3 Bft) W 265 0 min 0,000 mm 0,0 UV-I 0 W/m 4,3 C -2,0 C 29,0 km/h (5 Bft) 97,87 %
10.11.2017 21:42 5,8 C 7,8 C 90 % 1015,5 hPa 0,0 l/m 22,2 km/h (4 Bft) S 186 0 min 0,000 mm 0,0 UV-I 0 W/m 4,3 C -2,9 C 38,6 km/h (5 Bft) 98,00 %
10.11.2017 21:44 5,8 C 7,8 C 90 % 1015,4 hPa 0,0 l/m 20,5 km/h (4 Bft) W 281 0 min 0,000 mm 0,0 UV-I 0 W/m 4,3 C -2,3 C 32,2 km/h (5 Bft) 97,56 %
10.11.2017 21:46 5,8 C 7,8 C 91 % 1015,5 hPa 0,0 l/m 19,2 km/h (3 Bft) W-SW 248 0 min 0,000 mm 0,0 UV-I 0 W/m 4,4 C -1,8 C 25,7 km/h (4 Bft) 100,00 %
10.11.2017 21:48 5,8 C 7,8 C 91 % 1015,5 hPa 0,0 l/m 20,6 km/h (4 Bft) SW 232 0 min 0,000 mm 0,0 UV-I 0 W/m 4,4 C -2,4 C 33,8 km/h (5 Bft) 97,37 %
10.11.2017 21:50 5,7 C 7,8 C 91 % 1015,5 hPa 0,0 l/m 21,9 km/h (4 Bft) SW 226 0 min 0,000 mm 0,0 UV-I 0 W/m 4,3 C -3,0 C 32,2 km/h (5 Bft) 97,62 %
10.11.2017 21:52 5,7 C 7,8 C 91 % 1015,4 hPa 0,0 l/m 21,5 km/h (4 Bft) W-SW 243 0 min 0,000 mm 0,0 UV-I 0 W/m 4,3 C -2,8 C 29,0 km/h (5 Bft) 98,15 %
10.11.2017 21:54 5,7 C 7,8 C 91 % 1015,4 hPa 0,0 l/m 19,3 km/h (3 Bft) W-SW 240 0 min 0,000 mm 0,0 UV-I 0 W/m 4,3 C -2,0 C 25,7 km/h (4 Bft) 100,00 %
10.11.2017 21:56 5,7 C 7,8 C 92 % 1015,4 hPa 0,2 l/m 20,4 km/h (4 Bft) SW 236 0 min 0,000 mm 0,0 UV-I 0 W/m 4,5 C -2,4 C 32,2 km/h (5 Bft) 100,00 %
10.11.2017 21:58 5,7 C 7,8 C 92 % 1015,4 hPa 0,0 l/m 21,2 km/h (4 Bft) W-SW 252 0 min 0,000 mm 0,0 UV-I 0 W/m 4,5 C -2,7 C 29,0 km/h (5 Bft) 100,00 %
10.11.2017 22:00 5,7 C 7,8 C 92 % 1015,5 hPa 0,0 l/m 20,2 km/h (4 Bft) SW 235 0 min 0,000 mm 0,0 UV-I 0 W/m 4,5 C -2,3 C 35,4 km/h (5 Bft) 97,56 %
10.11.2017 22:02 5,7 C 7,8 C 92 % 1015,5 hPa 0,0 l/m 18,8 km/h (3 Bft) S-SW 205 0 min 0,025 mm 0,0 UV-I 0 W/m 4,5 C -1,8 C 27,4 km/h (4 Bft) 100,00 %
10.11.2017 22:04 5,7 C 7,8 C 92 % 1015,4 hPa 0,0 l/m 21,2 km/h (4 Bft) W-SW 252 0 min 0,000 mm 0,0 UV-I 0 W/m 4,5 C -2,7 C 30,6 km/h (5 Bft) 100,00 %
10.11.2017 22:06 5,7 C 7,8 C 93 % 1015,5 hPa 0,0 l/m 22,7 km/h (4 Bft) W-SW 246 0 min 0,000 mm 0,0 UV-I 0 W/m 4,7 C -3,2 C 30,6 km/h (5 Bft) 100,00 %
10.11.2017 22:08 5,7 C 7,8 C 93 % 1015,4 hPa 0,2 l/m 18,7 km/h (3 Bft) W 263 0 min 0,000 mm 0,0 UV-I 0 W/m 4,7 C -1,8 C 30,6 km/h (5 Bft) 100,00 %
10.11.2017 22:10 5,6 C 7,8 C 93 % 1015,4 hPa 0,0 l/m 18,3 km/h (3 Bft) W-SW 237 0 min 0,000 mm 0,0 UV-I 0 W/m 4,6 C -1,7 C 25,7 km/h (4 Bft) 100,00 %
10.11.2017 22:12 5,6 C 7,8 C 93 % 1015,5 hPa 0,0 l/m 17,6 km/h (3 Bft) W-SW 244 0 min 0,000 mm 0,0 UV-I 0 W/m 4,6 C -1,4 C 27,4 km/h (4 Bft) 100,00 %
10.11.2017 22:14 5,6 C 7,8 C 93 % 1015,4 hPa 0,0 l/m 19,5 km/h (3 Bft) SW 224 0 min 0,000 mm 0,0 UV-I 0 W/m 4,6 C -2,2 C 30,6 km/h (5 Bft) 100,00 %
10.11.2017 22:16 5,6 C 7,8 C 93 % 1015,5 hPa 0,2 l/m 18,5 km/h (3 Bft) W-SW 243 0 min 0,000 mm 0,0 UV-I 0 W/m 4,6 C -1,8 C 25,7 km/h (4 Bft) 100,00 %
10.11.2017 22:18 5,6 C 7,8 C 94 % 1015,5 hPa 0,0 l/m 18,3 km/h (3 Bft) W-SW 250 0 min 0,000 mm 0,0 UV-I 0 W/m 4,7 C -1,7 C 29,0 km/h (5 Bft) 100,00 %
10.11.2017 22:20 5,6 C 7,8 C 94 % 1015,4 hPa 0,2 l/m 21,1 km/h (4 Bft) W-SW 240 0 min 0,000 mm 0,0 UV-I 0 W/m 4,7 C -2,8 C 27,4 km/h (4 Bft) 100,00 %
10.11.2017 22:22 5,6 C 7,8 C 94 % 1015,3 hPa 0,0 l/m 20,2 km/h (4 Bft) S-SW 192 0 min 0,000 mm 0,0 UV-I 0 W/m 4,7 C -2,5 C 37,0 km/h (5 Bft) 100,00 %
10.11.2017 22:24 5,6 C 7,8 C 94 % 1015,3 hPa 0,2 l/m 17,7 km/h (3 Bft) S-SO 157 0 min 0,000 mm 0,0 UV-I 0 W/m 4,7 C -1,5 C 30,6 km/h (5 Bft) 98,00 %
10.11.2017 22:26 5,6 C 7,8 C 94 % 1015,4 hPa 0,0 l/m 18,0 km/h (3 Bft) SW 236 0 min 0,000 mm 0,0 UV-I 0 W/m 4,7 C -1,6 C 27,4 km/h (4 Bft) 100,00 %
10.11.2017 22:28 5,6 C 7,8 C 94 % 1015,3 hPa 0,0 l/m 25,1 km/h (4 Bft) SW 215 0 min 0,000 mm 0,0 UV-I 0 W/m 4,7 C -4,2 C 37,0 km/h (5 Bft) 98,11 %
10.11.2017 22:30 5,6 C 7,8 C 94 % 1015,3 hPa 0,0 l/m 21,6 km/h (4 Bft) W-SW 241 0 min 0,000 mm 0,0 UV-I 0 W/m 4,7 C -3,0 C 33,8 km/h (5 Bft) 96,23 %
10.11.2017 22:32 5,6 C 7,8 C 94 % 1015,3 hPa 0,0 l/m 20,1 km/h (4 Bft) W 261 0 min 0,000 mm 0,0 UV-I 0 W/m 4,7 C -2,4 C 30,6 km/h (5 Bft) 97,56 %
10.11.2017 22:34 5,7 C 7,8 C 94 % 1015,3 hPa 0,0 l/m 18,6 km/h (3 Bft) SW 219 0 min 0,000 mm 0,0 UV-I 0 W/m 4,8 C -1,7 C 32,2 km/h (5 Bft) 98,11 %
10.11.2017 22:36 5,7 C 7,8 C 94 % 1015,3 hPa 0,2 l/m 18,1 km/h (3 Bft) W-SW 240 0 min 0,000 mm 0,0 UV-I 0 W/m 4,8 C -1,5 C 30,6 km/h (5 Bft) 97,44 %
10.11.2017 22:38 5,7 C 7,8 C 94 % 1015,3 hPa 0,0 l/m 20,2 km/h (4 Bft) W-SW 242 0 min 0,000 mm 0,0 UV-I 0 W/m 4,8 C -2,3 C 30,6 km/h (5 Bft) 97,14 %
10.11.2017 22:40 5,7 C 7,8 C 94 % 1015,3 hPa 0,0 l/m 21,2 km/h (4 Bft) W-SW 249 0 min 0,000 mm 0,0 UV-I 0 W/m 4,8 C -2,7 C 30,6 km/h (5 Bft) 98,53 %
10.11.2017 22:43 5,8 C 7,8 C 94 % 1015,3 hPa 0,0 l/m 23,2 km/h (4 Bft) W-SW 238 0 min 0,000 mm 0,0 UV-I 0 W/m 4,9 C -3,3 C 30,6 km/h (5 Bft) 97,01 %
10.11.2017 22:44 5,8 C 7,8 C 94 % 1015,3 hPa 0,0 l/m 29,0 km/h (5 Bft) W-SW 240 0 min 0,000 mm 0,0 UV-I 0 W/m 4,9 C -5,0 C 37,0 km/h (5 Bft) 100,00 %
10.11.2017 22:46 5,8 C 7,8 C 94 % 1015,3 hPa 0,0 l/m 25,3 km/h (4 Bft) SW 218 0 min 0,000 mm 0,0 UV-I 0 W/m 4,9 C -4,0 C 33,8 km/h (5 Bft) 96,23 %
10.11.2017 22:48 5,8 C 7,8 C 94 % 1015,3 hPa 0,0 l/m 17,8 km/h (3 Bft) W 259 0 min 0,000 mm 0,0 UV-I 0 W/m 4,9 C -1,2 C 25,7 km/h (4 Bft) 97,67 %
10.11.2017 22:50 5,8 C 7,8 C 94 % 1015,2 hPa 0,0 l/m 18,2 km/h (3 Bft) S-SW 210 0 min 0,000 mm 0,0 UV-I 0 W/m 4,9 C -1,4 C 32,2 km/h (5 Bft) 96,23 %
10.11.2017 22:52 5,8 C 7,8 C 94 % 1015,3 hPa 0,0 l/m 21,7 km/h (4 Bft) SW 232 0 min 0,000 mm 0,0 UV-I 0 W/m 4,9 C -2,8 C 32,2 km/h (5 Bft) 100,00 %
10.11.2017 22:54 5,8 C 7,8 C 94 % 1015,3 hPa 0,0 l/m 19,5 km/h (3 Bft) SW 218 0 min 0,000 mm 0,0 UV-I 0 W/m 4,9 C -1,9 C 27,4 km/h (4 Bft) 94,92 %
10.11.2017 22:56 5,8 C 7,8 C 94 % 1015,3 hPa 0,0 l/m 20,0 km/h (4 Bft) SW 234 0 min 0,000 mm 0,0 UV-I 0 W/m 4,9 C -2,1 C 30,6 km/h (5 Bft) 100,00 %
10.11.2017 22:58 5,8 C 7,8 C 94 % 1015,3 hPa 0,0 l/m 20,4 km/h (4 Bft) SW 230 0 min 0,000 mm 0,0 UV-I 0 W/m 4,9 C -2,3 C 32,2 km/h (5 Bft) 97,06 %
10.11.2017 23:00 5,9 C 7,8 C 94 % 1015,3 hPa 0,2 l/m 20,2 km/h (4 Bft) W-SW 251 0 min 0,000 mm 0,0 UV-I 0 W/m 5,0 C -2,1 C 29,0 km/h (5 Bft) 97,56 %
10.11.2017 23:02 5,9 C 7,8 C 94 % 1015,2 hPa 0,0 l/m 20,4 km/h (4 Bft) SW 222 0 min 0,026 mm 0,0 UV-I 0 W/m 5,0 C -2,2 C 32,2 km/h (5 Bft) 97,73 %
10.11.2017 23:04 5,9 C 7,8 C 94 % 1015,2 hPa 0,0 l/m 19,0 km/h (3 Bft) SW 235 0 min 0,000 mm 0,0 UV-I 0 W/m 5,0 C -1,6 C 24,1 km/h (4 Bft) 98,11 %
10.11.2017 23:06 5,9 C 7,8 C 94 % 1015,2 hPa 0,0 l/m 21,0 km/h (4 Bft) SW 227 0 min 0,000 mm 0,0 UV-I 0 W/m 5,0 C -2,4 C 25,7 km/h (4 Bft) 97,87 %
10.11.2017 23:08 5,9 C 7,8 C 94 % 1015,2 hPa 0,0 l/m 17,0 km/h (3 Bft) W-SW 242 0 min 0,000 mm 0,0 UV-I 0 W/m 5,0 C -0,8 C 25,7 km/h (4 Bft) 96,30 %
10.11.2017 23:10 5,9 C 7,8 C 94 % 1015,2 hPa 0,0 l/m 18,5 km/h (3 Bft) W-SW 238 0 min 0,000 mm 0,0 UV-I 0 W/m 5,0 C -1,4 C 29,0 km/h (5 Bft) 96,88 %
10.11.2017 23:12 5,9 C 7,8 C 94 % 1015,1 hPa 0,0 l/m 16,1 km/h (3 Bft) SW 229 0 min 0,000 mm 0,0 UV-I 0 W/m 5,0 C -0,4 C 24,1 km/h (4 Bft) 97,62 %
10.11.2017 23:14 6,0 C 7,8 C 94 % 1015,1 hPa 0,0 l/m 16,7 km/h (3 Bft) SW 223 0 min 0,000 mm 0,0 UV-I 0 W/m 5,1 C -0,5 C 24,1 km/h (4 Bft) 96,00 %
10.11.2017 23:16 6,0 C 7,8 C 94 % 1015,1 hPa 0,0 l/m 15,1 km/h (3 Bft) SW 220 0 min 0,000 mm 0,0 UV-I 0 W/m 5,1 C 0,2 C 20,9 km/h (4 Bft) 96,23 %
10.11.2017 23:18 6,0 C 7,8 C 94 % 1015,1 hPa 0,0 l/m 16,5 km/h (3 Bft) SW 222 0 min 0,000 mm 0,0 UV-I 0 W/m 5,1 C -0,4 C 24,1 km/h (4 Bft) 97,37 %
10.11.2017 23:20 6,0 C 7,8 C 94 % 1015,1 hPa 0,0 l/m 17,5 km/h (3 Bft) W-SW 243 0 min 0,000 mm 0,0 UV-I 0 W/m 5,1 C -0,9 C 25,7 km/h (4 Bft) 94,64 %
10.11.2017 23:22 6,1 C 7,8 C 94 % 1015,1 hPa 0,0 l/m 17,6 km/h (3 Bft) SW 227 0 min 0,000 mm 0,0 UV-I 0 W/m 5,2 C -0,8 C 24,1 km/h (4 Bft) 95,74 %
10.11.2017 23:24 6,1 C 7,8 C 93 % 1015,1 hPa 0,0 l/m 17,8 km/h (3 Bft) SW 225 0 min 0,000 mm 0,0 UV-I 0 W/m 5,1 C -0,9 C 25,7 km/h (4 Bft) 95,12 %
10.11.2017 23:26 6,1 C 7,8 C 93 % 1015,0 hPa 0,0 l/m 14,9 km/h (3 Bft) SW 215 0 min 0,000 mm 0,0 UV-I 0 W/m 5,1 C 0,5 C 20,9 km/h (4 Bft) 96,23 %
10.11.2017 23:28 6,1 C 7,8 C 93 % 1015,0 hPa 0,0 l/m 15,9 km/h (3 Bft) SW 229 0 min 0,000 mm 0,0 UV-I 0 W/m 5,1 C -0,0 C 25,7 km/h (4 Bft) 94,29 %
10.11.2017 23:30 6,2 C 7,8 C 93 % 1015,0 hPa 0,0 l/m 15,9 km/h (3 Bft) SW 234 0 min 0,000 mm 0,0 UV-I 0 W/m 5,2 C 0,1 C 25,7 km/h (4 Bft) 96,61 %
10.11.2017 23:32 6,2 C 7,8 C 93 % 1014,9 hPa 0,0 l/m 14,6 km/h (3 Bft) W-SW 257 0 min 0,000 mm 0,0 UV-I 0 W/m 5,2 C 0,7 C 27,4 km/h (4 Bft) 95,12 %
10.11.2017 23:34 6,2 C 7,8 C 93 % 1014,8 hPa 0,0 l/m 15,8 km/h (3 Bft) W-SW 239 0 min 0,000 mm 0,0 UV-I 0 W/m 5,2 C 0,1 C 22,5 km/h (4 Bft) 95,45 %
10.11.2017 23:36 6,2 C 7,8 C 93 % 1014,8 hPa 0,0 l/m 15,5 km/h (3 Bft) SW 230 0 min 0,000 mm 0,0 UV-I 0 W/m 5,2 C 0,3 C 22,5 km/h (4 Bft) 92,00 %
10.11.2017 23:38 6,2 C 7,8 C 93 % 1014,8 hPa 0,0 l/m 14,2 km/h (3 Bft) SW 224 0 min 0,000 mm 0,0 UV-I 0 W/m 5,2 C 0,9 C 20,9 km/h (4 Bft) 95,74 %
10.11.2017 23:40 6,2 C 7,8 C 93 % 1014,9 hPa 0,0 l/m 12,9 km/h (3 Bft) SW 229 0 min 0,000 mm 0,0 UV-I 0 W/m 5,2 C 1,6 C 19,3 km/h (3 Bft) 98,00 %
10.11.2017 23:42 6,2 C 7,8 C 93 % 1014,9 hPa 0,0 l/m 12,9 km/h (3 Bft) W-SW 244 0 min 0,000 mm 0,0 UV-I 0 W/m 5,2 C 1,6 C 19,3 km/h (3 Bft) 100,00 %
10.11.2017 23:44 6,2 C 7,8 C 93 % 1014,9 hPa 0,0 l/m 8,7 km/h (2 Bft) SW 226 0 min 0,000 mm 0,0 UV-I 0 W/m 5,2 C 4,3 C 11,3 km/h (2 Bft) 98,00 %
10.11.2017 23:46 6,2 C 7,8 C 93 % 1014,9 hPa 0,0 l/m 13,5 km/h (3 Bft) W-SW 250 0 min 0,000 mm 0,0 UV-I 0 W/m 5,2 C 1,3 C 19,3 km/h (3 Bft) 97,56 %
10.11.2017 23:48 6,2 C 7,8 C 93 % 1015,0 hPa 0,0 l/m 12,2 km/h (2 Bft) S-SW 207 0 min 0,000 mm 0,0 UV-I 0 W/m 5,2 C 2,0 C 19,3 km/h (3 Bft) 96,23 %
10.11.2017 23:50 6,2 C 7,8 C 93 % 1015,0 hPa 0,0 l/m 12,5 km/h (3 Bft) SW 227 0 min 0,000 mm 0,0 UV-I 0 W/m 5,2 C 1,8 C 17,7 km/h (3 Bft) 97,62 %
10.11.2017 23:53 6,3 C 7,8 C 93 % 1014,9 hPa 0,0 l/m 9,3 km/h (2 Bft) SW 217 0 min 0,000 mm 0,0 UV-I 0 W/m 5,3 C 4,0 C 16,1 km/h (3 Bft) 95,89 %
10.11.2017 23:54 6,3 C 7,8 C 93 % 1014,9 hPa 0,0 l/m 15,6 km/h (3 Bft) SW 235 0 min 0,000 mm 0,0 UV-I 0 W/m 5,3 C 0,4 C 19,3 km/h (3 Bft) 96,55 %
10.11.2017 23:56 6,3 C 7,8 C 93 % 1014,9 hPa 0,0 l/m 14,2 km/h (3 Bft) SW 216 0 min 0,000 mm 0,0 UV-I 0 W/m 5,3 C 1,1 C 19,3 km/h (3 Bft) 100,00 %
10.11.2017 23:58 6,3 C 7,8 C 93 % 1014,9 hPa 0,0 l/m 11,6 km/h (2 Bft) W 275 0 min 0,000 mm 0,0 UV-I 0 W/m 5,3 C 2,5 C 17,7 km/h (3 Bft) 98,21 %
_ Min-Zeit 22:10 00:00 11:48 23:34 - 00:32 - - - - - - 11:48 22:44 00:08 20:30
Minimum _ 5,6 C 7,8 C 71 % 1014,8 hPa - 2,6 km/h (1 Bft) - - - - - - 2,7 C -5,0 C 4,8 km/h (1 Bft) 88,89 %
_ Max-Zeit 12:56 00:00 22:18 00:00 14:40 22:44 - - 16:18 12:00 00:00 11:50 23:53 18:26 21:42 00:10
Maximum _ 7,8 C 7,8 C 94 % 1023,9 hPa 0,2 l/m 29,0 km/h
W-SW (5 Bft)
- - 2 min 0,102 mm 0,0 UV-I 131 W/m 5,3 C 6,6 C 38,6 km/h
SW (5 Bft)
100,00 %
Durchschnitt _ 6,5 C 7,8 C 82 % 1019,3 hPa #1,8 l/m 11,1 km/h (2 Bft) SW - #4 min. #0,813 mm 0,0 UV-I 62 W/m 3,7 C 3,3 C 16,9 km/h (3 Bft) 98,03 %